Time,TemperatureF,DewpointF,PressureIn,WindDirection,WindDirectionDegrees,WindSpeedMPH,WindSpeedGustMPH,Humidity,HourlyPrecipIn,Conditions,Clouds,dailyrainin,SoftwareType,DateUTC
2013-06-20 00:00:00,59.4,33.1,29.26,East,90,3.1,3.8,37,0.00,,,0.00,VWS V14.01,2013-06-20 04:00:00,
2013-06-20 00:01:00,59.2,33.6,29.26,SSE,158,3.6,3.6,38,0.00,,,42.29,VWS V14.01,2013-06-20 04:01:00,
2013-06-20 00:02:00,59.2,33.6,29.26,East,90,1.3,4.0,38,0.00,,,42.29,VWS V14.01,2013-06-20 04:02:00,
2013-06-20 00:03:00,59.4,33.1,29.26,ESE,112,4.3,4.3,37,0.00,,,0.00,VWS V14.01,2013-06-20 04:03:00,
2013-06-20 00:04:00,59.2,33.0,29.26,ESE,112,3.6,3.6,37,0.00,,,42.29,VWS V14.01,2013-06-20 04:04:00,
2013-06-20 00:05:00,59.4,33.1,29.26,East,90,3.1,3.8,37,0.00,,,0.00,VWS V14.01,2013-06-20 04:05:00,
2013-06-20 00:06:00,59.4,33.1,29.26,East,90,4.0,5.8,37,0.00,,,0.00,VWS V14.01,2013-06-20 04:06:00,
2013-06-20 00:07:00,59.4,33.1,29.26,ENE,68,2.0,4.0,37,0.00,,,0.00,VWS V14.01,2013-06-20 04:07:00,
2013-06-20 00:08:00,59.4,33.1,29.26,ESE,112,3.8,4.0,37,0.00,,,0.00,VWS V14.01,2013-06-20 04:08:00,
2013-06-20 00:09:00,59.4,33.1,29.26,ESE,112,3.4,6.0,37,0.00,,,0.00,VWS V14.01,2013-06-20 04:09:00,
2013-06-20 00:10:00,59.4,33.1,29.26,SE,135,5.8,5.8,37,0.00,,,0.00,VWS V14.01,2013-06-20 04:10:00,
2013-06-20 00:11:00,59.2,33.0,29.26,East,90,4.0,4.0,37,0.00,,,0.00,VWS V14.01,2013-06-20 04:11:00,
2013-06-20 00:12:00,59.2,33.0,29.26,ESE,112,5.6,5.6,37,0.00,,,0.00,VWS V14.01,2013-06-20 04:12:00,
2013-06-20 00:13:00,59.2,33.0,29.26,East,90,4.0,5.6,37,0.00,,,0.00,VWS V14.01,2013-06-20 04:13:00,
2013-06-20 00:14:00,59.2,33.0,29.26,ESE,112,1.3,4.0,37,0.00,,,0.00,VWS V14.01,2013-06-20 04:14:00,
2013-06-20 00:15:00,59.2,33.0,29.26,ESE,112,4.0,4.0,37,0.00,,,0.00,VWS V14.01,2013-06-20 04:15:00,
2013-06-20 00:16:00,59.2,33.0,29.26,ESE,112,3.6,4.3,37,0.00,,,0.00,VWS V14.01,2013-06-20 04:16:00,
2013-06-20 00:17:00,59.2,33.0,29.26,East,90,4.0,4.0,37,0.00,,,0.00,VWS V14.01,2013-06-20 04:17:00,
2013-06-20 00:18:00,59.2,33.0,29.26,SE,135,2.5,4.0,37,0.00,,,0.00,VWS V14.01,2013-06-20 04:18:00,
2013-06-20 00:19:00,59.2,33.0,29.26,SE,135,2.5,2.5,37,0.00,,,0.00,VWS V14.01,2013-06-20 04:19:00,
2013-06-20 00:20:00,59.2,33.0,29.26,East,90,2.5,4.0,37,0.00,,,0.00,VWS V14.01,2013-06-20 04:20:00,
2013-06-20 00:21:00,59.2,33.0,29.26,SSW,202,3.1,4.3,37,0.00,,,0.00,VWS V14.01,2013-06-20 04:21:00,
2013-06-20 00:22:00,59.0,32.8,29.26,SSE,158,2.7,2.7,37,0.00,,,0.00,VWS V14.01,2013-06-20 04:22:00,
2013-06-20 00:23:00,59.0,32.8,29.26,ESE,112,1.3,2.9,37,0.00,,,0.00,VWS V14.01,2013-06-20 04:23:00,
2013-06-20 00:24:00,59.0,32.8,29.26,East,90,2.7,2.9,37,0.00,,,0.00,VWS V14.01,2013-06-20 04:24:00,
2013-06-20 00:25:00,58.8,32.6,29.26,ESE,112,2.0,3.4,37,0.00,,,0.00,VWS V14.01,2013-06-20 04:25:00,
2013-06-20 00:26:00,59.2,33.0,29.26,East,90,1.1,2.5,37,0.00,,,0.00,VWS V14.01,2013-06-20 04:26:00,
2013-06-20 00:28:00,59.0,32.8,29.26,East,90,1.6,3.1,37,0.00,,,0.00,VWS V14.01,2013-06-20 04:28:00,
2013-06-20 00:29:00,59.0,32.8,29.26,ESE,112,0.0,4.9,37,0.00,,,0.00,VWS V14.01,2013-06-20 04:29:00,
2013-06-20 00:30:00,59.0,32.8,29.26,SSE,158,3.8,4.9,37,0.00,,,0.00,VWS V14.01,2013-06-20 04:30:00,
2013-06-20 00:31:00,58.8,32.6,29.26,East,90,2.7,2.7,37,0.00,,,0.00,VWS V14.01,2013-06-20 04:31:00,
2013-06-20 00:32:00,59.0,32.8,29.26,ESE,112,1.1,3.8,37,0.00,,,0.00,VWS V14.01,2013-06-20 04:32:00,
2013-06-20 00:33:00,59.2,33.0,29.26,ESE,112,2.7,4.3,37,0.00,,,0.00,VWS V14.01,2013-06-20 04:33:00,
2013-06-20 00:34:00,59.2,33.0,29.26,SSE,158,2.7,3.6,37,0.00,,,0.00,VWS V14.01,2013-06-20 04:34:00,
2013-06-20 00:35:00,59.0,32.8,29.26,ESE,112,2.5,2.7,37,0.00,,,0.00,VWS V14.01,2013-06-20 04:35:00,
2013-06-20 00:36:00,59.0,32.8,29.26,SE,135,2.7,3.8,37,0.00,,,0.00,VWS V14.01,2013-06-20 04:36:00,
2013-06-20 00:38:00,59.0,32.8,29.26,SE,135,4.0,4.0,37,0.00,,,0.00,VWS V14.01,2013-06-20 04:38:00,
2013-06-20 00:39:00,59.0,32.8,29.26,ESE,112,2.9,4.0,37,0.00,,,0.00,VWS V14.01,2013-06-20 04:39:00,
2013-06-20 00:40:00,58.8,33.3,29.26,ESE,112,0.9,2.9,38,0.00,,,0.00,VWS V14.01,2013-06-20 04:40:00,
2013-06-20 00:41:00,59.0,32.8,29.26,SSE,158,2.9,2.9,37,0.00,,,0.00,VWS V14.01,2013-06-20 04:41:00,
2013-06-20 00:42:00,58.8,33.3,29.26,ESE,112,2.5,2.7,38,0.00,,,0.00,VWS V14.01,2013-06-20 04:42:00,
2013-06-20 00:43:00,58.8,33.9,29.26,South,180,2.9,4.7,39,0.00,,,0.00,VWS V14.01,2013-06-20 04:43:00,
2013-06-20 00:44:00,58.8,33.9,29.26,SE,135,3.4,3.6,39,0.00,,,0.00,VWS V14.01,2013-06-20 04:44:00,
2013-06-20 00:45:00,58.8,33.9,29.26,ESE,112,4.9,6.3,39,0.00,,,0.00,VWS V14.01,2013-06-20 04:45:00,
2013-06-20 00:46:00,58.8,33.3,29.26,SSE,158,1.3,1.3,38,0.00,,,0.00,VWS V14.01,2013-06-20 04:46:00,
2013-06-20 00:47:00,58.8,33.9,29.26,ESE,112,3.4,4.9,39,0.00,,,0.00,VWS V14.01,2013-06-20 04:47:00,
2013-06-20 00:49:00,58.8,33.9,29.26,South,180,3.6,3.6,39,0.00,,,0.00,VWS V14.01,2013-06-20 04:49:00,
2013-06-20 00:50:00,58.8,33.9,29.26,SE,135,1.3,3.6,39,0.00,,,0.00,VWS V14.01,2013-06-20 04:50:00,
2013-06-20 00:51:00,58.8,33.9,29.26,ESE,112,4.9,4.9,39,0.00,,,0.00,VWS V14.01,2013-06-20 04:51:00,
2013-06-20 00:52:00,58.8,33.9,29.26,East,90,2.5,3.8,39,0.00,,,0.00,VWS V14.01,2013-06-20 04:52:00,
2013-06-20 00:53:00,58.8,33.9,29.26,ESE,112,3.8,3.8,39,0.00,,,0.00,VWS V14.01,2013-06-20 04:53:00,
2013-06-20 00:54:00,58.8,33.9,29.26,ESE,112,4.0,4.5,39,0.00,,,0.00,VWS V14.01,2013-06-20 04:54:00,
2013-06-20 00:55:00,58.8,33.9,29.26,ESE,112,4.0,4.0,39,0.00,,,0.00,VWS V14.01,2013-06-20 04:55:00,
2013-06-20 00:56:00,58.8,33.9,29.26,ENE,68,4.0,4.0,39,0.00,,,0.00,VWS V14.01,2013-06-20 04:56:00,
2013-06-20 00:57:00,58.8,33.9,29.26,SE,135,3.8,4.9,39,0.00,,,0.00,VWS V14.01,2013-06-20 04:57:00,
2013-06-20 00:58:00,58.8,33.9,29.26,SE,135,1.6,3.8,39,0.00,,,0.00,VWS V14.01,2013-06-20 04:58:00,
2013-06-20 00:59:00,58.8,33.9,29.26,SE,135,1.1,2.0,39,0.00,,,0.00,VWS V14.01,2013-06-20 04:59:00,
2013-06-20 01:00:00,58.8,33.9,29.26,ENE,68,4.0,4.0,39,0.00,,,0.00,VWS V14.01,2013-06-20 05:00:00,
2013-06-20 01:01:00,58.8,33.9,29.26,SE,135,0.0,4.0,39,0.00,,,0.00,VWS V14.01,2013-06-20 05:01:00,
2013-06-20 01:02:00,58.8,33.9,29.26,SE,135,2.0,4.3,39,0.00,,,0.00,VWS V14.01,2013-06-20 05:02:00,
2013-06-20 01:03:00,58.8,33.9,29.26,SSE,158,2.7,2.7,39,0.00,,,0.00,VWS V14.01,2013-06-20 05:03:00,
2013-06-20 01:04:00,58.8,33.9,29.26,SE,135,2.5,2.7,39,0.00,,,0.00,VWS V14.01,2013-06-20 05:04:00,
2013-06-20 01:05:00,58.8,33.9,29.26,SSE,158,1.1,3.6,39,0.00,,,0.00,VWS V14.01,2013-06-20 05:05:00,
2013-06-20 01:06:00,58.8,33.9,29.26,SSE,158,4.3,4.3,39,0.00,,,0.00,VWS V14.01,2013-06-20 05:06:00,
2013-06-20 01:07:00,58.8,33.9,29.26,South,180,1.3,3.8,39,0.00,,,0.00,VWS V14.01,2013-06-20 05:07:00,
2013-06-20 01:08:00,58.8,33.9,29.26,SE,135,3.6,3.6,39,0.00,,,0.00,VWS V14.01,2013-06-20 05:08:00,
2013-06-20 01:09:00,58.8,33.9,29.26,SSE,158,2.7,3.6,39,0.00,,,0.00,VWS V14.01,2013-06-20 05:09:00,
2013-06-20 01:10:00,58.8,33.9,29.26,ESE,112,2.2,4.7,39,0.00,,,0.00,VWS V14.01,2013-06-20 05:10:00,
2013-06-20 01:11:00,58.8,33.9,29.26,SSW,202,0.0,1.6,39,0.00,,,0.00,VWS V14.01,2013-06-20 05:11:00,
2013-06-20 01:12:00,58.8,34.6,29.26,ENE,68,2.9,3.6,40,0.00,,,0.00,VWS V14.01,2013-06-20 05:12:00,
2013-06-20 01:13:00,58.8,34.6,29.26,ESE,112,4.0,4.0,40,0.00,,,0.00,VWS V14.01,2013-06-20 05:13:00,
2013-06-20 01:14:00,58.8,34.6,29.26,ESE,112,1.6,4.9,40,0.00,,,0.00,VWS V14.01,2013-06-20 05:14:00,
2013-06-20 01:15:00,58.8,34.6,29.26,South,180,3.1,3.4,40,0.00,,,0.00,VWS V14.01,2013-06-20 05:15:00,
2013-06-20 01:16:00,58.8,33.9,29.26,ESE,112,4.9,4.9,39,0.00,,,0.00,VWS V14.01,2013-06-20 05:16:00,
2013-06-20 01:17:00,58.8,34.6,29.26,SSE,158,3.4,3.8,40,0.00,,,0.00,VWS V14.01,2013-06-20 05:17:00,
2013-06-20 01:18:00,58.8,34.6,29.26,ESE,112,2.0,3.4,40,0.00,,,0.00,VWS V14.01,2013-06-20 05:18:00,
2013-06-20 01:19:00,58.8,34.6,29.26,SE,135,2.5,2.5,40,0.00,,,0.00,VWS V14.01,2013-06-20 05:19:00,
2013-06-20 01:20:00,58.8,34.6,29.26,SSE,158,3.1,3.8,40,0.00,,,0.00,VWS V14.01,2013-06-20 05:20:00,
2013-06-20 01:21:00,58.8,34.6,29.26,SE,135,2.9,3.1,40,0.00,,,0.00,VWS V14.01,2013-06-20 05:21:00,
2013-06-20 01:22:00,58.8,34.6,29.26,SSW,202,0.0,2.5,40,0.00,,,0.00,VWS V14.01,2013-06-20 05:22:00,
2013-06-20 01:23:00,59.0,34.1,29.26,SSE,158,0.9,1.6,39,0.00,,,0.00,VWS V14.01,2013-06-20 05:23:00,
2013-06-20 01:24:00,59.0,34.1,29.26,SE,135,2.0,2.0,39,0.00,,,0.00,VWS V14.01,2013-06-20 05:24:00,
2013-06-20 01:25:00,59.0,34.1,29.26,South,180,0.9,2.0,39,0.00,,,0.00,VWS V14.01,2013-06-20 05:25:00,
2013-06-20 01:26:00,58.8,34.6,29.26,NE,45,2.0,3.6,40,0.00,,,0.00,VWS V14.01,2013-06-20 05:26:00,
2013-06-20 01:27:00,59.0,34.1,29.26,SE,135,3.1,3.4,39,0.00,,,0.00,VWS V14.01,2013-06-20 05:27:00,
2013-06-20 01:28:00,59.0,34.1,29.26,SE,135,2.5,3.1,39,0.00,,,0.00,VWS V14.01,2013-06-20 05:28:00,
2013-06-20 01:29:00,59.0,34.1,29.26,SSE,158,1.6,2.5,39,0.00,,,0.00,VWS V14.01,2013-06-20 05:29:00,
2013-06-20 01:30:00,59.0,34.1,29.26,SSE,158,1.6,3.1,39,0.00,,,0.00,VWS V14.01,2013-06-20 05:30:00,
2013-06-20 01:31:00,59.0,34.1,29.26,East,90,4.7,4.7,39,0.00,,,0.00,VWS V14.01,2013-06-20 05:31:00,
2013-06-20 01:32:00,59.0,34.1,29.26,East,90,2.9,3.8,39,0.00,,,0.00,VWS V14.01,2013-06-20 05:32:00,
2013-06-20 01:33:00,59.2,34.3,29.26,South,180,2.9,4.3,39,0.00,,,0.00,VWS V14.01,2013-06-20 05:33:00,
2013-06-20 01:34:00,59.4,34.4,29.26,South,180,0.0,3.6,39,0.00,,,0.00,VWS V14.01,2013-06-20 05:34:00,
2013-06-20 01:35:00,59.2,33.6,29.26,SSE,158,3.8,3.8,38,0.00,,,0.00,VWS V14.01,2013-06-20 05:35:00,
2013-06-20 01:36:00,59.0,34.1,29.26,SE,135,3.8,3.8,39,0.00,,,0.00,VWS V14.01,2013-06-20 05:36:00,
2013-06-20 01:37:00,59.2,33.6,29.26,SE,135,1.6,3.6,38,0.00,,,0.00,VWS V14.01,2013-06-20 05:37:00,
2013-06-20 01:38:00,59.4,33.8,29.26,SE,135,1.1,4.3,38,0.00,,,0.00,VWS V14.01,2013-06-20 05:38:00,
2013-06-20 01:39:00,59.4,33.8,29.26,ENE,68,4.9,4.9,38,0.00,,,0.00,VWS V14.01,2013-06-20 05:39:00,
2013-06-20 01:40:00,59.4,33.8,29.26,SE,135,4.3,4.9,38,0.00,,,0.00,VWS V14.01,2013-06-20 05:40:00,
2013-06-20 01:41:00,59.2,33.6,29.26,SSE,158,3.6,3.8,38,0.00,,,0.00,VWS V14.01,2013-06-20 05:41:00,
2013-06-20 01:42:00,59.5,33.9,29.26,SE,135,3.4,3.4,38,0.00,,,0.00,VWS V14.01,2013-06-20 05:42:00,
2013-06-20 01:43:00,59.5,33.9,29.26,SE,135,1.3,3.8,38,0.00,,,0.00,VWS V14.01,2013-06-20 05:43:00,
2013-06-20 01:44:00,59.7,34.1,29.26,SE,135,3.4,4.9,38,0.00,,,0.00,VWS V14.01,2013-06-20 05:44:00,
2013-06-20 01:45:00,59.7,34.1,29.26,NE,45,3.4,3.4,38,0.00,,,0.00,VWS V14.01,2013-06-20 05:45:00,
2013-06-20 01:46:00,59.5,33.9,29.26,ESE,112,2.7,4.3,38,0.00,,,0.00,VWS V14.01,2013-06-20 05:46:00,
2013-06-20 01:47:00,59.7,34.1,29.26,SSE,158,2.0,3.1,38,0.00,,,0.00,VWS V14.01,2013-06-20 05:47:00,
2013-06-20 01:48:00,59.7,34.1,29.26,South,180,2.9,4.9,38,0.00,,,0.00,VWS V14.01,2013-06-20 05:48:00,
2013-06-20 01:49:00,59.7,34.1,29.26,SSE,158,1.6,3.6,38,0.00,,,0.00,VWS V14.01,2013-06-20 05:49:00,
2013-06-20 01:50:00,59.7,34.1,29.26,SSE,158,1.6,1.6,38,0.00,,,0.00,VWS V14.01,2013-06-20 05:50:00,
2013-06-20 01:51:00,59.7,34.1,29.26,SSE,158,0.9,3.4,38,0.00,,,0.00,VWS V14.01,2013-06-20 05:51:00,
2013-06-20 01:52:00,59.9,34.2,29.26,SSE,158,2.9,5.6,38,0.00,,,0.00,VWS V14.01,2013-06-20 05:52:00,
2013-06-20 01:53:00,59.9,34.2,29.26,SSE,158,3.8,3.8,38,0.00,,,0.00,VWS V14.01,2013-06-20 05:53:00,
2013-06-20 01:54:00,59.9,34.2,29.26,SSE,158,2.7,3.8,38,0.00,,,0.00,VWS V14.01,2013-06-20 05:54:00,
2013-06-20 01:55:00,59.9,34.2,29.26,SSW,202,2.5,3.4,38,0.00,,,0.00,VWS V14.01,2013-06-20 05:55:00,
2013-06-20 01:56:00,59.9,34.2,29.26,SSE,158,5.8,5.8,38,0.00,,,0.00,VWS V14.01,2013-06-20 05:56:00,
2013-06-20 01:57:00,59.9,34.2,29.26,SE,135,3.6,3.8,38,0.00,,,0.00,VWS V14.01,2013-06-20 05:57:00,
2013-06-20 01:58:00,60.1,34.4,29.26,SSE,158,1.3,3.6,38,0.00,,,0.00,VWS V14.01,2013-06-20 05:58:00,
2013-06-20 01:59:00,60.1,34.4,29.26,SSW,202,4.3,6.0,38,0.00,,,0.00,VWS V14.01,2013-06-20 05:59:00,
2013-06-20 02:00:00,60.1,34.4,29.26,East,90,2.5,4.3,38,0.00,,,0.00,VWS V14.01,2013-06-20 06:00:00,
2013-06-20 02:01:00,59.9,34.2,29.26,WSW,248,1.3,5.4,38,0.00,,,0.00,VWS V14.01,2013-06-20 06:01:00,
2013-06-20 02:02:00,60.1,34.4,29.26,SE,135,4.9,5.6,38,0.00,,,0.00,VWS V14.01,2013-06-20 06:02:00,
2013-06-20 02:03:00,60.1,34.4,29.26,SW,225,0.9,4.9,38,0.00,,,0.00,VWS V14.01,2013-06-20 06:03:00,
2013-06-20 02:04:00,60.1,34.4,29.26,SW,225,2.9,3.4,38,0.00,,,0.00,VWS V14.01,2013-06-20 06:04:00,
2013-06-20 02:05:00,60.1,34.4,29.26,South,180,2.0,5.4,38,0.00,,,0.00,VWS V14.01,2013-06-20 06:05:00,
2013-06-20 02:06:00,60.1,34.4,29.26,SSE,158,4.3,4.3,38,0.00,,,0.00,VWS V14.01,2013-06-20 06:06:00,
2013-06-20 02:07:00,60.1,34.4,29.26,SSE,158,0.9,4.3,38,0.00,,,0.00,VWS V14.01,2013-06-20 06:07:00,
2013-06-20 02:09:00,60.1,34.4,29.26,SSE,158,2.5,4.3,38,0.00,,,0.00,VWS V14.01,2013-06-20 06:09:00,
2013-06-20 02:10:00,59.9,34.2,29.26,SSE,158,4.9,4.9,38,0.00,,,0.00,VWS V14.01,2013-06-20 06:10:00,
2013-06-20 02:11:00,60.1,34.4,29.26,ESE,112,4.3,4.3,38,0.00,,,0.00,VWS V14.01,2013-06-20 06:11:00,
2013-06-20 02:12:00,59.9,34.2,29.26,South,180,1.6,2.7,38,0.00,,,0.00,VWS V14.01,2013-06-20 06:12:00,
2013-06-20 02:13:00,59.7,34.1,29.26,SE,135,1.1,3.4,38,0.00,,,0.00,VWS V14.01,2013-06-20 06:13:00,
2013-06-20 02:15:00,59.7,34.1,29.26,South,180,3.8,3.8,38,0.00,,,0.00,VWS V14.01,2013-06-20 06:15:00,
2013-06-20 02:16:00,59.9,34.2,29.26,South,180,1.1,4.9,38,0.00,,,0.00,VWS V14.01,2013-06-20 06:16:00,
2013-06-20 02:17:00,59.7,34.1,29.26,South,180,6.0,6.0,38,0.00,,,0.00,VWS V14.01,2013-06-20 06:17:00,
2013-06-20 02:18:00,59.7,34.7,29.26,SSW,202,3.4,6.0,39,0.00,,,0.00,VWS V14.01,2013-06-20 06:18:00,
2013-06-20 02:19:00,59.7,34.7,29.26,SSW,202,3.6,3.6,39,0.00,,,0.00,VWS V14.01,2013-06-20 06:19:00,
2013-06-20 02:20:00,59.7,34.7,29.26,SSE,158,3.4,3.6,39,0.00,,,0.00,VWS V14.01,2013-06-20 06:20:00,
2013-06-20 02:21:00,59.7,34.1,29.26,NW,315,0.0,4.9,38,0.00,,,0.00,VWS V14.01,2013-06-20 06:21:00,
2013-06-20 02:22:00,59.7,34.7,29.26,East,90,2.7,4.3,39,0.00,,,0.00,VWS V14.01,2013-06-20 06:22:00,
2013-06-20 02:23:00,59.7,34.7,29.26,East,90,1.3,2.7,39,0.00,,,0.00,VWS V14.01,2013-06-20 06:23:00,
2013-06-20 02:25:00,59.7,34.7,29.26,SSE,158,4.3,4.3,39,0.00,,,0.00,VWS V14.01,2013-06-20 06:25:00,
2013-06-20 02:26:00,59.7,34.7,29.26,South,180,3.8,3.8,39,0.00,,,0.00,VWS V14.01,2013-06-20 06:26:00,
2013-06-20 02:27:00,59.7,34.7,29.26,SSW,202,0.9,1.1,39,0.00,,,0.00,VWS V14.01,2013-06-20 06:27:00,
2013-06-20 02:28:00,59.7,34.7,29.26,SE,135,1.6,2.2,39,0.00,,,0.00,VWS V14.01,2013-06-20 06:28:00,
2013-06-20 02:29:00,59.7,34.7,29.26,SSE,158,1.3,1.6,39,0.00,,,0.00,VWS V14.01,2013-06-20 06:29:00,
2013-06-20 02:30:00,59.5,34.6,29.26,SSE,158,1.3,4.7,39,0.00,,,0.00,VWS V14.01,2013-06-20 06:30:00,
2013-06-20 02:31:00,59.7,34.7,29.26,SE,135,0.0,0.0,39,0.00,,,0.00,VWS V14.01,2013-06-20 06:31:00,
2013-06-20 02:32:00,59.5,34.6,29.26,SSW,202,2.7,3.8,39,0.00,,,0.00,VWS V14.01,2013-06-20 06:32:00,
2013-06-20 02:33:00,59.5,34.6,29.26,SE,135,1.3,3.6,39,0.00,,,0.00,VWS V14.01,2013-06-20 06:33:00,
2013-06-20 02:34:00,59.5,35.2,29.26,SW,225,4.9,4.9,40,0.00,,,0.00,VWS V14.01,2013-06-20 06:34:00,
2013-06-20 02:35:00,59.5,35.2,29.26,SSE,158,2.5,5.8,40,0.00,,,0.00,VWS V14.01,2013-06-20 06:35:00,
2013-06-20 02:36:00,59.5,34.6,29.26,SSE,158,2.9,3.8,39,0.00,,,0.00,VWS V14.01,2013-06-20 06:36:00,
2013-06-20 02:37:00,59.5,35.2,29.26,SSW,202,2.9,6.3,40,0.00,,,0.00,VWS V14.01,2013-06-20 06:37:00,
2013-06-20 02:38:00,59.5,35.2,29.26,ESE,112,0.9,2.9,40,0.00,,,0.00,VWS V14.01,2013-06-20 06:38:00,
2013-06-20 02:39:00,59.5,35.2,29.26,SSW,202,3.6,3.6,40,0.00,,,0.00,VWS V14.01,2013-06-20 06:39:00,
2013-06-20 02:40:00,59.5,35.2,29.26,SSE,158,3.8,3.8,40,0.00,,,0.00,VWS V14.01,2013-06-20 06:40:00,
2013-06-20 02:41:00,59.5,35.2,29.26,SSW,202,4.3,4.3,40,0.00,,,0.00,VWS V14.01,2013-06-20 06:41:00,
2013-06-20 02:43:00,59.5,35.2,29.26,SSW,202,1.6,3.6,40,0.00,,,0.00,VWS V14.01,2013-06-20 06:43:00,
2013-06-20 02:45:00,59.4,35.1,29.26,South,180,4.3,4.3,40,0.00,,,0.00,VWS V14.01,2013-06-20 06:45:00,
2013-06-20 02:46:00,59.5,35.2,29.26,SE,135,5.6,5.6,40,0.00,,,0.00,VWS V14.01,2013-06-20 06:46:00,
2013-06-20 02:47:00,59.4,35.1,29.26,South,180,5.8,5.8,40,0.00,,,0.00,VWS V14.01,2013-06-20 06:47:00,
2013-06-20 02:48:00,59.4,35.1,29.26,SSW,202,4.9,5.8,40,0.00,,,0.00,VWS V14.01,2013-06-20 06:48:00,
2013-06-20 02:49:00,59.4,35.1,29.26,SE,135,2.9,4.9,40,0.00,,,0.00,VWS V14.01,2013-06-20 06:49:00,
2013-06-20 02:50:00,59.4,35.1,29.26,SSE,158,3.8,4.3,40,0.00,,,0.00,VWS V14.01,2013-06-20 06:50:00,
2013-06-20 02:51:00,59.4,35.1,29.26,SSW,202,2.7,3.1,40,0.00,,,0.00,VWS V14.01,2013-06-20 06:51:00,
2013-06-20 02:52:00,59.2,34.9,29.26,SE,135,1.6,4.0,40,0.00,,,0.00,VWS V14.01,2013-06-20 06:52:00,
2013-06-20 02:54:00,59.2,34.9,29.26,SSE,158,2.5,4.3,40,0.00,,,0.00,VWS V14.01,2013-06-20 06:54:00,
2013-06-20 02:55:00,59.2,35.5,29.26,South,180,2.5,3.1,41,0.00,,,0.00,VWS V14.01,2013-06-20 06:55:00,
2013-06-20 02:56:00,59.2,35.5,29.26,SE,135,3.6,3.6,41,0.00,,,0.00,VWS V14.01,2013-06-20 06:56:00,
2013-06-20 02:57:00,59.4,35.1,29.26,SSE,158,2.7,2.7,40,0.00,,,0.00,VWS V14.01,2013-06-20 06:57:00,
2013-06-20 02:58:00,59.2,35.5,29.26,South,180,3.6,7.2,41,0.00,,,0.00,VWS V14.01,2013-06-20 06:58:00,
2013-06-20 02:59:00,59.2,35.5,29.26,ENE,68,1.1,3.6,41,0.00,,,0.00,VWS V14.01,2013-06-20 06:59:00,
2013-06-20 03:00:00,59.0,35.3,29.26,ENE,68,0.0,1.1,41,0.00,,,0.00,VWS V14.01,2013-06-20 07:00:00,
2013-06-20 03:01:00,59.0,35.3,29.29,South,180,2.0,3.8,41,0.00,,,0.00,VWS V14.01,2013-06-20 07:01:00,
2013-06-20 03:02:00,59.2,35.5,29.26,WSW,248,3.8,3.8,41,0.00,,,0.00,VWS V14.01,2013-06-20 07:02:00,
2013-06-20 03:03:00,59.0,35.3,29.29,SE,135,2.9,3.6,41,0.00,,,0.00,VWS V14.01,2013-06-20 07:03:00,
2013-06-20 03:04:00,58.8,35.8,29.29,SW,225,4.0,4.0,42,0.00,,,0.00,VWS V14.01,2013-06-20 07:04:00,
2013-06-20 03:05:00,58.8,35.8,29.29,SSE,158,1.6,4.0,42,0.00,,,0.00,VWS V14.01,2013-06-20 07:05:00,
2013-06-20 03:06:00,58.8,35.8,29.29,South,180,3.4,3.4,42,0.00,,,0.00,VWS V14.01,2013-06-20 07:06:00,
2013-06-20 03:07:00,59.0,35.3,29.29,SSE,158,1.3,2.0,41,0.00,,,0.00,VWS V14.01,2013-06-20 07:07:00,
2013-06-20 03:08:00,58.8,35.8,29.29,NW,315,0.0,4.3,42,0.00,,,0.00,VWS V14.01,2013-06-20 07:08:00,
2013-06-20 03:09:00,58.6,35.6,29.29,SSE,158,2.5,2.5,42,0.00,,,0.00,VWS V14.01,2013-06-20 07:09:00,
2013-06-20 03:10:00,58.5,35.5,29.29,WSW,248,1.3,2.5,42,0.00,,,0.00,VWS V14.01,2013-06-20 07:10:00,
2013-06-20 03:11:00,58.5,35.5,29.29,SW,225,2.2,2.2,42,0.00,,,0.00,VWS V14.01,2013-06-20 07:11:00,
2013-06-20 03:12:00,58.8,35.8,29.29,South,180,2.0,3.4,42,0.00,,,0.00,VWS V14.01,2013-06-20 07:12:00,
2013-06-20 03:13:00,58.5,35.5,29.29,South,180,0.0,3.4,42,0.00,,,0.00,VWS V14.01,2013-06-20 07:13:00,
2013-06-20 03:14:00,58.5,35.5,29.29,South,180,0.0,0.0,42,0.00,,,0.00,VWS V14.01,2013-06-20 07:14:00,
2013-06-20 03:15:00,58.3,35.3,29.29,South,180,2.7,2.7,42,0.00,,,0.00,VWS V14.01,2013-06-20 07:15:00,
2013-06-20 03:16:00,58.3,35.3,29.26,South,180,2.7,2.7,42,0.00,,,0.00,VWS V14.01,2013-06-20 07:16:00,
2013-06-20 03:17:00,58.5,35.5,29.29,WSW,248,0.0,2.2,42,0.00,,,0.00,VWS V14.01,2013-06-20 07:17:00,
2013-06-20 03:18:00,58.3,35.9,29.26,SSW,202,2.5,3.1,43,0.00,,,0.00,VWS V14.01,2013-06-20 07:18:00,
2013-06-20 03:19:00,58.1,35.7,29.26,South,180,0.0,2.5,43,0.00,,,0.00,VWS V14.01,2013-06-20 07:19:00,
2013-06-20 03:20:00,58.1,36.3,29.26,SSW,202,4.3,4.3,44,0.00,,,0.00,VWS V14.01,2013-06-20 07:20:00,
2013-06-20 03:21:00,58.1,36.3,29.26,SSW,202,1.6,4.3,44,0.00,,,0.00,VWS V14.01,2013-06-20 07:21:00,
2013-06-20 03:22:00,58.3,35.9,29.26,WNW,292,0.0,2.7,43,0.00,,,0.00,VWS V14.01,2013-06-20 07:22:00,
2013-06-20 03:23:00,58.1,36.3,29.26,SSW,202,0.9,2.9,44,0.00,,,0.00,VWS V14.01,2013-06-20 07:23:00,
2013-06-20 03:24:00,58.1,36.3,29.26,SW,225,1.6,2.5,44,0.00,,,0.00,VWS V14.01,2013-06-20 07:24:00,
2013-06-20 03:26:00,58.1,36.3,29.26,SW,225,3.1,3.4,44,0.00,,,0.00,VWS V14.01,2013-06-20 07:26:00,
2013-06-20 03:27:00,58.1,36.3,29.26,SSE,158,2.2,3.8,44,0.00,,,0.00,VWS V14.01,2013-06-20 07:27:00,
2013-06-20 03:28:00,58.1,36.3,29.26,SSW,202,0.0,0.0,44,0.00,,,0.00,VWS V14.01,2013-06-20 07:28:00,
2013-06-20 03:29:00,57.9,36.2,29.26,WSW,248,1.3,1.3,44,0.00,,,0.00,VWS V14.01,2013-06-20 07:29:00,
2013-06-20 03:31:00,57.9,36.2,29.26,South,180,2.7,2.7,44,0.00,,,0.00,VWS V14.01,2013-06-20 07:31:00,
2013-06-20 03:32:00,58.1,36.3,29.26,SW,225,2.9,3.1,44,0.00,,,0.00,VWS V14.01,2013-06-20 07:32:00,
2013-06-20 03:33:00,57.9,36.2,29.26,SSE,158,0.0,2.7,44,0.00,,,0.00,VWS V14.01,2013-06-20 07:33:00,
2013-06-20 03:34:00,57.9,36.2,29.26,South,180,2.5,2.7,44,0.00,,,0.00,VWS V14.01,2013-06-20 07:34:00,
2013-06-20 03:35:00,57.9,36.2,29.26,South,180,0.0,2.5,44,0.00,,,0.00,VWS V14.01,2013-06-20 07:35:00,
2013-06-20 03:36:00,57.9,36.7,29.26,North,0,0.0,2.9,45,0.00,,,0.00,VWS V14.01,2013-06-20 07:36:00,
2013-06-20 03:37:00,57.9,36.2,29.26,SE,135,0.0,2.7,44,0.00,,,0.00,VWS V14.01,2013-06-20 07:37:00,
2013-06-20 03:38:00,57.7,36.6,29.26,SSE,158,3.1,3.1,45,0.00,,,0.00,VWS V14.01,2013-06-20 07:38:00,
2013-06-20 03:39:00,57.7,36.6,29.26,South,180,1.1,3.1,45,0.00,,,0.00,VWS V14.01,2013-06-20 07:39:00,
2013-06-20 03:40:00,57.7,36.6,29.26,South,180,2.5,3.1,45,0.00,,,0.00,VWS V14.01,2013-06-20 07:40:00,
2013-06-20 03:41:00,57.9,36.7,29.26,SSW,202,4.7,4.7,45,0.00,,,0.00,VWS V14.01,2013-06-20 07:41:00,
2013-06-20 03:42:00,57.9,36.7,29.26,WNW,292,0.0,0.0,45,0.00,,,0.00,VWS V14.01,2013-06-20 07:42:00,
2013-06-20 03:43:00,57.7,36.6,29.26,SSE,158,1.3,3.1,45,0.00,,,0.00,VWS V14.01,2013-06-20 07:43:00,
2013-06-20 03:44:00,57.7,36.6,29.26,SE,135,2.7,4.0,45,0.00,,,0.00,VWS V14.01,2013-06-20 07:44:00,
2013-06-20 03:45:00,57.7,36.6,29.26,SSE,158,4.9,4.9,45,0.00,,,0.00,VWS V14.01,2013-06-20 07:45:00,
2013-06-20 03:46:00,57.9,36.7,29.23,South,180,1.6,4.9,45,0.00,,,0.00,VWS V14.01,2013-06-20 07:46:00,
2013-06-20 03:47:00,57.9,36.7,29.26,WSW,248,2.0,4.7,45,0.00,,,0.00,VWS V14.01,2013-06-20 07:47:00,
2013-06-20 03:48:00,57.9,36.7,29.23,SSW,202,2.9,4.3,45,0.00,,,0.00,VWS V14.01,2013-06-20 07:48:00,
2013-06-20 03:49:00,57.9,36.7,29.23,WSW,248,1.6,5.6,45,0.00,,,0.00,VWS V14.01,2013-06-20 07:49:00,
2013-06-20 03:50:00,57.9,36.7,29.23,SW,225,3.6,5.6,45,0.00,,,0.00,VWS V14.01,2013-06-20 07:50:00,
2013-06-20 03:51:00,57.9,36.7,29.23,SW,225,2.9,3.6,45,0.00,,,0.00,VWS V14.01,2013-06-20 07:51:00,
2013-06-20 03:52:00,57.9,36.7,29.23,South,180,1.6,1.6,45,0.00,,,0.00,VWS V14.01,2013-06-20 07:52:00,
2013-06-20 03:53:00,57.9,36.7,29.23,South,180,1.1,3.6,45,0.00,,,0.00,VWS V14.01,2013-06-20 07:53:00,
2013-06-20 03:54:00,57.9,36.7,29.23,South,180,2.5,2.7,45,0.00,,,0.00,VWS V14.01,2013-06-20 07:54:00,
2013-06-20 03:55:00,57.9,36.7,29.23,South,180,3.1,3.1,45,0.00,,,0.00,VWS V14.01,2013-06-20 07:55:00,
2013-06-20 03:56:00,57.7,36.6,29.23,SSW,202,2.7,4.5,45,0.00,,,0.00,VWS V14.01,2013-06-20 07:56:00,
2013-06-20 03:57:00,57.9,36.7,29.23,SSW,202,4.3,4.3,45,0.00,,,0.00,VWS V14.01,2013-06-20 07:57:00,
2013-06-20 03:58:00,57.7,37.1,29.23,South,180,5.6,6.0,46,0.00,,,0.00,VWS V14.01,2013-06-20 07:58:00,
2013-06-20 03:59:00,57.7,37.1,29.23,SSW,202,1.6,5.6,46,0.00,,,0.00,VWS V14.01,2013-06-20 07:59:00,
2013-06-20 04:00:00,57.7,37.1,29.23,SE,135,1.1,4.7,46,0.00,,,0.00,VWS V14.01,2013-06-20 08:00:00,
2013-06-20 04:01:00,57.7,36.6,29.26,SW,225,2.7,2.7,45,0.00,,,0.00,VWS V14.01,2013-06-20 08:01:00,
2013-06-20 04:02:00,57.7,36.6,29.23,SSE,158,0.0,4.3,45,0.00,,,0.00,VWS V14.01,2013-06-20 08:02:00,
2013-06-20 04:03:00,57.7,36.6,29.26,SW,225,2.5,2.7,45,0.00,,,0.00,VWS V14.01,2013-06-20 08:03:00,
2013-06-20 04:04:00,57.6,36.4,29.26,SSW,202,2.5,3.4,45,0.00,,,0.00,VWS V14.01,2013-06-20 08:04:00,
2013-06-20 04:05:00,57.6,36.4,29.26,SE,135,2.0,2.9,45,0.00,,,0.00,VWS V14.01,2013-06-20 08:05:00,
2013-06-20 04:06:00,57.6,36.4,29.26,South,180,0.0,2.7,45,0.00,,,0.00,VWS V14.01,2013-06-20 08:06:00,
2013-06-20 04:07:00,57.7,37.1,29.26,North,0,4.3,4.3,46,0.00,,,0.00,VWS V14.01,2013-06-20 08:07:00,
2013-06-20 04:08:00,57.6,36.4,29.26,ESE,112,0.9,4.9,45,0.00,,,0.00,VWS V14.01,2013-06-20 08:08:00,
2013-06-20 04:09:00,57.6,36.4,29.26,South,180,3.6,3.6,45,0.00,,,0.00,VWS V14.01,2013-06-20 08:09:00,
2013-06-20 04:10:00,57.6,37.0,29.26,ESE,112,2.0,3.6,46,0.00,,,0.00,VWS V14.01,2013-06-20 08:10:00,
2013-06-20 04:11:00,57.6,37.0,29.26,South,180,3.1,3.1,46,0.00,,,0.00,VWS V14.01,2013-06-20 08:11:00,
2013-06-20 04:12:00,57.6,36.4,29.26,SSW,202,4.3,4.3,45,0.00,,,0.00,VWS V14.01,2013-06-20 08:12:00,
2013-06-20 04:13:00,57.6,37.0,29.26,SW,225,1.1,3.6,46,0.00,,,0.00,VWS V14.01,2013-06-20 08:13:00,
2013-06-20 04:14:00,57.6,36.4,29.26,SSE,158,1.6,2.7,45,0.00,,,0.00,VWS V14.01,2013-06-20 08:14:00,
2013-06-20 04:15:00,57.6,36.4,29.26,SE,135,3.1,3.6,45,0.00,,,0.00,VWS V14.01,2013-06-20 08:15:00,
2013-06-20 04:16:00,57.6,36.4,29.26,SSW,202,2.0,3.1,45,0.00,,,0.00,VWS V14.01,2013-06-20 08:16:00,
2013-06-20 04:17:00,57.6,37.0,29.26,SE,135,5.6,5.6,46,0.00,,,0.00,VWS V14.01,2013-06-20 08:17:00,
2013-06-20 04:18:00,57.6,37.0,29.26,SSW,202,3.6,7.2,46,0.00,,,0.00,VWS V14.01,2013-06-20 08:18:00,
2013-06-20 04:19:00,57.6,37.0,29.26,SSE,158,5.4,5.4,46,0.00,,,0.00,VWS V14.01,2013-06-20 08:19:00,
2013-06-20 04:20:00,57.6,37.0,29.26,WSW,248,4.0,5.4,46,0.00,,,0.00,VWS V14.01,2013-06-20 08:20:00,
2013-06-20 04:21:00,57.6,37.0,29.26,South,180,2.9,4.0,46,0.00,,,0.00,VWS V14.01,2013-06-20 08:21:00,
2013-06-20 04:22:00,57.6,36.4,29.26,SW,225,2.9,2.9,45,0.00,,,0.00,VWS V14.01,2013-06-20 08:22:00,
2013-06-20 04:23:00,57.6,37.0,29.26,SSW,202,4.3,4.3,46,0.00,,,0.00,VWS V14.01,2013-06-20 08:23:00,
2013-06-20 04:24:00,57.6,37.0,29.26,SSW,202,5.6,5.6,46,0.00,,,0.00,VWS V14.01,2013-06-20 08:24:00,
2013-06-20 04:25:00,57.6,37.0,29.26,WSW,248,2.7,5.6,46,0.00,,,0.00,VWS V14.01,2013-06-20 08:25:00,
2013-06-20 04:26:00,57.6,37.0,29.26,SE,135,2.0,5.6,46,0.00,,,0.00,VWS V14.01,2013-06-20 08:26:00,
2013-06-20 04:27:00,57.6,37.0,29.26,SSE,158,1.6,5.8,46,0.00,,,0.00,VWS V14.01,2013-06-20 08:27:00,
2013-06-20 04:28:00,57.6,37.0,29.26,SSW,202,2.7,3.4,46,0.00,,,0.00,VWS V14.01,2013-06-20 08:28:00,
2013-06-20 04:29:00,57.7,37.1,29.26,SSE,158,1.3,5.8,46,0.00,,,0.00,VWS V14.01,2013-06-20 08:29:00,
2013-06-20 04:30:00,57.6,37.0,29.26,SSE,158,2.9,4.3,46,0.00,,,0.00,VWS V14.01,2013-06-20 08:30:00,
2013-06-20 04:31:00,57.7,37.1,29.26,ENE,68,3.4,5.4,46,0.00,,,0.00,VWS V14.01,2013-06-20 08:31:00,
2013-06-20 04:32:00,57.6,37.0,29.26,SSE,158,5.6,5.6,46,0.00,,,0.00,VWS V14.01,2013-06-20 08:32:00,
2013-06-20 04:33:00,57.7,37.1,29.26,SSE,158,3.6,5.8,46,0.00,,,0.00,VWS V14.01,2013-06-20 08:33:00,
2013-06-20 04:34:00,57.7,37.1,29.26,SE,135,4.0,4.9,46,0.00,,,0.00,VWS V14.01,2013-06-20 08:34:00,
2013-06-20 04:35:00,57.7,37.1,29.26,SE,135,4.0,4.0,46,0.00,,,0.00,VWS V14.01,2013-06-20 08:35:00,
2013-06-20 04:36:00,57.7,37.1,29.26,SE,135,3.6,4.3,46,0.00,,,0.00,VWS V14.01,2013-06-20 08:36:00,
2013-06-20 04:37:00,57.7,37.1,29.26,SE,135,6.5,9.8,46,0.00,,,0.00,VWS V14.01,2013-06-20 08:37:00,
2013-06-20 04:38:00,57.9,37.3,29.26,SE,135,3.8,10.5,46,0.00,,,0.00,VWS V14.01,2013-06-20 08:38:00,
2013-06-20 04:39:00,57.9,37.3,29.26,SW,225,2.5,3.8,46,0.00,,,0.00,VWS V14.01,2013-06-20 08:39:00,
2013-06-20 04:40:00,57.9,37.3,29.26,SSE,158,4.0,4.0,46,0.00,,,0.00,VWS V14.01,2013-06-20 08:40:00,
2013-06-20 04:41:00,58.1,37.5,29.26,SE,135,3.4,4.0,46,0.00,,,0.00,VWS V14.01,2013-06-20 08:41:00,
2013-06-20 04:42:00,57.9,37.3,29.26,SE,135,6.0,6.0,46,0.00,,,0.00,VWS V14.01,2013-06-20 08:42:00,
2013-06-20 04:43:00,58.1,37.5,29.26,SSE,158,7.4,7.4,46,0.00,,,0.00,VWS V14.01,2013-06-20 08:43:00,
2013-06-20 04:44:00,58.1,37.5,29.26,South,180,7.4,7.4,46,0.00,,,0.00,VWS V14.01,2013-06-20 08:44:00,
2013-06-20 04:45:00,58.1,37.5,29.26,South,180,5.4,7.4,46,0.00,,,0.00,VWS V14.01,2013-06-20 08:45:00,
2013-06-20 04:46:00,58.1,37.5,29.26,SSE,158,3.4,5.4,46,0.00,,,0.00,VWS V14.01,2013-06-20 08:46:00,
2013-06-20 04:47:00,58.1,37.5,29.26,SSE,158,4.3,4.3,46,0.00,,,0.00,VWS V14.01,2013-06-20 08:47:00,
2013-06-20 04:48:00,58.1,37.5,29.26,South,180,2.7,5.8,46,0.00,,,0.00,VWS V14.01,2013-06-20 08:48:00,
2013-06-20 04:49:00,58.1,37.5,29.26,South,180,2.9,6.5,46,0.00,,,0.00,VWS V14.01,2013-06-20 08:49:00,
2013-06-20 04:50:00,58.1,37.5,29.26,SW,225,2.0,3.1,46,0.00,,,0.00,VWS V14.01,2013-06-20 08:50:00,
2013-06-20 04:51:00,58.1,37.5,29.26,ENE,68,5.6,5.6,46,0.00,,,0.00,VWS V14.01,2013-06-20 08:51:00,
2013-06-20 04:52:00,58.1,37.5,29.26,South,180,2.7,5.8,46,0.00,,,0.00,VWS V14.01,2013-06-20 08:52:00,
2013-06-20 04:53:00,58.1,36.9,29.26,SSW,202,4.3,4.3,45,0.00,,,0.00,VWS V14.01,2013-06-20 08:53:00,
2013-06-20 04:54:00,58.1,37.5,29.26,SSW,202,3.8,7.8,46,0.00,,,0.00,VWS V14.01,2013-06-20 08:54:00,
2013-06-20 04:55:00,58.1,37.5,29.26,SSW,202,5.8,5.8,46,0.00,,,0.00,VWS V14.01,2013-06-20 08:55:00,
2013-06-20 04:56:00,58.3,37.6,29.26,South,180,2.5,5.8,46,0.00,,,0.00,VWS V14.01,2013-06-20 08:56:00,
2013-06-20 04:57:00,58.1,37.5,29.26,SSW,202,0.9,5.6,46,0.00,,,0.00,VWS V14.01,2013-06-20 08:57:00,
2013-06-20 04:59:00,58.3,37.6,29.26,SSE,158,4.0,4.0,46,0.00,,,0.00,VWS V14.01,2013-06-20 08:59:00,
2013-06-20 05:00:00,58.3,37.6,29.26,WSW,248,1.1,5.8,46,0.00,,,0.00,VWS V14.01,2013-06-20 09:00:00,
2013-06-20 05:01:00,58.3,37.0,29.26,SSW,202,3.6,3.6,45,0.00,,,0.00,VWS V14.01,2013-06-20 09:01:00,
2013-06-20 05:02:00,58.3,37.6,29.26,SSW,202,4.3,8.7,46,0.00,,,0.00,VWS V14.01,2013-06-20 09:02:00,
2013-06-20 05:03:00,58.3,37.6,29.26,SSW,202,4.9,5.4,46,0.00,,,0.00,VWS V14.01,2013-06-20 09:03:00,
2013-06-20 05:04:00,58.3,37.6,29.26,SSW,202,5.6,8.1,46,0.00,,,0.00,VWS V14.01,2013-06-20 09:04:00,
2013-06-20 05:05:00,58.3,37.0,29.26,SSE,158,3.1,5.6,45,0.00,,,0.00,VWS V14.01,2013-06-20 09:05:00,
2013-06-20 05:06:00,58.5,37.2,29.26,SSW,202,4.3,5.8,45,0.00,,,0.00,VWS V14.01,2013-06-20 09:06:00,
2013-06-20 05:07:00,58.3,37.0,29.26,SW,225,2.7,3.6,45,0.00,,,0.00,VWS V14.01,2013-06-20 09:07:00,
2013-06-20 05:09:00,58.5,37.2,29.26,South,180,1.1,4.9,45,0.00,,,0.00,VWS V14.01,2013-06-20 09:09:00,
2013-06-20 05:10:00,58.5,37.2,29.26,SSE,158,5.6,5.6,45,0.00,,,0.00,VWS V14.01,2013-06-20 09:10:00,
2013-06-20 05:11:00,58.5,37.2,29.26,SSW,202,6.0,8.7,45,0.00,,,0.00,VWS V14.01,2013-06-20 09:11:00,
2013-06-20 05:12:00,58.5,37.2,29.26,South,180,3.8,5.4,45,0.00,,,0.00,VWS V14.01,2013-06-20 09:12:00,
2013-06-20 05:13:00,58.6,37.4,29.26,South,180,2.0,6.5,45,0.00,,,0.00,VWS V14.01,2013-06-20 09:13:00,
2013-06-20 05:14:00,58.6,37.4,29.26,SSW,202,4.3,4.3,45,0.00,,,0.00,VWS V14.01,2013-06-20 09:14:00,
2013-06-20 05:15:00,58.5,37.2,29.26,SSW,202,5.8,5.8,45,0.00,,,0.00,VWS V14.01,2013-06-20 09:15:00,
2013-06-20 05:16:00,58.5,37.2,29.29,SW,225,2.2,5.8,45,0.00,,,0.00,VWS V14.01,2013-06-20 09:16:00,
2013-06-20 05:17:00,58.6,37.4,29.26,SSW,202,5.4,7.4,45,0.00,,,0.00,VWS V14.01,2013-06-20 09:17:00,
2013-06-20 05:19:00,58.5,37.2,29.29,SSW,202,2.0,3.6,45,0.00,,,0.00,VWS V14.01,2013-06-20 09:19:00,
2013-06-20 05:20:00,58.5,37.8,29.29,SW,225,4.7,4.9,46,0.00,,,0.00,VWS V14.01,2013-06-20 09:20:00,
2013-06-20 05:21:00,58.5,37.8,29.29,SW,225,4.7,4.7,46,0.00,,,0.00,VWS V14.01,2013-06-20 09:21:00,
2013-06-20 05:22:00,58.5,37.2,29.29,SSW,202,4.0,6.5,45,0.00,,,0.00,VWS V14.01,2013-06-20 09:22:00,
2013-06-20 05:23:00,58.3,37.6,29.29,South,180,2.0,3.6,46,0.00,,,0.00,VWS V14.01,2013-06-20 09:23:00,
2013-06-20 05:24:00,58.3,37.6,29.29,WSW,248,1.6,4.7,46,0.00,,,0.00,VWS V14.01,2013-06-20 09:24:00,
2013-06-20 05:25:00,58.3,37.6,29.29,South,180,1.6,2.5,46,0.00,,,0.00,VWS V14.01,2013-06-20 09:25:00,
2013-06-20 05:26:00,58.1,37.5,29.29,South,180,7.6,7.6,46,0.00,,,0.00,VWS V14.01,2013-06-20 09:26:00,
2013-06-20 05:27:00,58.5,37.8,29.29,SSW,202,2.9,4.7,46,0.00,,,0.00,VWS V14.01,2013-06-20 09:27:00,
2013-06-20 05:28:00,58.1,37.5,29.29,SSE,158,2.7,6.5,46,0.00,,,0.00,VWS V14.01,2013-06-20 09:28:00,
2013-06-20 05:29:00,58.1,37.5,29.29,SSE,158,2.7,5.8,46,0.00,,,0.00,VWS V14.01,2013-06-20 09:29:00,
2013-06-20 05:30:00,57.9,37.3,29.29,SSW,202,5.4,5.4,46,0.00,,,0.00,VWS V14.01,2013-06-20 09:30:00,
2013-06-20 05:31:00,57.9,37.3,29.29,SW,225,0.9,6.0,46,0.00,,,0.00,VWS V14.01,2013-06-20 09:31:00,
2013-06-20 05:32:00,58.1,37.5,29.29,SSW,202,4.3,4.3,46,0.00,,,0.00,VWS V14.01,2013-06-20 09:32:00,
2013-06-20 05:33:00,57.9,37.3,29.29,SSW,202,2.2,4.0,46,0.00,,,0.00,VWS V14.01,2013-06-20 09:33:00,
2013-06-20 05:35:00,57.9,37.3,29.29,SSW,202,2.2,2.2,46,0.00,,,0.00,VWS V14.01,2013-06-20 09:35:00,
2013-06-20 05:37:00,57.9,37.3,29.29,SW,225,1.1,2.9,46,0.00,,,0.00,VWS V14.01,2013-06-20 09:37:00,
2013-06-20 05:38:00,57.9,37.3,29.29,WSW,248,5.6,5.6,46,0.00,,,0.00,VWS V14.01,2013-06-20 09:38:00,
2013-06-20 05:39:00,57.9,37.8,29.29,SSE,158,3.6,5.6,47,0.00,,,0.00,VWS V14.01,2013-06-20 09:39:00,
2013-06-20 05:40:00,57.9,37.8,29.29,West,270,2.9,5.4,47,0.00,,,0.00,VWS V14.01,2013-06-20 09:40:00,
2013-06-20 05:41:00,57.9,37.8,29.29,SSW,202,4.7,5.6,47,0.00,,,0.00,VWS V14.01,2013-06-20 09:41:00,
2013-06-20 05:42:00,57.7,37.1,29.29,SSW,202,4.3,4.3,46,0.00,,,0.00,VWS V14.01,2013-06-20 09:42:00,
2013-06-20 05:43:00,57.9,37.3,29.29,SE,135,1.6,1.6,46,0.00,,,0.00,VWS V14.01,2013-06-20 09:43:00,
2013-06-20 05:44:00,57.7,37.7,29.29,SW,225,2.5,2.7,47,0.00,,,0.00,VWS V14.01,2013-06-20 09:44:00,
2013-06-20 05:45:00,57.7,37.7,29.29,SW,225,2.5,2.5,47,0.00,,,0.00,VWS V14.01,2013-06-20 09:45:00,
2013-06-20 05:46:00,57.7,37.7,29.29,South,180,1.6,2.9,47,0.00,,,0.00,VWS V14.01,2013-06-20 09:46:00,
2013-06-20 05:47:00,57.7,37.7,29.29,SW,225,2.7,6.5,47,0.00,,,0.00,VWS V14.01,2013-06-20 09:47:00,
2013-06-20 05:48:00,57.9,37.3,29.29,South,180,1.3,1.3,46,0.00,,,0.00,VWS V14.01,2013-06-20 09:48:00,
2013-06-20 05:49:00,57.6,37.5,29.29,SSW,202,2.9,2.9,47,0.00,,,0.00,VWS V14.01,2013-06-20 09:49:00,
2013-06-20 05:50:00,57.6,37.5,29.29,South,180,2.9,4.9,47,0.00,,,0.00,VWS V14.01,2013-06-20 09:50:00,
2013-06-20 05:51:00,57.6,37.5,29.29,South,180,2.9,2.9,47,0.00,,,0.00,VWS V14.01,2013-06-20 09:51:00,
2013-06-20 05:52:00,57.6,37.5,29.29,SSW,202,3.8,4.7,47,0.00,,,0.00,VWS V14.01,2013-06-20 09:52:00,
2013-06-20 05:53:00,57.7,37.7,29.29,WNW,292,3.8,3.8,47,0.00,,,0.00,VWS V14.01,2013-06-20 09:53:00,
2013-06-20 05:54:00,57.6,37.5,29.29,South,180,3.4,5.6,47,0.00,,,0.00,VWS V14.01,2013-06-20 09:54:00,
2013-06-20 05:55:00,57.6,37.5,29.29,SW,225,4.0,4.0,47,0.00,,,0.00,VWS V14.01,2013-06-20 09:55:00,
2013-06-20 05:56:00,57.6,37.5,29.29,SSW,202,3.8,4.7,47,0.00,,,0.00,VWS V14.01,2013-06-20 09:56:00,
2013-06-20 05:57:00,57.6,37.5,29.29,SW,225,3.4,3.8,47,0.00,,,0.00,VWS V14.01,2013-06-20 09:57:00,
2013-06-20 05:58:00,57.6,37.5,29.29,SSW,202,3.8,3.8,47,0.00,,,0.00,VWS V14.01,2013-06-20 09:58:00,
2013-06-20 05:59:00,57.4,37.3,29.29,WSW,248,5.4,5.6,47,0.00,,,0.00,VWS V14.01,2013-06-20 09:59:00,
2013-06-20 06:00:00,57.4,37.3,29.29,South,180,3.6,6.0,47,0.00,,,0.00,VWS V14.01,2013-06-20 10:00:00,
2013-06-20 06:01:00,57.4,37.3,29.32,SSW,202,3.8,4.0,47,0.00,,,0.00,VWS V14.01,2013-06-20 10:01:00,
2013-06-20 06:02:00,57.4,37.3,29.32,NNE,22,3.1,3.8,47,0.00,,,0.00,VWS V14.01,2013-06-20 10:02:00,
2013-06-20 06:03:00,57.6,37.5,29.29,SSE,158,2.2,3.4,47,0.00,,,0.00,VWS V14.01,2013-06-20 10:03:00,
2013-06-20 06:04:00,57.4,37.3,29.32,SSW,202,2.2,6.0,47,0.00,,,0.00,VWS V14.01,2013-06-20 10:04:00,
2013-06-20 06:05:00,57.4,37.3,29.32,SSW,202,2.9,4.0,47,0.00,,,0.00,VWS V14.01,2013-06-20 10:05:00,
2013-06-20 06:06:00,57.4,37.3,29.32,South,180,3.8,3.8,47,0.00,,,0.00,VWS V14.01,2013-06-20 10:06:00,
2013-06-20 06:07:00,57.4,37.3,29.32,SE,135,3.6,3.8,47,0.00,,,0.00,VWS V14.01,2013-06-20 10:07:00,
2013-06-20 06:08:00,57.4,37.3,29.32,SSW,202,2.0,3.1,47,0.00,,,0.00,VWS V14.01,2013-06-20 10:08:00,
2013-06-20 06:09:00,57.4,37.3,29.32,SE,135,2.2,4.9,47,0.00,,,0.00,VWS V14.01,2013-06-20 10:09:00,
2013-06-20 06:10:00,57.4,37.3,29.32,SW,225,1.6,3.8,47,0.00,,,0.00,VWS V14.01,2013-06-20 10:10:00,
2013-06-20 06:11:00,57.4,37.3,29.32,SSE,158,5.4,5.4,47,0.00,,,0.00,VWS V14.01,2013-06-20 10:11:00,
2013-06-20 06:12:00,57.4,37.9,29.32,SSE,158,1.1,5.8,48,0.00,,,0.00,VWS V14.01,2013-06-20 10:12:00,
2013-06-20 06:13:00,57.4,37.3,29.32,SSW,202,2.7,3.6,47,0.00,,,0.00,VWS V14.01,2013-06-20 10:13:00,
2013-06-20 06:14:00,57.4,37.9,29.32,SSE,158,2.5,3.4,48,0.00,,,0.00,VWS V14.01,2013-06-20 10:14:00,
2013-06-20 06:15:00,57.4,37.9,29.32,SE,135,3.8,5.8,48,0.00,,,0.00,VWS V14.01,2013-06-20 10:15:00,
2013-06-20 06:16:00,57.4,37.9,29.32,SSW,202,4.3,7.8,48,0.00,,,0.00,VWS V14.01,2013-06-20 10:16:00,
2013-06-20 06:17:00,57.4,37.9,29.32,South,180,3.1,6.3,48,0.00,,,0.00,VWS V14.01,2013-06-20 10:17:00,
2013-06-20 06:18:00,57.4,37.9,29.32,SSE,158,1.1,1.1,48,0.00,,,0.00,VWS V14.01,2013-06-20 10:18:00,
2013-06-20 06:19:00,57.4,37.9,29.32,SSW,202,3.8,8.1,48,0.00,,,0.00,VWS V14.01,2013-06-20 10:19:00,
2013-06-20 06:20:00,57.6,38.0,29.32,South,180,3.6,5.6,48,0.00,,,0.00,VWS V14.01,2013-06-20 10:20:00,
2013-06-20 06:21:00,57.6,37.5,29.32,South,180,3.6,4.9,47,0.00,,,0.00,VWS V14.01,2013-06-20 10:21:00,
2013-06-20 06:22:00,57.7,37.7,29.32,WSW,248,4.0,6.3,47,0.00,,,0.00,VWS V14.01,2013-06-20 10:22:00,
2013-06-20 06:23:00,57.4,37.9,29.32,SSW,202,4.0,4.0,48,0.00,,,0.00,VWS V14.01,2013-06-20 10:23:00,
2013-06-20 06:24:00,57.7,37.7,29.32,NNE,22,3.8,4.0,47,0.00,,,0.00,VWS V14.01,2013-06-20 10:24:00,
2013-06-20 06:25:00,57.7,37.7,29.32,SW,225,2.7,3.8,47,0.00,,,0.00,VWS V14.01,2013-06-20 10:25:00,
2013-06-20 06:27:00,57.7,37.7,29.32,South,180,2.7,6.0,47,0.00,,,0.00,VWS V14.01,2013-06-20 10:27:00,
2013-06-20 06:28:00,57.7,37.7,29.32,South,180,2.0,4.0,47,0.00,,,0.00,VWS V14.01,2013-06-20 10:28:00,
2013-06-20 06:29:00,57.7,37.7,29.32,SSW,202,3.6,5.8,47,0.00,,,0.00,VWS V14.01,2013-06-20 10:29:00,
2013-06-20 06:30:00,57.7,37.7,29.32,SSW,202,7.2,7.2,47,0.00,,,0.00,VWS V14.01,2013-06-20 10:30:00,
2013-06-20 06:31:00,57.9,37.8,29.32,South,180,3.4,7.2,47,0.00,,,0.00,VWS V14.01,2013-06-20 10:31:00,
2013-06-20 06:32:00,57.9,37.8,29.32,SSW,202,6.3,7.2,47,0.00,,,0.00,VWS V14.01,2013-06-20 10:32:00,
2013-06-20 06:33:00,57.7,37.7,29.32,SSE,158,3.8,5.4,47,0.00,,,0.00,VWS V14.01,2013-06-20 10:33:00,
2013-06-20 06:34:00,57.9,37.8,29.32,SSE,158,3.1,6.3,47,0.00,,,0.00,VWS V14.01,2013-06-20 10:34:00,
2013-06-20 06:35:00,58.1,38.0,29.32,SSW,202,5.4,8.5,47,0.00,,,0.00,VWS V14.01,2013-06-20 10:35:00,
2013-06-20 06:36:00,58.1,38.0,29.32,South,180,4.3,5.4,47,0.00,,,0.00,VWS V14.01,2013-06-20 10:36:00,
2013-06-20 06:37:00,58.1,38.0,29.32,South,180,3.1,4.3,47,0.00,,,0.00,VWS V14.01,2013-06-20 10:37:00,
2013-06-20 06:38:00,57.9,37.8,29.32,SSW,202,6.3,6.3,47,0.00,,,0.00,VWS V14.01,2013-06-20 10:38:00,
2013-06-20 06:39:00,58.3,37.6,29.32,SSW,202,1.1,3.6,46,0.00,,,0.00,VWS V14.01,2013-06-20 10:39:00,
2013-06-20 06:40:00,58.3,37.6,29.32,SW,225,2.7,3.8,46,0.00,,,0.00,VWS V14.01,2013-06-20 10:40:00,
2013-06-20 06:41:00,58.3,37.6,29.32,SSE,158,3.8,5.6,46,0.00,,,0.00,VWS V14.01,2013-06-20 10:41:00,
2013-06-20 06:42:00,58.3,37.6,29.32,SSW,202,4.7,5.4,46,0.00,,,0.00,VWS V14.01,2013-06-20 10:42:00,
2013-06-20 06:43:00,58.1,38.0,29.32,South,180,1.1,3.1,47,0.00,,,0.00,VWS V14.01,2013-06-20 10:43:00,
2013-06-20 06:44:00,58.5,37.8,29.32,South,180,2.5,3.6,46,0.00,,,0.00,VWS V14.01,2013-06-20 10:44:00,
2013-06-20 06:45:00,58.5,37.8,29.32,SW,225,1.3,3.6,46,0.00,,,0.00,VWS V14.01,2013-06-20 10:45:00,
2013-06-20 06:46:00,58.5,37.8,29.32,South,180,3.8,4.0,46,0.00,,,0.00,VWS V14.01,2013-06-20 10:46:00,
2013-06-20 06:47:00,58.5,37.8,29.32,WSW,248,2.9,5.8,46,0.00,,,0.00,VWS V14.01,2013-06-20 10:47:00,
2013-06-20 06:48:00,58.5,37.8,29.32,SW,225,7.2,7.2,46,0.00,,,0.00,VWS V14.01,2013-06-20 10:48:00,
2013-06-20 06:49:00,58.5,37.8,29.32,South,180,3.4,3.4,46,0.00,,,0.00,VWS V14.01,2013-06-20 10:49:00,
2013-06-20 06:50:00,58.5,37.8,29.32,SSW,202,3.4,3.4,46,0.00,,,0.00,VWS V14.01,2013-06-20 10:50:00,
2013-06-20 06:51:00,58.5,37.8,29.32,SSE,158,3.1,3.4,46,0.00,,,0.00,VWS V14.01,2013-06-20 10:51:00,
2013-06-20 06:52:00,58.5,37.8,29.32,WSW,248,2.2,3.1,46,0.00,,,0.00,VWS V14.01,2013-06-20 10:52:00,
2013-06-20 06:53:00,58.5,37.8,29.32,WSW,248,1.3,2.9,46,0.00,,,0.00,VWS V14.01,2013-06-20 10:53:00,
2013-06-20 06:54:00,58.5,37.8,29.32,SW,225,2.0,4.3,46,0.00,,,0.00,VWS V14.01,2013-06-20 10:54:00,
2013-06-20 06:56:00,58.5,37.8,29.32,SE,135,2.7,3.6,46,0.00,,,0.00,VWS V14.01,2013-06-20 10:56:00,
2013-06-20 06:57:00,58.5,37.8,29.32,West,270,4.3,4.3,46,0.00,,,0.00,VWS V14.01,2013-06-20 10:57:00,
2013-06-20 06:58:00,58.5,37.8,29.32,WSW,248,3.4,3.4,46,0.00,,,0.00,VWS V14.01,2013-06-20 10:58:00,
2013-06-20 06:59:00,58.6,37.9,29.32,SSW,202,5.4,5.4,46,0.00,,,0.00,VWS V14.01,2013-06-20 10:59:00,
2013-06-20 07:00:00,58.6,37.9,29.32,SSW,202,4.3,5.4,46,0.00,,,0.00,VWS V14.01,2013-06-20 11:00:00,
2013-06-20 07:01:00,58.6,37.9,29.32,SSE,158,2.5,4.3,46,0.00,,,0.00,VWS V14.01,2013-06-20 11:01:00,
2013-06-20 07:02:00,58.6,37.9,29.32,WSW,248,4.0,4.0,46,0.00,,,0.00,VWS V14.01,2013-06-20 11:02:00,
2013-06-20 07:03:00,58.5,37.8,29.32,SSW,202,1.3,4.3,46,0.00,,,0.00,VWS V14.01,2013-06-20 11:03:00,
2013-06-20 07:04:00,58.6,37.9,29.32,SSE,158,2.7,3.1,46,0.00,,,0.00,VWS V14.01,2013-06-20 11:04:00,
2013-06-20 07:05:00,58.6,37.9,29.32,South,180,1.3,3.8,46,0.00,,,0.00,VWS V14.01,2013-06-20 11:05:00,
2013-06-20 07:06:00,58.6,37.9,29.32,SSE,158,3.8,5.6,46,0.00,,,0.00,VWS V14.01,2013-06-20 11:06:00,
2013-06-20 07:07:00,58.6,37.9,29.32,SSE,158,2.5,3.8,46,0.00,,,0.00,VWS V14.01,2013-06-20 11:07:00,
2013-06-20 07:08:00,58.6,37.9,29.32,South,180,2.5,4.0,46,0.00,,,0.00,VWS V14.01,2013-06-20 11:08:00,
2013-06-20 07:09:00,58.6,37.9,29.32,SW,225,2.2,3.8,46,0.00,,,0.00,VWS V14.01,2013-06-20 11:09:00,
2013-06-20 07:10:00,58.8,38.1,29.32,WNW,292,2.7,3.6,46,0.00,,,0.00,VWS V14.01,2013-06-20 11:10:00,
2013-06-20 07:11:00,58.8,38.1,29.32,SSW,202,1.3,2.7,46,0.00,,,0.00,VWS V14.01,2013-06-20 11:11:00,
2013-06-20 07:12:00,59.2,38.4,29.32,SW,225,3.6,3.6,46,0.00,,,0.00,VWS V14.01,2013-06-20 11:12:00,
2013-06-20 07:13:00,58.6,37.9,29.32,South,180,3.8,3.8,46,0.00,,,0.00,VWS V14.01,2013-06-20 11:13:00,
2013-06-20 07:15:00,59.2,38.4,29.32,SSE,158,2.9,4.0,46,0.00,,,0.00,VWS V14.01,2013-06-20 11:15:00,
2013-06-20 07:16:00,59.7,38.4,29.32,South,180,3.8,5.4,45,0.00,,,0.00,VWS V14.01,2013-06-20 11:16:00,
2013-06-20 07:17:00,59.7,38.4,29.32,South,180,5.6,5.6,45,0.00,,,0.00,VWS V14.01,2013-06-20 11:17:00,
2013-06-20 07:18:00,59.2,38.4,29.32,WSW,248,0.0,3.6,46,0.00,,,0.00,VWS V14.01,2013-06-20 11:18:00,
2013-06-20 07:19:00,60.1,38.7,29.32,WSW,248,3.1,6.0,45,0.00,,,0.00,VWS V14.01,2013-06-20 11:19:00,
2013-06-20 07:20:00,60.1,38.1,29.32,WSW,248,2.2,4.0,44,0.00,,,0.00,VWS V14.01,2013-06-20 11:20:00,
2013-06-20 07:21:00,60.4,38.4,29.32,SSW,202,5.4,5.4,44,0.00,,,0.00,VWS V14.01,2013-06-20 11:21:00,
2013-06-20 07:22:00,60.4,38.4,29.32,South,180,4.0,5.4,44,0.00,,,0.00,VWS V14.01,2013-06-20 11:22:00,
2013-06-20 07:23:00,59.9,38.5,29.32,SSE,158,2.9,5.6,45,0.00,,,0.00,VWS V14.01,2013-06-20 11:23:00,
2013-06-20 07:24:00,60.6,38.6,29.32,SSW,202,4.5,5.4,44,0.00,,,0.00,VWS V14.01,2013-06-20 11:24:00,
2013-06-20 07:25:00,60.6,38.0,29.32,SSW,202,6.9,6.9,43,0.00,,,0.00,VWS V14.01,2013-06-20 11:25:00,
2013-06-20 07:26:00,61.0,37.8,29.32,SSE,158,6.5,6.9,42,0.00,,,0.00,VWS V14.01,2013-06-20 11:26:00,
2013-06-20 07:27:00,61.0,37.8,29.32,SSE,158,4.7,6.5,42,0.00,,,0.00,VWS V14.01,2013-06-20 11:27:00,
2013-06-20 07:28:00,60.6,38.6,29.32,SSW,202,2.9,4.0,44,0.00,,,0.00,VWS V14.01,2013-06-20 11:28:00,
2013-06-20 07:29:00,61.2,37.3,29.32,SSW,202,2.5,10.1,41,0.00,,,0.00,VWS V14.01,2013-06-20 11:29:00,
2013-06-20 07:30:00,61.3,37.5,29.32,SSE,158,5.4,5.4,41,0.00,,,0.00,VWS V14.01,2013-06-20 11:30:00,
2013-06-20 07:31:00,61.3,37.5,29.32,SSE,158,2.9,5.4,41,0.00,,,0.00,VWS V14.01,2013-06-20 11:31:00,
2013-06-20 07:32:00,61.3,37.5,29.32,SSE,158,2.9,2.9,41,0.00,,,0.00,VWS V14.01,2013-06-20 11:32:00,
2013-06-20 07:33:00,61.0,37.8,29.32,South,180,5.8,5.8,42,0.00,,,0.00,VWS V14.01,2013-06-20 11:33:00,
2013-06-20 07:34:00,61.5,37.0,29.32,SSW,202,1.3,6.5,40,0.00,,,0.00,VWS V14.01,2013-06-20 11:34:00,
2013-06-20 07:35:00,61.5,37.6,29.32,WSW,248,4.9,4.9,41,0.00,,,0.00,VWS V14.01,2013-06-20 11:35:00,
2013-06-20 07:36:00,61.9,37.3,29.32,SSW,202,6.3,6.3,40,0.00,,,0.00,VWS V14.01,2013-06-20 11:36:00,
2013-06-20 07:37:00,61.9,36.7,29.32,WSW,248,3.6,9.4,39,0.00,,,0.00,VWS V14.01,2013-06-20 11:37:00,
2013-06-20 07:38:00,61.5,37.0,29.32,SSE,158,6.0,6.0,40,0.00,,,0.00,VWS V14.01,2013-06-20 11:38:00,
2013-06-20 07:39:00,62.1,36.8,29.32,SSE,158,5.8,5.8,39,0.00,,,0.00,VWS V14.01,2013-06-20 11:39:00,
2013-06-20 07:41:00,62.1,36.8,29.32,South,180,3.6,5.8,39,0.00,,,0.00,VWS V14.01,2013-06-20 11:41:00,
2013-06-20 07:42:00,62.1,36.8,29.32,South,180,3.4,3.6,39,0.00,,,0.00,VWS V14.01,2013-06-20 11:42:00,
2013-06-20 07:43:00,61.9,36.7,29.32,SSE,158,4.3,4.3,39,0.00,,,0.00,VWS V14.01,2013-06-20 11:43:00,
2013-06-20 07:44:00,62.4,37.2,29.32,SSE,158,5.8,7.4,39,0.00,,,0.00,VWS V14.01,2013-06-20 11:44:00,
2013-06-20 07:45:00,62.4,37.2,29.32,South,180,1.3,5.8,39,0.00,,,0.00,VWS V14.01,2013-06-20 11:45:00,
2013-06-20 07:46:00,62.4,37.2,29.32,SSW,202,4.7,4.7,39,0.00,,,0.00,VWS V14.01,2013-06-20 11:46:00,
2013-06-20 07:47:00,62.6,36.7,29.32,SSW,202,5.4,6.0,38,0.00,,,0.00,VWS V14.01,2013-06-20 11:47:00,
2013-06-20 07:48:00,62.2,37.0,29.32,NNE,22,5.6,7.4,39,0.00,,,0.00,VWS V14.01,2013-06-20 11:48:00,
2013-06-20 07:50:00,62.6,36.7,29.32,SSE,158,2.0,4.7,38,0.00,,,0.00,VWS V14.01,2013-06-20 11:50:00,
2013-06-20 07:51:00,62.6,36.7,29.32,ESE,112,4.7,4.9,38,0.00,,,0.00,VWS V14.01,2013-06-20 11:51:00,
2013-06-20 07:52:00,62.6,36.7,29.32,SSW,202,7.2,7.2,38,0.00,,,0.00,VWS V14.01,2013-06-20 11:52:00,
2013-06-20 07:53:00,62.6,36.7,29.32,SE,135,4.0,7.2,38,0.00,,,0.00,VWS V14.01,2013-06-20 11:53:00,
2013-06-20 07:54:00,63.0,37.0,29.32,SW,225,2.7,7.6,38,0.00,,,0.00,VWS V14.01,2013-06-20 11:54:00,
2013-06-20 07:55:00,62.8,36.8,29.32,WSW,248,2.2,4.9,38,0.00,,,0.00,VWS V14.01,2013-06-20 11:55:00,
2013-06-20 07:56:00,62.8,36.8,29.32,WSW,248,2.5,3.8,38,0.00,,,0.00,VWS V14.01,2013-06-20 11:56:00,
2013-06-20 07:57:00,62.8,36.8,29.32,WSW,248,2.5,2.5,38,0.00,,,0.00,VWS V14.01,2013-06-20 11:57:00,
2013-06-20 07:58:00,62.6,36.7,29.32,SSW,202,7.2,7.2,38,0.00,,,0.00,VWS V14.01,2013-06-20 11:58:00,
2013-06-20 07:59:00,63.0,37.0,29.32,SSW,202,4.0,6.0,38,0.00,,,0.00,VWS V14.01,2013-06-20 11:59:00,
2013-06-20 08:00:00,63.1,37.1,29.32,SSW,202,3.6,6.5,38,0.00,,,0.00,VWS V14.01,2013-06-20 12:00:00,
2013-06-20 08:01:00,63.1,37.1,29.32,SSW,202,2.9,4.3,38,0.00,,,0.00,VWS V14.01,2013-06-20 12:01:00,
2013-06-20 08:02:00,63.1,37.1,29.32,WSW,248,4.0,6.0,38,0.00,,,0.00,VWS V14.01,2013-06-20 12:02:00,
2013-06-20 08:03:00,62.8,36.8,29.32,SSE,158,6.0,6.0,38,0.00,,,0.00,VWS V14.01,2013-06-20 12:03:00,
2013-06-20 08:04:00,63.3,37.3,29.32,WSW,248,6.5,7.2,38,0.00,,,0.00,VWS V14.01,2013-06-20 12:04:00,
2013-06-20 08:05:00,63.3,37.3,29.32,South,180,3.1,6.5,38,0.00,,,0.00,VWS V14.01,2013-06-20 12:05:00,
2013-06-20 08:06:00,63.5,36.8,29.32,South,180,5.4,5.4,37,0.00,,,0.00,VWS V14.01,2013-06-20 12:06:00,
2013-06-20 08:07:00,63.5,36.8,29.32,SSE,158,2.9,5.4,37,0.00,,,0.00,VWS V14.01,2013-06-20 12:07:00,
2013-06-20 08:08:00,63.1,37.1,29.32,South,180,7.2,7.2,38,0.00,,,0.00,VWS V14.01,2013-06-20 12:08:00,
2013-06-20 08:09:00,63.7,37.6,29.32,WSW,248,3.6,6.0,38,0.00,,,0.00,VWS V14.01,2013-06-20 12:09:00,
2013-06-20 08:10:00,63.5,36.8,29.32,SW,225,4.9,6.5,37,0.00,,,0.00,VWS V14.01,2013-06-20 12:10:00,
2013-06-20 08:11:00,63.5,36.8,29.32,South,180,5.4,5.4,37,0.00,,,0.00,VWS V14.01,2013-06-20 12:11:00,
2013-06-20 08:12:00,63.5,36.8,29.32,SSE,158,6.0,6.0,37,0.00,,,0.00,VWS V14.01,2013-06-20 12:12:00,
2013-06-20 08:13:00,63.5,36.8,29.32,South,180,3.4,3.4,37,0.00,,,0.00,VWS V14.01,2013-06-20 12:13:00,
2013-06-20 08:14:00,63.5,37.5,29.32,WSW,248,1.6,3.1,38,0.00,,,0.00,VWS V14.01,2013-06-20 12:14:00,
2013-06-20 08:15:00,63.7,37.6,29.32,SSW,202,5.4,6.3,38,0.00,,,0.00,VWS V14.01,2013-06-20 12:15:00,
2013-06-20 08:16:00,63.7,37.6,29.32,SSW,202,3.1,5.4,38,0.00,,,0.00,VWS V14.01,2013-06-20 12:16:00,
2013-06-20 08:17:00,63.7,37.6,29.32,SW,225,4.9,4.9,38,0.00,,,0.00,VWS V14.01,2013-06-20 12:17:00,
2013-06-20 08:18:00,63.7,37.0,29.32,South,180,2.0,6.0,37,0.00,,,0.00,VWS V14.01,2013-06-20 12:18:00,
2013-06-20 08:19:00,63.9,37.8,29.32,SW,225,4.9,5.4,38,0.00,,,0.00,VWS V14.01,2013-06-20 12:19:00,
2013-06-20 08:20:00,63.9,37.8,29.32,SW,225,2.7,6.5,38,0.00,,,0.00,VWS V14.01,2013-06-20 12:20:00,
2013-06-20 08:21:00,64.0,37.9,29.32,South,180,3.4,4.7,38,0.00,,,0.00,VWS V14.01,2013-06-20 12:21:00,
2013-06-20 08:22:00,64.2,38.1,29.32,WSW,248,6.0,6.0,38,0.00,,,0.00,VWS V14.01,2013-06-20 12:22:00,
2013-06-20 08:23:00,63.9,37.8,29.32,SSE,158,5.4,5.4,38,0.00,,,0.00,VWS V14.01,2013-06-20 12:23:00,
2013-06-20 08:24:00,64.2,38.1,29.32,SW,225,3.6,4.9,38,0.00,,,0.00,VWS V14.01,2013-06-20 12:24:00,
2013-06-20 08:25:00,64.2,38.1,29.32,WSW,248,5.6,7.4,38,0.00,,,0.00,VWS V14.01,2013-06-20 12:25:00,
2013-06-20 08:26:00,64.2,37.4,29.32,SW,225,4.3,7.6,37,0.00,,,0.00,VWS V14.01,2013-06-20 12:26:00,
2013-06-20 08:27:00,64.2,38.1,29.32,SSW,202,6.3,6.3,38,0.00,,,0.00,VWS V14.01,2013-06-20 12:27:00,
2013-06-20 08:28:00,64.2,38.1,29.32,West,270,4.9,6.0,38,0.00,,,0.00,VWS V14.01,2013-06-20 12:28:00,
2013-06-20 08:29:00,64.2,37.4,29.32,WSW,248,6.5,7.8,37,0.00,,,0.00,VWS V14.01,2013-06-20 12:29:00,
2013-06-20 08:30:00,64.2,38.1,29.32,SSW,202,2.5,6.5,38,0.00,,,0.00,VWS V14.01,2013-06-20 12:30:00,
2013-06-20 08:31:00,64.2,38.1,29.32,South,180,4.0,4.0,38,0.00,,,0.00,VWS V14.01,2013-06-20 12:31:00,
2013-06-20 08:32:00,64.2,38.1,29.32,NNW,338,3.6,4.9,38,0.00,,,0.00,VWS V14.01,2013-06-20 12:32:00,
2013-06-20 08:33:00,64.2,37.4,29.32,SSW,202,4.3,4.3,37,0.00,,,0.00,VWS V14.01,2013-06-20 12:33:00,
2013-06-20 08:34:00,64.4,37.6,29.32,SE,135,5.6,5.6,37,0.00,,,0.00,VWS V14.01,2013-06-20 12:34:00,
2013-06-20 08:35:00,64.4,37.6,29.32,SW,225,3.8,5.6,37,0.00,,,0.00,VWS V14.01,2013-06-20 12:35:00,
2013-06-20 08:36:00,64.4,37.6,29.32,SSW,202,7.8,7.8,37,0.00,,,0.00,VWS V14.01,2013-06-20 12:36:00,
2013-06-20 08:37:00,64.6,37.8,29.32,WSW,248,6.0,7.8,37,0.00,,,0.00,VWS V14.01,2013-06-20 12:37:00,
2013-06-20 08:38:00,64.4,37.6,29.32,South,180,3.8,4.0,37,0.00,,,0.00,VWS V14.01,2013-06-20 12:38:00,
2013-06-20 08:39:00,64.6,37.0,29.32,SSW,202,6.3,8.7,36,0.00,,,0.00,VWS V14.01,2013-06-20 12:39:00,
2013-06-20 08:40:00,64.6,37.0,29.32,WSW,248,5.4,6.3,36,0.00,,,0.00,VWS V14.01,2013-06-20 12:40:00,
2013-06-20 08:41:00,64.6,37.8,29.32,WSW,248,3.6,5.4,37,0.00,,,0.00,VWS V14.01,2013-06-20 12:41:00,
2013-06-20 08:42:00,64.6,37.8,29.32,WNW,292,5.8,8.1,37,0.00,,,0.00,VWS V14.01,2013-06-20 12:42:00,
2013-06-20 08:43:00,64.4,37.6,29.32,SW,225,2.7,6.3,37,0.00,,,0.00,VWS V14.01,2013-06-20 12:43:00,
2013-06-20 08:44:00,64.6,37.0,29.32,SSE,158,8.7,8.7,36,0.00,,,0.00,VWS V14.01,2013-06-20 12:44:00,
2013-06-20 08:45:00,64.4,37.6,29.32,SSW,202,6.3,7.4,37,0.00,,,0.00,VWS V14.01,2013-06-20 12:45:00,
2013-06-20 08:46:00,64.4,37.6,29.32,WSW,248,5.6,7.4,37,0.00,,,0.00,VWS V14.01,2013-06-20 12:46:00,
2013-06-20 08:47:00,64.8,38.6,29.32,SSW,202,8.7,8.7,38,0.00,,,0.00,VWS V14.01,2013-06-20 12:47:00,
2013-06-20 08:48:00,64.8,37.9,29.32,SSW,202,6.5,8.7,37,0.00,,,0.00,VWS V14.01,2013-06-20 12:48:00,
2013-06-20 08:49:00,64.4,37.6,29.32,SW,225,3.8,3.8,37,0.00,,,0.00,VWS V14.01,2013-06-20 12:49:00,
2013-06-20 08:50:00,64.8,37.9,29.32,South,180,6.0,6.0,37,0.00,,,0.00,VWS V14.01,2013-06-20 12:50:00,
2013-06-20 08:51:00,64.8,37.9,29.32,SW,225,3.4,6.0,37,0.00,,,0.00,VWS V14.01,2013-06-20 12:51:00,
2013-06-20 08:52:00,64.8,37.9,29.32,WNW,292,2.0,8.1,37,0.00,,,0.00,VWS V14.01,2013-06-20 12:52:00,
2013-06-20 08:53:00,64.9,38.1,29.32,SSW,202,6.9,7.8,37,0.00,,,0.00,VWS V14.01,2013-06-20 12:53:00,
2013-06-20 08:54:00,64.8,37.9,29.32,SSW,202,6.5,6.5,37,0.00,,,0.00,VWS V14.01,2013-06-20 12:54:00,
2013-06-20 08:55:00,64.9,38.1,29.32,WSW,248,8.1,9.4,37,0.00,,,0.00,VWS V14.01,2013-06-20 12:55:00,
2013-06-20 08:56:00,65.1,37.5,29.32,West,270,2.5,8.1,36,0.00,,,0.00,VWS V14.01,2013-06-20 12:56:00,
2013-06-20 08:57:00,65.1,37.5,29.32,WSW,248,3.8,4.9,36,0.00,,,0.00,VWS V14.01,2013-06-20 12:57:00,
2013-06-20 08:58:00,65.1,38.2,29.32,SW,225,3.4,3.8,37,0.00,,,0.00,VWS V14.01,2013-06-20 12:58:00,
2013-06-20 08:59:00,64.9,38.1,29.32,SSW,202,5.4,6.9,37,0.00,,,0.00,VWS V14.01,2013-06-20 12:59:00,
2013-06-20 09:00:00,65.5,37.8,29.32,SSW,202,6.5,6.5,36,0.00,,,0.00,VWS V14.01,2013-06-20 13:00:00,
2013-06-20 09:01:00,65.5,38.5,29.32,WSW,248,2.5,7.8,37,0.00,,,0.00,VWS V14.01,2013-06-20 13:01:00,
2013-06-20 09:02:00,65.7,38.0,29.32,SW,225,4.7,6.7,36,0.00,,,0.00,VWS V14.01,2013-06-20 13:02:00,
2013-06-20 09:03:00,65.8,38.2,29.32,SSE,158,6.5,6.5,36,0.00,,,0.00,VWS V14.01,2013-06-20 13:03:00,
2013-06-20 09:04:00,65.3,38.4,29.32,SSE,158,6.0,6.0,37,0.00,,,0.00,VWS V14.01,2013-06-20 13:04:00,
2013-06-20 09:05:00,65.8,38.9,29.32,WSW,248,5.4,5.4,37,0.00,,,0.00,VWS V14.01,2013-06-20 13:05:00,
2013-06-20 09:06:00,66.0,38.3,29.32,WSW,248,4.0,5.4,36,0.00,,,0.00,VWS V14.01,2013-06-20 13:06:00,
2013-06-20 09:07:00,66.2,38.5,29.32,SW,225,7.6,7.6,36,0.00,,,0.00,VWS V14.01,2013-06-20 13:07:00,
2013-06-20 09:08:00,66.2,37.8,29.32,SW,225,4.5,8.7,35,0.00,,,0.00,VWS V14.01,2013-06-20 13:08:00,
2013-06-20 09:09:00,65.8,38.2,29.32,West,270,4.9,6.5,36,0.00,,,0.00,VWS V14.01,2013-06-20 13:09:00,
2013-06-20 09:10:00,66.2,37.8,29.32,SSE,158,6.0,7.6,35,0.00,,,0.00,VWS V14.01,2013-06-20 13:10:00,
2013-06-20 09:11:00,66.4,37.9,29.32,WSW,248,4.3,6.5,35,0.00,,,0.00,VWS V14.01,2013-06-20 13:11:00,
2013-06-20 09:12:00,66.2,37.8,29.32,SW,225,4.9,8.5,35,0.00,,,0.00,VWS V14.01,2013-06-20 13:12:00,
2013-06-20 09:13:00,66.2,37.8,29.32,WNW,292,3.4,4.9,35,0.00,,,0.00,VWS V14.01,2013-06-20 13:13:00,
2013-06-20 09:14:00,66.2,37.8,29.32,West,270,4.0,4.5,35,0.00,,,0.00,VWS V14.01,2013-06-20 13:14:00,
2013-06-20 09:15:00,66.6,38.1,29.32,SSE,158,6.9,7.2,35,0.00,,,0.00,VWS V14.01,2013-06-20 13:15:00,
2013-06-20 09:16:00,66.6,38.1,29.32,SW,225,4.0,6.9,35,0.00,,,0.00,VWS V14.01,2013-06-20 13:16:00,
2013-06-20 09:17:00,66.7,38.2,29.32,SSW,202,6.0,6.0,35,0.00,,,0.00,VWS V14.01,2013-06-20 13:17:00,
2013-06-20 09:18:00,66.7,38.2,29.32,SSW,202,3.4,9.6,35,0.00,,,0.00,VWS V14.01,2013-06-20 13:18:00,
2013-06-20 09:19:00,66.4,37.9,29.32,SW,225,2.0,4.0,35,0.00,,,0.00,VWS V14.01,2013-06-20 13:19:00,
2013-06-20 09:20:00,66.7,38.2,29.32,South,180,3.4,6.5,35,0.00,,,0.00,VWS V14.01,2013-06-20 13:20:00,
2013-06-20 09:21:00,66.9,38.4,29.32,SW,225,7.6,8.1,35,0.00,,,0.00,VWS V14.01,2013-06-20 13:21:00,
2013-06-20 09:22:00,66.9,37.7,29.32,WNW,292,3.1,7.6,34,0.00,,,0.00,VWS V14.01,2013-06-20 13:22:00,
2013-06-20 09:23:00,67.1,37.8,29.32,South,180,3.8,3.8,34,0.00,,,0.00,VWS V14.01,2013-06-20 13:23:00,
2013-06-20 09:24:00,66.7,38.2,29.32,SSE,158,5.6,5.6,35,0.00,,,0.00,VWS V14.01,2013-06-20 13:24:00,
2013-06-20 09:25:00,67.5,38.1,29.32,SW,225,4.0,5.6,34,0.00,,,0.00,VWS V14.01,2013-06-20 13:25:00,
2013-06-20 09:26:00,67.5,38.1,29.32,SW,225,8.7,8.7,34,0.00,,,0.00,VWS V14.01,2013-06-20 13:26:00,
2013-06-20 09:27:00,67.5,38.1,29.32,SW,225,2.7,8.7,34,0.00,,,0.00,VWS V14.01,2013-06-20 13:27:00,
2013-06-20 09:28:00,67.6,38.3,29.32,SW,225,2.9,7.6,34,0.00,,,0.00,VWS V14.01,2013-06-20 13:28:00,
2013-06-20 09:29:00,67.1,37.8,29.32,SSW,202,2.0,3.8,34,0.00,,,0.00,VWS V14.01,2013-06-20 13:29:00,
2013-06-20 09:30:00,67.8,38.5,29.32,WSW,248,4.0,4.3,34,0.00,,,0.00,VWS V14.01,2013-06-20 13:30:00,
2013-06-20 09:31:00,68.0,37.8,29.32,WSW,248,8.5,8.5,33,0.00,,,0.00,VWS V14.01,2013-06-20 13:31:00,
2013-06-20 09:32:00,68.2,38.0,29.32,SW,225,7.4,8.5,33,0.00,,,0.00,VWS V14.01,2013-06-20 13:32:00,
2013-06-20 09:33:00,68.2,38.0,29.32,South,180,7.8,7.8,33,0.00,,,0.00,VWS V14.01,2013-06-20 13:33:00,
2013-06-20 09:34:00,67.8,38.5,29.32,SSW,202,2.7,3.8,34,0.00,,,0.00,VWS V14.01,2013-06-20 13:34:00,
2013-06-20 09:35:00,68.5,38.3,29.32,SSW,202,2.9,5.4,33,0.00,,,0.00,VWS V14.01,2013-06-20 13:35:00,
2013-06-20 09:36:00,68.5,38.3,29.32,WNW,292,5.6,7.6,33,0.00,,,0.00,VWS V14.01,2013-06-20 13:36:00,
2013-06-20 09:37:00,68.9,38.6,29.32,SSW,202,4.7,6.3,33,0.00,,,0.00,VWS V14.01,2013-06-20 13:37:00,
2013-06-20 09:38:00,68.9,38.6,29.32,SW,225,3.4,4.7,33,0.00,,,0.00,VWS V14.01,2013-06-20 13:38:00,
2013-06-20 09:39:00,68.4,38.2,29.32,SW,225,5.4,7.8,33,0.00,,,0.00,VWS V14.01,2013-06-20 13:39:00,
2013-06-20 09:40:00,69.1,37.2,29.32,SW,225,5.6,7.4,31,0.00,,,0.00,VWS V14.01,2013-06-20 13:40:00,
2013-06-20 09:41:00,69.3,37.4,29.32,South,180,4.7,5.6,31,0.00,,,0.00,VWS V14.01,2013-06-20 13:41:00,
2013-06-20 09:42:00,69.3,37.4,29.32,South,180,4.0,4.7,31,0.00,,,0.00,VWS V14.01,2013-06-20 13:42:00,
2013-06-20 09:43:00,69.3,35.7,29.32,WSW,248,4.3,5.6,29,0.00,,,0.00,VWS V14.01,2013-06-20 13:43:00,
2013-06-20 09:44:00,68.9,38.6,29.32,WSW,248,4.7,4.7,33,0.00,,,0.00,VWS V14.01,2013-06-20 13:44:00,
2013-06-20 09:45:00,69.8,36.1,29.32,SSE,158,6.5,6.5,29,0.00,,,0.00,VWS V14.01,2013-06-20 13:45:00,
2013-06-20 09:46:00,69.8,35.3,29.32,WSW,248,5.8,7.8,28,0.00,,,0.00,VWS V14.01,2013-06-20 13:46:00,
2013-06-20 09:47:00,69.8,35.3,29.32,SW,225,5.8,6.7,28,0.00,,,0.00,VWS V14.01,2013-06-20 13:47:00,
2013-06-20 09:48:00,69.8,34.3,29.32,West,270,4.7,5.8,27,0.00,,,0.00,VWS V14.01,2013-06-20 13:48:00,
2013-06-20 09:49:00,69.4,35.8,29.32,SSW,202,4.3,4.3,29,0.00,,,0.00,VWS V14.01,2013-06-20 13:49:00,
2013-06-20 09:50:00,70.2,34.7,29.32,South,180,4.0,6.9,27,0.00,,,0.00,VWS V14.01,2013-06-20 13:50:00,
2013-06-20 09:51:00,70.2,34.7,29.32,SW,225,6.3,6.3,27,0.00,,,0.00,VWS V14.01,2013-06-20 13:51:00,
2013-06-20 09:52:00,70.2,34.7,29.32,SSW,202,6.0,6.7,27,0.00,,,0.00,VWS V14.01,2013-06-20 13:52:00,
2013-06-20 09:53:00,70.2,34.7,29.32,SSW,202,6.0,6.0,27,0.00,,,0.00,VWS V14.01,2013-06-20 13:53:00,
2013-06-20 09:54:00,70.0,34.5,29.32,West,270,6.3,6.3,27,0.00,,,0.00,VWS V14.01,2013-06-20 13:54:00,
2013-06-20 09:55:00,70.5,35.0,29.32,WSW,248,3.6,4.0,27,0.00,,,0.00,VWS V14.01,2013-06-20 13:55:00,
2013-06-20 09:56:00,70.7,34.2,29.32,WSW,248,4.9,7.8,26,0.00,,,0.00,VWS V14.01,2013-06-20 13:56:00,
2013-06-20 09:57:00,70.9,35.3,29.32,WSW,248,3.1,4.9,27,0.00,,,0.00,VWS V14.01,2013-06-20 13:57:00,
2013-06-20 09:58:00,71.1,35.4,29.32,SSW,202,8.1,8.1,27,0.00,,,0.00,VWS V14.01,2013-06-20 13:58:00,
2013-06-20 09:59:00,70.2,34.7,29.32,SSW,202,4.7,6.0,27,0.00,,,0.00,VWS V14.01,2013-06-20 13:59:00,
2013-06-20 10:00:00,71.2,35.6,29.32,South,180,4.0,8.1,27,0.00,,,0.00,VWS V14.01,2013-06-20 14:00:00,
2013-06-20 10:01:00,71.4,34.8,29.32,WSW,248,6.0,6.0,26,0.00,,,0.00,VWS V14.01,2013-06-20 14:01:00,
2013-06-20 10:02:00,71.8,35.1,29.32,WSW,248,4.3,6.0,26,0.00,,,0.00,VWS V14.01,2013-06-20 14:02:00,
2013-06-20 10:03:00,71.8,35.1,29.32,SW,225,6.3,6.3,26,0.00,,,0.00,VWS V14.01,2013-06-20 14:03:00,
2013-06-20 10:04:00,71.2,35.6,29.32,SSE,158,3.4,8.1,27,0.00,,,0.00,VWS V14.01,2013-06-20 14:04:00,
2013-06-20 10:05:00,71.8,34.1,29.32,WSW,248,7.4,7.4,25,0.00,,,0.00,VWS V14.01,2013-06-20 14:05:00,
2013-06-20 10:06:00,71.8,34.1,29.32,SW,225,4.9,7.4,25,0.00,,,0.00,VWS V14.01,2013-06-20 14:06:00,
2013-06-20 10:07:00,72.0,34.2,29.32,WSW,248,2.0,4.9,25,0.00,,,0.00,VWS V14.01,2013-06-20 14:07:00,
2013-06-20 10:08:00,72.0,34.2,29.32,WSW,248,4.3,5.8,25,0.00,,,0.00,VWS V14.01,2013-06-20 14:08:00,
2013-06-20 10:09:00,71.8,33.1,29.32,SSW,202,3.8,6.3,24,0.00,,,0.00,VWS V14.01,2013-06-20 14:09:00,
2013-06-20 10:10:00,72.3,34.6,29.32,WSW,248,2.9,5.4,25,0.00,,,0.00,VWS V14.01,2013-06-20 14:10:00,
2013-06-20 10:11:00,72.5,34.7,29.32,WSW,248,2.7,3.4,25,0.00,,,0.00,VWS V14.01,2013-06-20 14:11:00,
2013-06-20 10:12:00,72.7,34.9,29.32,West,270,1.6,4.7,25,0.00,,,0.00,VWS V14.01,2013-06-20 14:12:00,
2013-06-20 10:13:00,72.9,35.0,29.32,South,180,4.9,5.4,25,0.00,,,0.00,VWS V14.01,2013-06-20 14:13:00,
2013-06-20 10:14:00,72.1,33.4,29.32,South,180,3.6,7.2,24,0.00,,,0.00,VWS V14.01,2013-06-20 14:14:00,
2013-06-20 10:15:00,73.0,34.2,29.32,SW,225,3.8,4.3,24,0.00,,,0.00,VWS V14.01,2013-06-20 14:15:00,
2013-06-20 10:16:00,73.2,34.3,29.32,WSW,248,3.6,3.8,24,0.00,,,0.00,VWS V14.01,2013-06-20 14:16:00,
2013-06-20 10:17:00,73.2,34.3,29.32,SSW,202,4.7,4.7,24,0.00,,,0.00,VWS V14.01,2013-06-20 14:17:00,
2013-06-20 10:18:00,73.6,33.5,29.32,South,180,3.1,4.7,23,0.00,,,0.00,VWS V14.01,2013-06-20 14:18:00,
2013-06-20 10:19:00,72.9,34.0,29.32,WNW,292,5.6,5.6,24,0.00,,,0.00,VWS V14.01,2013-06-20 14:19:00,
2013-06-20 10:20:00,73.8,33.7,29.32,WSW,248,3.4,4.9,23,0.00,,,0.00,VWS V14.01,2013-06-20 14:20:00,
2013-06-20 10:21:00,73.9,34.9,29.32,SSW,202,5.4,5.4,24,0.00,,,0.00,VWS V14.01,2013-06-20 14:21:00,
2013-06-20 10:22:00,73.9,33.8,29.32,West,270,4.9,5.4,23,0.00,,,0.00,VWS V14.01,2013-06-20 14:22:00,
2013-06-20 10:23:00,73.9,33.8,29.32,WSW,248,5.8,6.5,23,0.00,,,0.00,VWS V14.01,2013-06-20 14:23:00,
2013-06-20 10:24:00,73.6,33.5,29.32,WNW,292,4.9,4.9,23,0.00,,,0.00,VWS V14.01,2013-06-20 14:24:00,
2013-06-20 10:25:00,74.1,34.0,29.32,SW,225,2.7,6.0,23,0.00,,,0.00,VWS V14.01,2013-06-20 14:25:00,
2013-06-20 10:26:00,74.3,34.1,29.32,West,270,3.4,4.0,23,0.00,,,0.00,VWS V14.01,2013-06-20 14:26:00,
2013-06-20 10:27:00,74.7,34.4,29.32,SSW,202,3.1,6.5,23,0.00,,,0.00,VWS V14.01,2013-06-20 14:27:00,
2013-06-20 10:28:00,74.7,34.4,29.32,SSW,202,4.3,4.3,23,0.00,,,0.00,VWS V14.01,2013-06-20 14:28:00,
2013-06-20 10:29:00,73.9,33.8,29.32,SW,225,5.6,6.3,23,0.00,,,0.00,VWS V14.01,2013-06-20 14:29:00,
2013-06-20 10:30:00,74.7,34.4,29.32,West,270,2.7,3.1,23,0.00,,,0.00,VWS V14.01,2013-06-20 14:30:00,
2013-06-20 10:31:00,75.0,34.7,29.32,NW,315,1.3,2.7,23,0.00,,,0.00,VWS V14.01,2013-06-20 14:31:00,
2013-06-20 10:32:00,75.0,34.7,29.32,West,270,3.8,3.8,23,0.00,,,0.00,VWS V14.01,2013-06-20 14:32:00,
2013-06-20 10:33:00,75.4,35.0,29.32,WSW,248,2.2,4.0,23,0.00,,,0.00,VWS V14.01,2013-06-20 14:33:00,
2013-06-20 10:34:00,74.7,34.4,29.32,WNW,292,3.1,4.3,23,0.00,,,0.00,VWS V14.01,2013-06-20 14:34:00,
2013-06-20 10:35:00,75.4,33.9,29.32,WSW,248,3.6,3.6,22,0.00,,,0.00,VWS V14.01,2013-06-20 14:35:00,
2013-06-20 10:36:00,75.6,34.1,29.32,West,270,4.9,4.9,22,0.00,,,0.00,VWS V14.01,2013-06-20 14:36:00,
2013-06-20 10:37:00,75.7,34.2,29.32,WSW,248,4.9,4.9,22,0.00,,,0.00,VWS V14.01,2013-06-20 14:37:00,
2013-06-20 10:38:00,75.7,34.2,29.32,SW,225,4.9,6.3,22,0.00,,,0.00,VWS V14.01,2013-06-20 14:38:00,
2013-06-20 10:39:00,75.4,35.0,29.32,West,270,3.6,6.0,23,0.00,,,0.00,VWS V14.01,2013-06-20 14:39:00,
2013-06-20 10:40:00,75.7,34.2,29.32,SW,225,4.0,4.0,22,0.00,,,0.00,VWS V14.01,2013-06-20 14:40:00,
2013-06-20 10:41:00,75.7,34.2,29.32,South,180,3.6,5.4,22,0.00,,,0.00,VWS V14.01,2013-06-20 14:41:00,
2013-06-20 10:42:00,75.2,33.8,29.32,WSW,248,9.0,9.0,22,0.00,,,0.00,VWS V14.01,2013-06-20 14:42:00,
2013-06-20 10:43:00,75.2,33.8,29.32,WSW,248,8.5,9.4,22,0.00,,,0.00,VWS V14.01,2013-06-20 14:43:00,
2013-06-20 10:44:00,75.7,34.2,29.32,SW,225,4.0,5.8,22,0.00,,,0.00,VWS V14.01,2013-06-20 14:44:00,
2013-06-20 10:45:00,75.0,33.6,29.32,West,270,4.3,6.0,22,0.00,,,0.00,VWS V14.01,2013-06-20 14:45:00,
2013-06-20 10:46:00,75.2,33.8,29.32,SW,225,3.4,8.5,22,0.00,,,0.00,VWS V14.01,2013-06-20 14:46:00,
2013-06-20 10:47:00,75.4,33.9,29.32,South,180,3.6,4.9,22,0.00,,,0.00,VWS V14.01,2013-06-20 14:47:00,
2013-06-20 10:48:00,75.7,34.2,29.32,WSW,248,5.4,5.4,22,0.00,,,0.00,VWS V14.01,2013-06-20 14:48:00,
2013-06-20 10:49:00,75.2,33.8,29.32,South,180,6.5,8.5,22,0.00,,,0.00,VWS V14.01,2013-06-20 14:49:00,
2013-06-20 10:51:00,75.4,33.9,29.32,SW,225,3.6,7.2,22,0.00,,,0.00,VWS V14.01,2013-06-20 14:51:00,
2013-06-20 10:52:00,75.6,32.9,29.32,SSW,202,4.0,4.3,21,0.00,,,0.00,VWS V14.01,2013-06-20 14:52:00,
2013-06-20 10:53:00,75.4,32.8,29.32,WSW,248,4.0,6.3,21,0.00,,,0.00,VWS V14.01,2013-06-20 14:53:00,
2013-06-20 10:54:00,75.6,34.1,29.32,WSW,248,6.0,8.1,22,0.00,,,0.00,VWS V14.01,2013-06-20 14:54:00,
2013-06-20 10:55:00,75.6,34.1,29.32,West,270,4.3,4.7,22,0.00,,,0.00,VWS V14.01,2013-06-20 14:55:00,
2013-06-20 10:56:00,75.7,34.2,29.32,West,270,8.7,8.7,22,0.00,,,0.00,VWS V14.01,2013-06-20 14:56:00,
2013-06-20 10:57:00,75.4,32.8,29.32,WSW,248,4.9,8.7,21,0.00,,,0.00,VWS V14.01,2013-06-20 14:57:00,
2013-06-20 10:58:00,75.7,33.1,29.32,WSW,248,3.6,4.9,21,0.00,,,0.00,VWS V14.01,2013-06-20 14:58:00,
2013-06-20 10:59:00,75.6,34.1,29.32,SSW,202,3.6,5.4,22,0.00,,,0.00,VWS V14.01,2013-06-20 14:59:00,
2013-06-20 11:00:00,75.7,33.1,29.32,SW,225,5.4,8.5,21,0.00,,,0.00,VWS V14.01,2013-06-20 15:00:00,
2013-06-20 11:01:00,75.9,34.4,29.32,WSW,248,5.4,6.3,22,0.00,,,0.00,VWS V14.01,2013-06-20 15:01:00,
2013-06-20 11:02:00,75.9,34.4,29.32,WSW,248,6.0,6.0,22,0.00,,,0.00,VWS V14.01,2013-06-20 15:02:00,
2013-06-20 11:04:00,75.7,33.1,29.32,WSW,248,7.4,7.4,21,0.00,,,0.00,VWS V14.01,2013-06-20 15:04:00,
2013-06-20 11:05:00,76.5,33.7,29.32,West,270,2.0,6.5,21,0.00,,,0.00,VWS V14.01,2013-06-20 15:05:00,
2013-06-20 11:06:00,76.5,33.7,29.32,SW,225,8.1,10.1,21,0.00,,,0.00,VWS V14.01,2013-06-20 15:06:00,
2013-06-20 11:07:00,76.1,33.4,29.32,WSW,248,7.8,10.7,21,0.00,,,0.00,VWS V14.01,2013-06-20 15:07:00,
2013-06-20 11:08:00,75.9,33.2,29.32,West,270,5.8,10.1,21,0.00,,,0.00,VWS V14.01,2013-06-20 15:08:00,
2013-06-20 11:09:00,76.1,33.4,29.32,WSW,248,3.1,7.8,21,0.00,,,0.00,VWS V14.01,2013-06-20 15:09:00,
2013-06-20 11:10:00,75.9,33.2,29.32,SW,225,2.9,7.2,21,0.00,,,0.00,VWS V14.01,2013-06-20 15:10:00,
2013-06-20 11:11:00,75.9,33.2,29.32,SW,225,7.8,7.8,21,0.00,,,0.00,VWS V14.01,2013-06-20 15:11:00,
2013-06-20 11:12:00,76.6,33.8,29.32,SW,225,4.0,7.8,21,0.00,,,0.00,VWS V14.01,2013-06-20 15:12:00,
2013-06-20 11:13:00,76.6,33.8,29.32,WSW,248,9.8,9.8,21,0.00,,,0.00,VWS V14.01,2013-06-20 15:13:00,
2013-06-20 11:14:00,75.9,33.2,29.32,WSW,248,7.2,8.7,21,0.00,,,0.00,VWS V14.01,2013-06-20 15:14:00,
2013-06-20 11:15:00,76.3,33.5,29.32,SW,225,8.5,10.7,21,0.00,,,0.00,VWS V14.01,2013-06-20 15:15:00,
2013-06-20 11:16:00,75.9,33.2,29.32,West,270,8.1,10.5,21,0.00,,,0.00,VWS V14.01,2013-06-20 15:16:00,
2013-06-20 11:17:00,75.9,33.2,29.32,WSW,248,6.0,8.1,21,0.00,,,0.00,VWS V14.01,2013-06-20 15:17:00,
2013-06-20 11:18:00,76.5,33.7,29.32,West,270,4.7,6.0,21,0.00,,,0.00,VWS V14.01,2013-06-20 15:18:00,
2013-06-20 11:19:00,76.6,33.8,29.32,WSW,248,5.4,6.9,21,0.00,,,0.00,VWS V14.01,2013-06-20 15:19:00,
2013-06-20 11:20:00,76.5,33.7,29.32,WNW,292,5.6,5.6,21,0.00,,,0.00,VWS V14.01,2013-06-20 15:20:00,
2013-06-20 11:21:00,76.5,33.7,29.32,NNW,338,4.9,5.6,21,0.00,,,0.00,VWS V14.01,2013-06-20 15:21:00,
2013-06-20 11:22:00,76.5,33.7,29.32,SW,225,4.7,4.9,21,0.00,,,0.00,VWS V14.01,2013-06-20 15:22:00,
2013-06-20 11:23:00,76.5,33.7,29.32,SW,225,4.9,7.4,21,0.00,,,0.00,VWS V14.01,2013-06-20 15:23:00,
2013-06-20 11:24:00,76.5,33.7,29.32,NNW,338,2.7,4.7,21,0.00,,,0.00,VWS V14.01,2013-06-20 15:24:00,
2013-06-20 11:25:00,78.1,35.0,29.32,SW,225,6.0,7.2,21,0.00,,,0.00,VWS V14.01,2013-06-20 15:25:00,
2013-06-20 11:26:00,78.1,35.0,29.32,WSW,248,7.6,11.0,21,0.00,,,0.00,VWS V14.01,2013-06-20 15:26:00,
2013-06-20 11:27:00,78.1,35.0,29.32,WSW,248,7.8,9.6,21,0.00,,,0.00,VWS V14.01,2013-06-20 15:27:00,
2013-06-20 11:28:00,76.8,34.0,29.32,WSW,248,9.8,10.1,21,0.00,,,0.00,VWS V14.01,2013-06-20 15:28:00,
2013-06-20 11:29:00,78.1,35.0,29.32,WSW,248,3.8,5.8,21,0.00,,,0.00,VWS V14.01,2013-06-20 15:29:00,
2013-06-20 11:30:00,76.5,33.7,29.32,WSW,248,5.4,10.3,21,0.00,,,0.00,VWS V14.01,2013-06-20 15:30:00,
2013-06-20 11:31:00,76.5,33.7,29.32,WSW,248,8.1,9.6,21,0.00,,,0.00,VWS V14.01,2013-06-20 15:31:00,
2013-06-20 11:32:00,76.5,33.7,29.32,WNW,292,6.3,8.1,21,0.00,,,0.00,VWS V14.01,2013-06-20 15:32:00,
2013-06-20 11:33:00,76.5,33.7,29.32,West,270,6.0,6.3,21,0.00,,,0.00,VWS V14.01,2013-06-20 15:33:00,
2013-06-20 11:34:00,76.5,33.7,29.32,WSW,248,10.3,10.3,21,0.00,,,0.00,VWS V14.01,2013-06-20 15:34:00,
2013-06-20 11:35:00,76.5,33.7,29.32,SW,225,4.7,8.7,21,0.00,,,0.00,VWS V14.01,2013-06-20 15:35:00,
2013-06-20 11:36:00,77.0,34.1,29.32,SW,225,3.1,4.7,21,0.00,,,0.00,VWS V14.01,2013-06-20 15:36:00,
2013-06-20 11:37:00,77.0,34.1,29.32,SW,225,7.6,7.6,21,0.00,,,0.00,VWS V14.01,2013-06-20 15:37:00,
2013-06-20 11:38:00,76.8,34.0,29.32,SSW,202,7.8,8.7,21,0.00,,,0.00,VWS V14.01,2013-06-20 15:38:00,
2013-06-20 11:39:00,76.8,34.0,29.32,SW,225,2.7,7.8,21,0.00,,,0.00,VWS V14.01,2013-06-20 15:39:00,
2013-06-20 11:40:00,76.5,33.7,29.32,WSW,248,5.8,8.7,21,0.00,,,0.00,VWS V14.01,2013-06-20 15:40:00,
2013-06-20 11:41:00,77.0,34.1,29.32,West,270,8.1,8.1,21,0.00,,,0.00,VWS V14.01,2013-06-20 15:41:00,
2013-06-20 11:42:00,77.0,34.1,29.32,West,270,12.5,12.5,21,0.00,,,0.00,VWS V14.01,2013-06-20 15:42:00,
2013-06-20 11:43:00,76.5,33.7,29.32,West,270,6.0,12.5,21,0.00,,,0.00,VWS V14.01,2013-06-20 15:43:00,
2013-06-20 11:44:00,76.5,33.7,29.32,WNW,292,10.7,12.5,21,0.00,,,0.00,VWS V14.01,2013-06-20 15:44:00,
2013-06-20 11:45:00,76.8,34.0,29.32,SW,225,3.6,3.6,21,0.00,,,0.00,VWS V14.01,2013-06-20 15:45:00,
2013-06-20 11:47:00,77.0,34.1,29.32,West,270,6.3,12.5,21,0.00,,,0.00,VWS V14.01,2013-06-20 15:47:00,
2013-06-20 11:48:00,77.0,34.1,29.32,SW,225,8.1,8.1,21,0.00,,,0.00,VWS V14.01,2013-06-20 15:48:00,
2013-06-20 11:49:00,77.0,34.1,29.32,West,270,6.3,8.1,21,0.00,,,0.00,VWS V14.01,2013-06-20 15:49:00,
2013-06-20 11:50:00,76.8,35.1,29.32,WSW,248,6.5,10.7,22,0.00,,,0.00,VWS V14.01,2013-06-20 15:50:00,
2013-06-20 11:51:00,77.0,34.1,29.32,WNW,292,9.2,9.2,21,0.00,,,0.00,VWS V14.01,2013-06-20 15:51:00,
2013-06-20 11:52:00,77.0,34.1,29.32,WSW,248,8.5,9.8,21,0.00,,,0.00,VWS V14.01,2013-06-20 15:52:00,
2013-06-20 11:53:00,77.0,34.1,29.32,WSW,248,3.6,8.5,21,0.00,,,0.00,VWS V14.01,2013-06-20 15:53:00,
2013-06-20 11:54:00,77.5,34.6,29.32,WSW,248,4.0,5.6,21,0.00,,,0.00,VWS V14.01,2013-06-20 15:54:00,
2013-06-20 11:55:00,77.0,34.1,29.32,WSW,248,7.4,7.4,21,0.00,,,0.00,VWS V14.01,2013-06-20 15:55:00,
2013-06-20 11:56:00,77.9,36.0,29.32,WSW,248,8.5,8.5,22,0.00,,,0.00,VWS V14.01,2013-06-20 15:56:00,
2013-06-20 11:57:00,77.9,36.0,29.32,SW,225,5.8,8.5,22,0.00,,,0.00,VWS V14.01,2013-06-20 15:57:00,
2013-06-20 11:59:00,77.9,36.0,29.32,South,180,7.4,10.7,22,0.00,,,0.00,VWS V14.01,2013-06-20 15:59:00,
2013-06-20 12:00:00,77.5,34.6,29.32,WSW,248,4.9,4.9,21,0.00,,,0.00,VWS V14.01,2013-06-20 16:00:00,
2013-06-20 12:01:00,77.9,34.9,29.32,South,180,5.4,6.0,21,0.00,,,0.00,VWS V14.01,2013-06-20 16:01:00,
2013-06-20 12:02:00,77.9,36.0,29.32,SW,225,5.8,11.9,22,0.00,,,0.00,VWS V14.01,2013-06-20 16:02:00,
2013-06-20 12:03:00,77.5,34.6,29.32,WSW,248,6.0,11.0,21,0.00,,,0.00,VWS V14.01,2013-06-20 16:03:00,
2013-06-20 12:04:00,77.5,34.6,29.32,WSW,248,6.3,10.1,21,0.00,,,0.00,VWS V14.01,2013-06-20 16:04:00,
2013-06-20 12:05:00,77.9,36.0,29.32,WSW,248,6.0,7.4,22,0.00,,,0.00,VWS V14.01,2013-06-20 16:05:00,
2013-06-20 12:06:00,77.5,34.6,29.32,SSW,202,6.5,8.5,21,0.00,,,0.00,VWS V14.01,2013-06-20 16:06:00,
2013-06-20 12:07:00,77.9,34.9,29.32,WSW,248,6.0,6.5,21,0.00,,,0.00,VWS V14.01,2013-06-20 16:07:00,
2013-06-20 12:08:00,78.1,36.2,29.32,SW,225,6.3,6.3,22,0.00,,,0.00,VWS V14.01,2013-06-20 16:08:00,
2013-06-20 12:09:00,78.4,36.5,29.32,West,270,5.4,6.3,22,0.00,,,0.00,VWS V14.01,2013-06-20 16:09:00,
2013-06-20 12:10:00,77.5,34.6,29.32,WSW,248,5.4,6.3,21,0.00,,,0.00,VWS V14.01,2013-06-20 16:10:00,
2013-06-20 12:11:00,78.1,36.2,29.32,WSW,248,6.7,8.1,22,0.00,,,0.00,VWS V14.01,2013-06-20 16:11:00,
2013-06-20 12:12:00,78.1,35.0,29.32,WSW,248,10.1,10.1,21,0.00,,,0.00,VWS V14.01,2013-06-20 16:12:00,
2013-06-20 12:13:00,78.1,35.0,29.32,WSW,248,10.1,10.1,21,0.00,,,0.00,VWS V14.01,2013-06-20 16:13:00,
2013-06-20 12:14:00,77.9,34.9,29.32,West,270,9.8,11.2,21,0.00,,,0.00,VWS V14.01,2013-06-20 16:14:00,
2013-06-20 12:15:00,78.4,36.5,29.32,WSW,248,4.9,5.4,22,0.00,,,0.00,VWS V14.01,2013-06-20 16:15:00,
2013-06-20 12:16:00,77.5,34.6,29.32,WSW,248,5.8,9.6,21,0.00,,,0.00,VWS V14.01,2013-06-20 16:16:00,
2013-06-20 12:17:00,78.1,36.2,29.32,SW,225,8.5,8.5,22,0.00,,,0.00,VWS V14.01,2013-06-20 16:17:00,
2013-06-20 12:19:00,78.1,36.2,29.32,SW,225,7.4,8.5,22,0.00,,,0.00,VWS V14.01,2013-06-20 16:19:00,
2013-06-20 12:20:00,77.7,34.7,29.32,WSW,248,8.5,9.8,21,0.00,,,0.00,VWS V14.01,2013-06-20 16:20:00,
2013-06-20 12:21:00,77.7,34.7,29.32,WSW,248,11.0,11.0,21,0.00,,,0.00,VWS V14.01,2013-06-20 16:21:00,
2013-06-20 12:22:00,77.7,34.7,29.32,West,270,8.7,11.0,21,0.00,,,0.00,VWS V14.01,2013-06-20 16:22:00,
2013-06-20 12:23:00,77.9,34.9,29.32,WSW,248,7.8,8.7,21,0.00,,,0.00,VWS V14.01,2013-06-20 16:23:00,
2013-06-20 12:24:00,77.9,34.9,29.32,WSW,248,7.8,7.8,21,0.00,,,0.00,VWS V14.01,2013-06-20 16:24:00,
2013-06-20 12:25:00,78.1,36.2,29.32,West,270,8.1,11.0,22,0.00,,,0.00,VWS V14.01,2013-06-20 16:25:00,
2013-06-20 12:26:00,78.6,36.6,29.32,West,270,7.2,7.2,22,0.00,,,0.00,VWS V14.01,2013-06-20 16:26:00,
2013-06-20 12:27:00,78.3,36.3,29.32,WSW,248,9.6,10.3,22,0.00,,,0.00,VWS V14.01,2013-06-20 16:27:00,
2013-06-20 12:28:00,78.3,36.3,29.32,WSW,248,9.6,9.6,22,0.00,,,0.00,VWS V14.01,2013-06-20 16:28:00,
2013-06-20 12:29:00,77.9,34.9,29.32,West,270,6.5,9.6,21,0.00,,,0.00,VWS V14.01,2013-06-20 16:29:00,
2013-06-20 12:30:00,77.9,34.9,29.32,SW,225,8.7,8.7,21,0.00,,,0.00,VWS V14.01,2013-06-20 16:30:00,
2013-06-20 12:31:00,78.1,36.2,29.32,West,270,6.3,6.3,22,0.00,,,0.00,VWS V14.01,2013-06-20 16:31:00,
2013-06-20 12:32:00,78.3,36.3,29.32,West,270,4.3,6.3,22,0.00,,,0.00,VWS V14.01,2013-06-20 16:32:00,
2013-06-20 12:33:00,78.3,36.3,29.32,WSW,248,8.5,8.5,22,0.00,,,0.00,VWS V14.01,2013-06-20 16:33:00,
2013-06-20 12:34:00,78.4,36.5,29.32,SW,225,4.3,10.3,22,0.00,,,0.00,VWS V14.01,2013-06-20 16:34:00,
2013-06-20 12:35:00,78.1,35.0,29.32,West,270,6.5,6.5,21,0.00,,,0.00,VWS V14.01,2013-06-20 16:35:00,
2013-06-20 12:36:00,78.4,36.5,29.32,SW,225,6.3,10.3,22,0.00,,,0.00,VWS V14.01,2013-06-20 16:36:00,
2013-06-20 12:37:00,78.3,36.3,29.32,SSE,158,4.3,6.3,22,0.00,,,0.00,VWS V14.01,2013-06-20 16:37:00,
2013-06-20 12:38:00,78.1,36.2,29.32,SW,225,6.9,14.1,22,0.00,,,0.00,VWS V14.01,2013-06-20 16:38:00,
2013-06-20 12:39:00,77.7,35.9,29.32,SW,225,8.7,8.7,22,0.00,,,0.00,VWS V14.01,2013-06-20 16:39:00,
2013-06-20 12:40:00,78.4,36.5,29.32,WSW,248,3.8,7.6,22,0.00,,,0.00,VWS V14.01,2013-06-20 16:40:00,
2013-06-20 12:41:00,77.9,36.0,29.32,SSW,202,7.4,8.1,22,0.00,,,0.00,VWS V14.01,2013-06-20 16:41:00,
2013-06-20 12:42:00,78.1,36.2,29.32,WSW,248,6.5,8.1,22,0.00,,,0.00,VWS V14.01,2013-06-20 16:42:00,
2013-06-20 12:43:00,77.9,36.0,29.32,WSW,248,7.6,8.7,22,0.00,,,0.00,VWS V14.01,2013-06-20 16:43:00,
2013-06-20 12:44:00,78.3,36.3,29.32,WSW,248,8.7,8.7,22,0.00,,,0.00,VWS V14.01,2013-06-20 16:44:00,
2013-06-20 12:45:00,77.7,35.9,29.32,WSW,248,6.3,9.8,22,0.00,,,0.00,VWS V14.01,2013-06-20 16:45:00,
2013-06-20 12:46:00,77.9,36.0,29.32,WSW,248,9.8,12.1,22,0.00,,,0.00,VWS V14.01,2013-06-20 16:46:00,
2013-06-20 12:47:00,78.4,36.5,29.32,SSW,202,6.0,9.8,22,0.00,,,0.00,VWS V14.01,2013-06-20 16:47:00,
2013-06-20 12:48:00,78.8,36.8,29.32,SSW,202,4.0,6.3,22,0.00,,,0.00,VWS V14.01,2013-06-20 16:48:00,
2013-06-20 12:49:00,79.2,37.1,29.32,WSW,248,10.3,10.3,22,0.00,,,0.00,VWS V14.01,2013-06-20 16:49:00,
2013-06-20 12:50:00,78.3,36.3,29.32,WSW,248,8.7,8.7,22,0.00,,,0.00,VWS V14.01,2013-06-20 16:50:00,
2013-06-20 12:51:00,79.2,37.1,29.32,WSW,248,8.7,10.1,22,0.00,,,0.00,VWS V14.01,2013-06-20 16:51:00,
2013-06-20 12:52:00,79.2,37.1,29.32,WSW,248,6.0,8.7,22,0.00,,,0.00,VWS V14.01,2013-06-20 16:52:00,
2013-06-20 12:53:00,79.2,37.1,29.32,SSW,202,7.6,7.6,22,0.00,,,0.00,VWS V14.01,2013-06-20 16:53:00,
2013-06-20 12:54:00,79.2,37.1,29.32,WSW,248,4.0,7.6,22,0.00,,,0.00,VWS V14.01,2013-06-20 16:54:00,
2013-06-20 12:55:00,79.0,36.9,29.32,WNW,292,6.0,10.3,22,0.00,,,0.00,VWS V14.01,2013-06-20 16:55:00,
2013-06-20 12:56:00,78.4,36.5,29.32,WNW,292,8.5,12.5,22,0.00,,,0.00,VWS V14.01,2013-06-20 16:56:00,
2013-06-20 12:57:00,78.6,36.6,29.32,WSW,248,8.1,9.4,22,0.00,,,0.00,VWS V14.01,2013-06-20 16:57:00,
2013-06-20 12:58:00,78.8,36.8,29.32,South,180,4.0,9.8,22,0.00,,,0.00,VWS V14.01,2013-06-20 16:58:00,
2013-06-20 12:59:00,79.3,37.2,29.32,West,270,8.7,8.7,22,0.00,,,0.00,VWS V14.01,2013-06-20 16:59:00,
2013-06-20 13:00:00,79.2,37.1,29.32,West,270,10.1,10.1,22,0.00,,,0.00,VWS V14.01,2013-06-20 17:00:00,
2013-06-20 13:01:00,79.2,37.1,29.32,WNW,292,6.0,6.5,22,0.00,,,0.00,VWS V14.01,2013-06-20 17:01:00,
2013-06-20 13:02:00,79.3,37.2,29.32,WSW,248,4.0,8.7,22,0.00,,,0.00,VWS V14.01,2013-06-20 17:02:00,
2013-06-20 13:03:00,79.7,38.7,29.32,WSW,248,5.6,7.2,23,0.00,,,0.00,VWS V14.01,2013-06-20 17:03:00,
2013-06-20 13:04:00,79.9,38.8,29.32,West,270,6.0,9.4,23,0.00,,,0.00,VWS V14.01,2013-06-20 17:04:00,
2013-06-20 13:05:00,78.4,36.5,29.32,West,270,8.5,17.5,22,0.00,,,0.00,VWS V14.01,2013-06-20 17:05:00,
2013-06-20 13:06:00,78.8,36.8,29.32,WSW,248,13.0,15.4,22,0.00,,,0.00,VWS V14.01,2013-06-20 17:06:00,
2013-06-20 13:07:00,78.8,36.8,29.32,SSE,158,7.6,13.0,22,0.00,,,0.00,VWS V14.01,2013-06-20 17:07:00,
2013-06-20 13:08:00,79.2,37.1,29.32,SW,225,4.3,7.6,22,0.00,,,0.00,VWS V14.01,2013-06-20 17:08:00,
2013-06-20 13:09:00,79.0,36.9,29.32,WSW,248,8.7,8.7,22,0.00,,,0.00,VWS V14.01,2013-06-20 17:09:00,
2013-06-20 13:10:00,79.5,37.4,29.32,West,270,10.5,10.7,22,0.00,,,0.00,VWS V14.01,2013-06-20 17:10:00,
2013-06-20 13:11:00,78.8,36.8,29.32,West,270,13.0,13.0,22,0.00,,,0.00,VWS V14.01,2013-06-20 17:11:00,
2013-06-20 13:12:00,78.8,36.8,29.32,WSW,248,8.7,13.0,22,0.00,,,0.00,VWS V14.01,2013-06-20 17:12:00,
2013-06-20 13:13:00,79.0,36.9,29.32,West,270,8.5,8.7,22,0.00,,,0.00,VWS V14.01,2013-06-20 17:13:00,
2013-06-20 13:14:00,78.8,36.8,29.32,West,270,8.5,8.5,22,0.00,,,0.00,VWS V14.01,2013-06-20 17:14:00,
2013-06-20 13:15:00,78.8,36.8,29.32,WSW,248,10.3,14.8,22,0.00,,,0.00,VWS V14.01,2013-06-20 17:15:00,
2013-06-20 13:16:00,78.8,36.8,29.32,WNW,292,11.0,11.0,22,0.00,,,0.00,VWS V14.01,2013-06-20 17:16:00,
2013-06-20 13:17:00,79.2,38.2,29.32,SW,225,6.5,11.0,23,0.00,,,0.00,VWS V14.01,2013-06-20 17:17:00,
2013-06-20 13:18:00,79.0,38.1,29.32,SW,225,9.6,10.5,23,0.00,,,0.00,VWS V14.01,2013-06-20 17:18:00,
2013-06-20 13:19:00,79.0,36.9,29.32,SW,225,8.5,10.1,22,0.00,,,0.00,VWS V14.01,2013-06-20 17:19:00,
2013-06-20 13:20:00,78.8,36.8,29.32,West,270,10.1,12.5,22,0.00,,,0.00,VWS V14.01,2013-06-20 17:20:00,
2013-06-20 13:21:00,79.3,38.4,29.32,WSW,248,7.6,7.6,23,0.00,,,0.00,VWS V14.01,2013-06-20 17:21:00,
2013-06-20 13:22:00,79.5,38.5,29.32,WSW,248,9.6,9.6,23,0.00,,,0.00,VWS V14.01,2013-06-20 17:22:00,
2013-06-20 13:23:00,79.5,38.5,29.32,WSW,248,4.9,9.6,23,0.00,,,0.00,VWS V14.01,2013-06-20 17:23:00,
2013-06-20 13:24:00,79.5,38.5,29.32,WSW,248,6.0,6.0,23,0.00,,,0.00,VWS V14.01,2013-06-20 17:24:00,
2013-06-20 13:25:00,79.2,37.1,29.32,SW,225,5.4,8.5,22,0.00,,,0.00,VWS V14.01,2013-06-20 17:25:00,
2013-06-20 13:26:00,79.7,38.7,29.32,WSW,248,9.4,9.4,23,0.00,,,0.00,VWS V14.01,2013-06-20 17:26:00,
2013-06-20 13:27:00,79.7,38.7,29.32,West,270,9.4,10.1,23,0.00,,,0.00,VWS V14.01,2013-06-20 17:27:00,
2013-06-20 13:28:00,79.3,37.2,29.32,West,270,9.8,10.3,22,0.00,,,0.00,VWS V14.01,2013-06-20 17:28:00,
2013-06-20 13:29:00,79.5,38.5,29.32,SW,225,7.6,9.8,23,0.00,,,0.00,VWS V14.01,2013-06-20 17:29:00,
2013-06-20 13:30:00,79.5,38.5,29.32,South,180,6.0,7.6,23,0.00,,,0.00,VWS V14.01,2013-06-20 17:30:00,
2013-06-20 13:31:00,79.3,38.4,29.32,WSW,248,8.1,10.7,23,0.00,,,0.00,VWS V14.01,2013-06-20 17:31:00,
2013-06-20 13:32:00,79.7,38.7,29.32,West,270,8.1,8.1,23,0.00,,,0.00,VWS V14.01,2013-06-20 17:32:00,
2013-06-20 13:33:00,79.7,38.7,29.32,WSW,248,2.7,8.1,23,0.00,,,0.00,VWS V14.01,2013-06-20 17:33:00,
2013-06-20 13:34:00,79.9,38.8,29.32,SW,225,6.7,7.4,23,0.00,,,0.00,VWS V14.01,2013-06-20 17:34:00,
2013-06-20 13:35:00,79.5,38.5,29.32,WSW,248,10.7,10.7,23,0.00,,,0.00,VWS V14.01,2013-06-20 17:35:00,
2013-06-20 13:36:00,79.9,38.8,29.32,WSW,248,6.3,6.5,23,0.00,,,0.00,VWS V14.01,2013-06-20 17:36:00,
2013-06-20 13:37:00,79.9,38.8,29.32,West,270,7.2,7.2,23,0.00,,,0.00,VWS V14.01,2013-06-20 17:37:00,
2013-06-20 13:38:00,79.9,38.8,29.32,WSW,248,7.4,7.4,23,0.00,,,0.00,VWS V14.01,2013-06-20 17:38:00,
2013-06-20 13:39:00,79.9,38.8,29.32,WSW,248,4.0,7.4,23,0.00,,,0.00,VWS V14.01,2013-06-20 17:39:00,
2013-06-20 13:40:00,79.9,38.8,29.32,SW,225,8.1,8.1,23,0.00,,,0.00,VWS V14.01,2013-06-20 17:40:00,
2013-06-20 13:41:00,80.4,39.3,29.32,WSW,248,4.0,6.5,23,0.00,,,0.00,VWS V14.01,2013-06-20 17:41:00,
2013-06-20 13:42:00,80.4,39.3,29.32,SW,225,4.3,6.3,23,0.00,,,0.00,VWS V14.01,2013-06-20 17:42:00,
2013-06-20 13:43:00,80.4,39.3,29.32,WSW,248,5.8,7.6,23,0.00,,,0.00,VWS V14.01,2013-06-20 17:43:00,
2013-06-20 13:44:00,80.6,39.4,29.32,SW,225,3.6,5.8,23,0.00,,,0.00,VWS V14.01,2013-06-20 17:44:00,
2013-06-20 13:45:00,80.2,39.1,29.32,SW,225,6.5,6.5,23,0.00,,,0.00,VWS V14.01,2013-06-20 17:45:00,
2013-06-20 13:46:00,80.8,39.6,29.32,WSW,248,10.5,10.5,23,0.00,,,0.00,VWS V14.01,2013-06-20 17:46:00,
2013-06-20 13:47:00,80.2,39.1,29.32,SSW,202,6.3,10.5,23,0.00,,,0.00,VWS V14.01,2013-06-20 17:47:00,
2013-06-20 13:48:00,80.2,39.1,29.32,SSE,158,4.9,6.3,23,0.00,,,0.00,VWS V14.01,2013-06-20 17:48:00,
2013-06-20 13:49:00,80.2,39.1,29.32,SSW,202,5.6,6.3,23,0.00,,,0.00,VWS V14.01,2013-06-20 17:49:00,
2013-06-20 13:50:00,81.0,39.7,29.32,West,270,5.8,5.8,23,0.00,,,0.00,VWS V14.01,2013-06-20 17:50:00,
2013-06-20 13:51:00,80.2,39.1,29.32,WSW,248,5.6,6.3,23,0.00,,,0.00,VWS V14.01,2013-06-20 17:51:00,
2013-06-20 13:52:00,80.1,39.0,29.32,WSW,248,4.7,5.8,23,0.00,,,0.00,VWS V14.01,2013-06-20 17:52:00,
2013-06-20 13:53:00,80.4,39.3,29.32,SSW,202,0.9,4.7,23,0.00,,,0.00,VWS V14.01,2013-06-20 17:53:00,
2013-06-20 13:54:00,81.3,40.0,29.32,WSW,248,6.3,6.3,23,0.00,,,0.00,VWS V14.01,2013-06-20 17:54:00,
2013-06-20 13:55:00,80.2,39.1,29.32,WSW,248,5.8,5.8,23,0.00,,,0.00,VWS V14.01,2013-06-20 17:55:00,
2013-06-20 13:56:00,82.2,39.6,29.32,WSW,248,1.6,6.5,22,0.00,,,0.00,VWS V14.01,2013-06-20 17:56:00,
2013-06-20 13:57:00,82.6,41.1,29.32,SW,225,4.9,4.9,23,0.00,,,0.00,VWS V14.01,2013-06-20 17:57:00,
2013-06-20 13:58:00,82.9,41.4,29.32,WSW,248,4.3,4.9,23,0.00,,,0.00,VWS V14.01,2013-06-20 17:58:00,
2013-06-20 13:59:00,82.6,39.9,29.32,WSW,248,6.5,10.5,22,0.00,,,0.00,VWS V14.01,2013-06-20 17:59:00,
2013-06-20 14:00:00,81.7,39.2,29.32,SW,225,5.8,6.3,22,0.00,,,0.00,VWS V14.01,2013-06-20 18:00:00,
2013-06-20 14:01:00,82.4,38.6,29.35,West,270,2.7,7.2,21,0.00,,,0.00,VWS V14.01,2013-06-20 18:01:00,
2013-06-20 14:02:00,82.0,39.5,29.35,SW,225,8.1,8.1,22,0.00,,,0.00,VWS V14.01,2013-06-20 18:02:00,
2013-06-20 14:03:00,81.9,39.3,29.35,West,270,8.5,8.5,22,0.00,,,0.00,VWS V14.01,2013-06-20 18:03:00,
2013-06-20 14:05:00,82.4,38.6,29.32,SW,225,7.2,7.2,21,0.00,,,0.00,VWS V14.01,2013-06-20 18:05:00,
2013-06-20 14:06:00,81.1,38.7,29.35,West,270,5.6,10.5,22,0.00,,,0.00,VWS V14.01,2013-06-20 18:06:00,
2013-06-20 14:07:00,81.3,38.9,29.35,WSW,248,7.6,7.6,22,0.00,,,0.00,VWS V14.01,2013-06-20 18:07:00,
2013-06-20 14:08:00,81.3,38.9,29.35,WSW,248,4.7,7.6,22,0.00,,,0.00,VWS V14.01,2013-06-20 18:08:00,
2013-06-20 14:09:00,81.5,39.0,29.35,SW,225,5.8,7.8,22,0.00,,,0.00,VWS V14.01,2013-06-20 18:09:00,
2013-06-20 14:10:00,81.7,39.2,29.35,SSW,202,2.7,5.8,22,0.00,,,0.00,VWS V14.01,2013-06-20 18:10:00,
2013-06-20 14:11:00,81.9,39.3,29.35,WSW,248,10.5,10.5,22,0.00,,,0.00,VWS V14.01,2013-06-20 18:11:00,
2013-06-20 14:13:00,82.0,39.5,29.35,South,180,4.0,4.0,22,0.00,,,0.00,VWS V14.01,2013-06-20 18:13:00,
2013-06-20 14:14:00,82.2,39.6,29.35,WSW,248,2.5,4.9,22,0.00,,,0.00,VWS V14.01,2013-06-20 18:14:00,
2013-06-20 14:15:00,82.0,39.5,29.35,WSW,248,5.8,8.1,22,0.00,,,0.00,VWS V14.01,2013-06-20 18:15:00,
2013-06-20 14:16:00,81.7,39.2,29.35,SSW,202,2.7,2.7,22,0.00,,,0.00,VWS V14.01,2013-06-20 18:16:00,
2013-06-20 14:17:00,81.9,39.3,29.32,WSW,248,6.5,7.2,22,0.00,,,0.00,VWS V14.01,2013-06-20 18:17:00,
2013-06-20 14:18:00,82.2,39.6,29.32,SW,225,6.0,6.5,22,0.00,,,0.00,VWS V14.01,2013-06-20 18:18:00,
2013-06-20 14:19:00,82.6,39.9,29.32,SSW,202,4.3,6.0,22,0.00,,,0.00,VWS V14.01,2013-06-20 18:19:00,
2013-06-20 14:20:00,82.8,40.1,29.32,SSW,202,2.5,4.3,22,0.00,,,0.00,VWS V14.01,2013-06-20 18:20:00,
2013-06-20 14:21:00,81.9,39.3,29.35,WSW,248,5.8,5.8,22,0.00,,,0.00,VWS V14.01,2013-06-20 18:21:00,
2013-06-20 14:22:00,82.8,40.1,29.32,SSE,158,4.3,7.4,22,0.00,,,0.00,VWS V14.01,2013-06-20 18:22:00,
2013-06-20 14:23:00,82.9,40.2,29.32,NW,315,2.5,6.0,22,0.00,,,0.00,VWS V14.01,2013-06-20 18:23:00,
2013-06-20 14:24:00,83.1,40.4,29.32,WSW,248,4.3,8.7,22,0.00,,,0.00,VWS V14.01,2013-06-20 18:24:00,
2013-06-20 14:25:00,82.8,40.1,29.32,SSW,202,5.6,7.8,22,0.00,,,0.00,VWS V14.01,2013-06-20 18:25:00,
2013-06-20 14:26:00,82.8,40.1,29.32,SSW,202,4.0,4.0,22,0.00,,,0.00,VWS V14.01,2013-06-20 18:26:00,
2013-06-20 14:27:00,82.8,40.1,29.32,WSW,248,4.3,6.5,22,0.00,,,0.00,VWS V14.01,2013-06-20 18:27:00,
2013-06-20 14:28:00,82.8,40.1,29.32,WSW,248,4.0,4.3,22,0.00,,,0.00,VWS V14.01,2013-06-20 18:28:00,
2013-06-20 14:29:00,82.9,39.0,29.32,WNW,292,5.6,5.8,21,0.00,,,0.00,VWS V14.01,2013-06-20 18:29:00,
2013-06-20 14:30:00,83.1,40.4,29.32,SSE,158,2.5,5.6,22,0.00,,,0.00,VWS V14.01,2013-06-20 18:30:00,
2013-06-20 14:31:00,82.8,40.1,29.32,SSW,202,5.6,5.6,22,0.00,,,0.00,VWS V14.01,2013-06-20 18:31:00,
2013-06-20 14:32:00,83.5,40.7,29.32,West,270,4.3,6.0,22,0.00,,,0.00,VWS V14.01,2013-06-20 18:32:00,
2013-06-20 14:33:00,83.7,42.0,29.32,West,270,3.1,5.6,23,0.00,,,0.00,VWS V14.01,2013-06-20 18:33:00,
2013-06-20 14:34:00,83.5,40.7,29.32,SE,135,6.5,6.5,22,0.00,,,0.00,VWS V14.01,2013-06-20 18:34:00,
2013-06-20 14:35:00,83.1,39.2,29.32,West,270,10.1,10.1,21,0.00,,,0.00,VWS V14.01,2013-06-20 18:35:00,
2013-06-20 14:36:00,83.1,40.4,29.32,SE,135,2.9,2.9,22,0.00,,,0.00,VWS V14.01,2013-06-20 18:36:00,
2013-06-20 14:37:00,82.6,39.9,29.32,WSW,248,6.5,8.1,22,0.00,,,0.00,VWS V14.01,2013-06-20 18:37:00,
2013-06-20 14:38:00,82.4,39.8,29.32,WSW,248,5.4,8.5,22,0.00,,,0.00,VWS V14.01,2013-06-20 18:38:00,
2013-06-20 14:39:00,82.4,39.8,29.32,SW,225,6.5,6.5,22,0.00,,,0.00,VWS V14.01,2013-06-20 18:39:00,
2013-06-20 14:40:00,82.4,39.8,29.32,WSW,248,5.4,6.5,22,0.00,,,0.00,VWS V14.01,2013-06-20 18:40:00,
2013-06-20 14:41:00,83.1,39.2,29.32,WSW,248,7.6,10.3,21,0.00,,,0.00,VWS V14.01,2013-06-20 18:41:00,
2013-06-20 14:44:00,82.8,41.2,29.32,WSW,248,6.0,6.0,23,0.00,,,0.00,VWS V14.01,2013-06-20 18:44:00,
2013-06-20 14:45:00,82.2,39.6,29.32,West,270,6.5,9.8,22,0.00,,,0.00,VWS V14.01,2013-06-20 18:45:00,
2013-06-20 14:46:00,82.4,39.8,29.32,WSW,248,5.4,6.5,22,0.00,,,0.00,VWS V14.01,2013-06-20 18:46:00,
2013-06-20 14:47:00,81.7,39.2,29.32,SW,225,7.4,7.8,22,0.00,,,0.00,VWS V14.01,2013-06-20 18:47:00,
2013-06-20 14:48:00,81.7,39.2,29.32,WSW,248,5.4,7.4,22,0.00,,,0.00,VWS V14.01,2013-06-20 18:48:00,
2013-06-20 14:49:00,81.7,39.2,29.32,WSW,248,6.0,6.3,22,0.00,,,0.00,VWS V14.01,2013-06-20 18:49:00,
2013-06-20 14:50:00,81.7,39.2,29.32,WSW,248,5.6,6.5,22,0.00,,,0.00,VWS V14.01,2013-06-20 18:50:00,
2013-06-20 14:51:00,82.2,39.6,29.32,WSW,248,5.6,7.2,22,0.00,,,0.00,VWS V14.01,2013-06-20 18:51:00,
2013-06-20 14:52:00,81.7,39.2,29.32,WSW,248,3.4,7.8,22,0.00,,,0.00,VWS V14.01,2013-06-20 18:52:00,
2013-06-20 14:53:00,81.7,39.2,29.32,West,270,0.9,3.8,22,0.00,,,0.00,VWS V14.01,2013-06-20 18:53:00,
2013-06-20 14:54:00,81.7,39.2,29.32,West,270,3.8,6.5,22,0.00,,,0.00,VWS V14.01,2013-06-20 18:54:00,
2013-06-20 14:55:00,82.2,41.9,29.32,WNW,292,4.0,4.3,24,0.00,,,0.00,VWS V14.01,2013-06-20 18:55:00,
2013-06-20 14:56:00,81.7,39.2,29.32,SW,225,4.0,5.6,22,0.00,,,0.00,VWS V14.01,2013-06-20 18:56:00,
2013-06-20 14:57:00,82.8,41.2,29.32,NW,315,0.0,0.0,23,0.00,,,0.00,VWS V14.01,2013-06-20 18:57:00,
2013-06-20 14:58:00,82.6,41.1,29.32,WNW,292,4.0,4.0,23,0.00,,,0.00,VWS V14.01,2013-06-20 18:58:00,
2013-06-20 14:59:00,82.0,41.7,29.32,NNW,338,0.0,4.0,24,0.00,,,0.00,VWS V14.01,2013-06-20 18:59:00,
2013-06-20 15:00:00,81.9,41.6,29.32,NE,45,0.0,1.3,24,0.00,,,0.00,VWS V14.01,2013-06-20 19:00:00,
2013-06-20 15:01:00,82.6,41.1,29.32,NW,315,1.1,4.9,23,0.00,,,0.00,VWS V14.01,2013-06-20 19:01:00,
2013-06-20 15:02:00,81.5,41.3,29.32,NNW,338,1.6,1.6,24,0.00,,,0.00,VWS V14.01,2013-06-20 19:02:00,
2013-06-20 15:03:00,80.8,40.7,29.32,WSW,248,2.0,2.5,24,0.00,,,0.00,VWS V14.01,2013-06-20 19:03:00,
2013-06-20 15:04:00,80.4,39.3,29.32,NNW,338,0.0,2.9,23,0.00,,,0.00,VWS V14.01,2013-06-20 19:04:00,
2013-06-20 15:05:00,80.8,40.7,29.32,WSW,248,0.0,1.1,24,0.00,,,0.00,VWS V14.01,2013-06-20 19:05:00,
2013-06-20 15:06:00,82.0,41.7,29.32,NW,315,0.9,0.9,24,0.00,,,0.00,VWS V14.01,2013-06-20 19:06:00,
2013-06-20 15:07:00,80.8,39.6,29.32,NNW,338,0.0,0.0,23,0.00,,,0.00,VWS V14.01,2013-06-20 19:07:00,
2013-06-20 15:08:00,80.8,39.6,29.32,WSW,248,2.9,2.9,23,0.00,,,0.00,VWS V14.01,2013-06-20 19:08:00,
2013-06-20 15:09:00,79.5,38.5,29.32,WSW,248,2.0,4.7,23,0.00,,,0.00,VWS V14.01,2013-06-20 19:09:00,
2013-06-20 15:10:00,79.0,39.2,29.32,WSW,248,2.2,2.2,24,0.00,,,0.00,VWS V14.01,2013-06-20 19:10:00,
2013-06-20 15:11:00,80.4,40.4,29.32,NNW,338,1.6,2.5,24,0.00,,,0.00,VWS V14.01,2013-06-20 19:11:00,
2013-06-20 15:12:00,79.0,38.1,29.32,NW,315,0.0,0.0,23,0.00,,,0.00,VWS V14.01,2013-06-20 19:12:00,
2013-06-20 15:13:00,79.0,38.1,29.32,NW,315,0.0,0.0,23,0.00,,,0.00,VWS V14.01,2013-06-20 19:13:00,
2013-06-20 15:14:00,79.7,39.8,29.32,North,0,0.0,0.0,24,0.00,,,0.00,VWS V14.01,2013-06-20 19:14:00,
2013-06-20 15:15:00,79.9,39.9,29.32,North,0,0.0,0.0,24,0.00,,,0.00,VWS V14.01,2013-06-20 19:15:00,
2013-06-20 15:16:00,79.0,39.2,29.32,WSW,248,0.0,2.2,24,0.00,,,0.00,VWS V14.01,2013-06-20 19:16:00,
2013-06-20 15:17:00,79.9,39.9,29.35,North,0,0.0,0.0,24,0.00,,,0.00,VWS V14.01,2013-06-20 19:17:00,
2013-06-20 15:18:00,80.6,40.5,29.35,North,0,0.0,0.0,24,0.00,,,0.00,VWS V14.01,2013-06-20 19:18:00,
2013-06-20 15:19:00,81.0,40.8,29.35,West,270,3.1,3.1,24,0.00,,,0.00,VWS V14.01,2013-06-20 19:19:00,
2013-06-20 15:20:00,81.1,39.9,29.35,West,270,2.9,3.1,23,0.00,,,0.00,VWS V14.01,2013-06-20 19:20:00,
2013-06-20 15:21:00,79.9,39.9,29.32,North,0,0.0,0.0,24,0.00,,,0.00,VWS V14.01,2013-06-20 19:21:00,
2013-06-20 15:22:00,80.6,39.4,29.35,WNW,292,0.0,2.7,23,0.00,,,0.00,VWS V14.01,2013-06-20 19:22:00,
2013-06-20 15:23:00,80.8,39.6,29.35,WNW,292,2.0,2.2,23,0.00,,,0.00,VWS V14.01,2013-06-20 19:23:00,
2013-06-20 15:24:00,80.8,39.6,29.35,WSW,248,2.7,3.4,23,0.00,,,0.00,VWS V14.01,2013-06-20 19:24:00,
2013-06-20 15:25:00,79.7,38.7,29.35,West,270,3.4,4.0,23,0.00,,,0.00,VWS V14.01,2013-06-20 19:25:00,
2013-06-20 15:26:00,80.6,39.4,29.35,WNW,292,2.2,3.6,23,0.00,,,0.00,VWS V14.01,2013-06-20 19:26:00,
2013-06-20 15:27:00,79.2,38.2,29.35,West,270,5.8,6.3,23,0.00,,,0.00,VWS V14.01,2013-06-20 19:27:00,
2013-06-20 15:28:00,79.5,38.5,29.35,West,270,3.1,5.8,23,0.00,,,0.00,VWS V14.01,2013-06-20 19:28:00,
2013-06-20 15:29:00,79.3,38.4,29.35,WNW,292,1.6,4.0,23,0.00,,,0.00,VWS V14.01,2013-06-20 19:29:00,
2013-06-20 15:30:00,79.9,38.8,29.35,West,270,5.8,5.8,23,0.00,,,0.00,VWS V14.01,2013-06-20 19:30:00,
2013-06-20 15:31:00,79.5,38.5,29.35,West,270,3.6,3.6,23,0.00,,,0.00,VWS V14.01,2013-06-20 19:31:00,
2013-06-20 15:32:00,80.1,37.8,29.32,West,270,1.3,3.8,22,0.00,,,0.00,VWS V14.01,2013-06-20 19:32:00,
2013-06-20 15:33:00,80.6,38.3,29.32,WNW,292,2.7,3.1,22,0.00,,,0.00,VWS V14.01,2013-06-20 19:33:00,
2013-06-20 15:34:00,81.0,38.6,29.32,NW,315,0.0,2.9,22,0.00,,,0.00,VWS V14.01,2013-06-20 19:34:00,
2013-06-20 15:35:00,81.5,40.2,29.32,WSW,248,3.4,3.4,23,0.00,,,0.00,VWS V14.01,2013-06-20 19:35:00,
2013-06-20 15:36:00,79.7,38.7,29.35,West,270,3.8,5.8,23,0.00,,,0.00,VWS V14.01,2013-06-20 19:36:00,
2013-06-20 15:37:00,81.5,39.0,29.32,WNW,292,3.4,3.8,22,0.00,,,0.00,VWS V14.01,2013-06-20 19:37:00,
2013-06-20 15:38:00,81.5,39.0,29.32,NW,315,0.9,3.4,22,0.00,,,0.00,VWS V14.01,2013-06-20 19:38:00,
2013-06-20 15:39:00,82.4,39.8,29.32,WNW,292,2.0,2.0,22,0.00,,,0.00,VWS V14.01,2013-06-20 19:39:00,
2013-06-20 15:40:00,82.8,40.1,29.32,WNW,292,1.6,2.0,22,0.00,,,0.00,VWS V14.01,2013-06-20 19:40:00,
2013-06-20 15:41:00,81.5,39.0,29.32,NW,315,2.2,3.6,22,0.00,,,0.00,VWS V14.01,2013-06-20 19:41:00,
2013-06-20 15:42:00,83.7,40.8,29.32,NW,315,0.9,0.9,22,0.00,,,0.00,VWS V14.01,2013-06-20 19:42:00,
2013-06-20 15:43:00,84.2,41.3,29.32,NW,315,0.9,1.1,22,0.00,,,0.00,VWS V14.01,2013-06-20 19:43:00,
2013-06-20 15:44:00,84.7,41.7,29.32,NW,315,0.0,0.9,22,0.00,,,0.00,VWS V14.01,2013-06-20 19:44:00,
2013-06-20 15:45:00,84.6,41.6,29.32,WNW,292,2.0,5.4,22,0.00,,,0.00,VWS V14.01,2013-06-20 19:45:00,
2013-06-20 15:46:00,82.8,40.1,29.32,West,270,0.9,1.6,22,0.00,,,0.00,VWS V14.01,2013-06-20 19:46:00,
2013-06-20 15:47:00,84.6,41.6,29.32,North,0,1.1,2.0,22,0.00,,,0.00,VWS V14.01,2013-06-20 19:47:00,
2013-06-20 15:48:00,84.9,40.7,29.32,WNW,292,0.0,1.3,21,0.00,,,0.00,VWS V14.01,2013-06-20 19:48:00,
2013-06-20 15:49:00,85.3,41.0,29.32,NNW,338,2.0,2.0,21,0.00,,,0.00,VWS V14.01,2013-06-20 19:49:00,
2013-06-20 15:50:00,85.3,41.0,29.32,NNW,338,2.0,2.0,21,0.00,,,0.00,VWS V14.01,2013-06-20 19:50:00,
2013-06-20 15:51:00,84.4,40.2,29.32,WNW,292,0.0,2.5,21,0.00,,,0.00,VWS V14.01,2013-06-20 19:51:00,
2013-06-20 15:52:00,85.1,40.8,29.32,West,270,2.9,2.9,21,0.00,,,0.00,VWS V14.01,2013-06-20 19:52:00,
2013-06-20 15:53:00,85.1,40.8,29.32,NNE,22,0.0,2.9,21,0.00,,,0.00,VWS V14.01,2013-06-20 19:53:00,
2013-06-20 15:54:00,85.1,40.8,29.32,NNE,22,0.0,0.0,21,0.00,,,0.00,VWS V14.01,2013-06-20 19:54:00,
2013-06-20 15:55:00,85.3,39.7,29.32,West,270,2.5,2.5,20,0.00,,,0.00,VWS V14.01,2013-06-20 19:55:00,
2013-06-20 15:56:00,85.3,41.0,29.32,WNW,292,2.5,3.4,21,0.00,,,0.00,VWS V14.01,2013-06-20 19:56:00,
2013-06-20 15:57:00,85.5,39.9,29.32,West,270,0.0,0.9,20,0.00,,,0.00,VWS V14.01,2013-06-20 19:57:00,
2013-06-20 15:58:00,85.6,41.3,29.32,WSW,248,4.3,4.3,21,0.00,,,0.00,VWS V14.01,2013-06-20 19:58:00,
2013-06-20 15:59:00,84.4,39.0,29.32,West,270,2.9,4.3,20,0.00,,,0.00,VWS V14.01,2013-06-20 19:59:00,
2013-06-20 16:00:00,84.6,39.1,29.32,West,270,2.9,2.9,20,0.00,,,0.00,VWS V14.01,2013-06-20 20:00:00,
2013-06-20 16:01:00,85.3,39.7,29.32,West,270,2.5,2.5,20,0.00,,,0.00,VWS V14.01,2013-06-20 20:01:00,
2013-06-20 16:02:00,84.6,39.1,29.29,West,270,4.9,4.9,20,0.00,,,0.00,VWS V14.01,2013-06-20 20:02:00,
2013-06-20 16:03:00,83.7,39.6,29.29,West,270,5.8,5.8,21,0.00,,,0.00,VWS V14.01,2013-06-20 20:03:00,
2013-06-20 16:04:00,82.8,38.9,29.29,WNW,292,7.8,7.8,21,0.00,,,0.00,VWS V14.01,2013-06-20 20:04:00,
2013-06-20 16:05:00,82.8,38.9,29.29,WNW,292,7.8,7.8,21,0.00,,,0.00,VWS V14.01,2013-06-20 20:05:00,
2013-06-20 16:06:00,84.6,39.1,29.29,WSW,248,3.6,3.6,20,0.00,,,0.00,VWS V14.01,2013-06-20 20:06:00,
2013-06-20 16:07:00,82.0,38.3,29.29,WNW,292,2.2,6.3,21,0.00,,,0.00,VWS V14.01,2013-06-20 20:07:00,
2013-06-20 16:08:00,82.9,39.0,29.29,WNW,292,2.7,2.7,21,0.00,,,0.00,VWS V14.01,2013-06-20 20:08:00,
2013-06-20 16:09:00,83.1,39.2,29.29,WNW,292,0.0,2.7,21,0.00,,,0.00,VWS V14.01,2013-06-20 20:09:00,
2013-06-20 16:10:00,83.7,39.6,29.29,WNW,292,0.9,1.3,21,0.00,,,0.00,VWS V14.01,2013-06-20 20:10:00,
2013-06-20 16:11:00,82.8,38.9,29.29,West,270,3.4,7.8,21,0.00,,,0.00,VWS V14.01,2013-06-20 20:11:00,
2013-06-20 16:12:00,84.6,40.4,29.29,West,270,3.1,3.1,21,0.00,,,0.00,VWS V14.01,2013-06-20 20:12:00,
2013-06-20 16:13:00,84.0,39.9,29.29,West,270,4.3,4.3,21,0.00,,,0.00,VWS V14.01,2013-06-20 20:13:00,
2013-06-20 16:14:00,84.0,39.9,29.29,West,270,3.4,6.5,21,0.00,,,0.00,VWS V14.01,2013-06-20 20:14:00,
2013-06-20 16:15:00,83.7,39.6,29.29,WSW,248,3.4,3.8,21,0.00,,,0.00,VWS V14.01,2013-06-20 20:15:00,
2013-06-20 16:16:00,84.7,40.5,29.29,WNW,292,0.0,0.0,21,0.00,,,0.00,VWS V14.01,2013-06-20 20:16:00,
2013-06-20 16:17:00,83.3,39.3,29.32,WSW,248,2.9,7.4,21,0.00,,,0.00,VWS V14.01,2013-06-20 20:17:00,
2013-06-20 16:18:00,84.4,40.2,29.32,WSW,248,2.5,3.6,21,0.00,,,0.00,VWS V14.01,2013-06-20 20:18:00,
2013-06-20 16:19:00,84.2,40.1,29.32,WSW,248,2.9,2.9,21,0.00,,,0.00,VWS V14.01,2013-06-20 20:19:00,
2013-06-20 16:20:00,84.0,39.9,29.32,West,270,5.4,5.4,21,0.00,,,0.00,VWS V14.01,2013-06-20 20:20:00,
2013-06-20 16:21:00,83.3,39.3,29.29,WSW,248,7.4,7.4,21,0.00,,,0.00,VWS V14.01,2013-06-20 20:21:00,
2013-06-20 16:22:00,83.8,39.8,29.32,West,270,3.6,4.9,21,0.00,,,0.00,VWS V14.01,2013-06-20 20:22:00,
2013-06-20 16:23:00,83.8,39.8,29.32,West,270,3.6,3.6,21,0.00,,,0.00,VWS V14.01,2013-06-20 20:23:00,
2013-06-20 16:24:00,83.8,39.8,29.32,West,270,3.6,3.6,21,0.00,,,0.00,VWS V14.01,2013-06-20 20:24:00,
2013-06-20 16:25:00,84.2,40.1,29.32,West,270,2.0,3.6,21,0.00,,,0.00,VWS V14.01,2013-06-20 20:25:00,
2013-06-20 16:26:00,83.8,39.8,29.32,WSW,248,4.9,4.9,21,0.00,,,0.00,VWS V14.01,2013-06-20 20:26:00,
2013-06-20 16:27:00,85.1,42.0,29.32,North,0,0.0,2.2,22,0.00,,,0.00,VWS V14.01,2013-06-20 20:27:00,
2013-06-20 16:29:00,85.6,42.5,29.32,North,0,1.6,1.6,22,0.00,,,0.00,VWS V14.01,2013-06-20 20:29:00,
2013-06-20 16:30:00,85.6,41.3,29.32,West,270,2.7,3.4,21,0.00,,,0.00,VWS V14.01,2013-06-20 20:30:00,
2013-06-20 16:31:00,84.6,40.4,29.32,North,0,2.2,2.2,21,0.00,,,0.00,VWS V14.01,2013-06-20 20:31:00,
2013-06-20 16:33:00,85.5,42.3,29.32,West,270,2.7,3.1,22,0.00,,,0.00,VWS V14.01,2013-06-20 20:33:00,
2013-06-20 16:34:00,85.8,42.6,29.32,West,270,1.1,2.7,22,0.00,,,0.00,VWS V14.01,2013-06-20 20:34:00,
2013-06-20 16:35:00,85.5,41.1,29.32,West,270,0.9,4.0,21,0.00,,,0.00,VWS V14.01,2013-06-20 20:35:00,
2013-06-20 16:36:00,85.8,41.4,29.32,West,270,2.9,2.9,21,0.00,,,0.00,VWS V14.01,2013-06-20 20:36:00,
2013-06-20 16:37:00,85.6,41.3,29.32,West,270,3.1,3.1,21,0.00,,,0.00,VWS V14.01,2013-06-20 20:37:00,
2013-06-20 16:38:00,85.5,41.1,29.32,West,270,3.6,3.6,21,0.00,,,0.00,VWS V14.01,2013-06-20 20:38:00,
2013-06-20 16:39:00,85.3,41.0,29.32,WNW,292,2.9,3.6,21,0.00,,,0.00,VWS V14.01,2013-06-20 20:39:00,
2013-06-20 16:40:00,85.3,41.0,29.32,WNW,292,0.9,3.8,21,0.00,,,0.00,VWS V14.01,2013-06-20 20:40:00,
2013-06-20 16:41:00,85.3,41.0,29.32,West,270,3.1,3.1,21,0.00,,,0.00,VWS V14.01,2013-06-20 20:41:00,
2013-06-20 16:42:00,85.8,41.4,29.32,West,270,1.6,2.9,21,0.00,,,0.00,VWS V14.01,2013-06-20 20:42:00,
2013-06-20 16:43:00,85.3,41.0,29.32,West,270,1.6,2.9,21,0.00,,,0.00,VWS V14.01,2013-06-20 20:43:00,
2013-06-20 16:44:00,84.9,40.7,29.32,West,270,5.8,5.8,21,0.00,,,0.00,VWS V14.01,2013-06-20 20:44:00,
2013-06-20 16:45:00,84.6,40.4,29.32,WNW,292,3.1,5.8,21,0.00,,,0.00,VWS V14.01,2013-06-20 20:45:00,
2013-06-20 16:46:00,84.6,40.4,29.32,NW,315,3.1,3.1,21,0.00,,,0.00,VWS V14.01,2013-06-20 20:46:00,
2013-06-20 16:47:00,85.1,40.8,29.32,WNW,292,3.6,3.6,21,0.00,,,0.00,VWS V14.01,2013-06-20 20:47:00,
2013-06-20 16:48:00,84.0,41.1,29.32,West,270,6.3,6.3,22,0.00,,,0.00,VWS V14.01,2013-06-20 20:48:00,
2013-06-20 16:49:00,84.0,41.1,29.32,West,270,3.6,6.3,22,0.00,,,0.00,VWS V14.01,2013-06-20 20:49:00,
2013-06-20 16:50:00,84.7,41.7,29.32,NNW,338,0.0,3.6,22,0.00,,,0.00,VWS V14.01,2013-06-20 20:50:00,
2013-06-20 16:51:00,85.5,42.3,29.32,NNW,338,1.3,1.3,22,0.00,,,0.00,VWS V14.01,2013-06-20 20:51:00,
2013-06-20 16:52:00,84.0,39.9,29.32,WSW,248,3.6,3.6,21,0.00,,,0.00,VWS V14.01,2013-06-20 20:52:00,
2013-06-20 16:53:00,85.5,42.3,29.32,WSW,248,0.0,4.0,22,0.00,,,0.00,VWS V14.01,2013-06-20 20:53:00,
2013-06-20 16:54:00,85.1,40.8,29.32,West,270,2.9,5.6,21,0.00,,,0.00,VWS V14.01,2013-06-20 20:54:00,
2013-06-20 16:55:00,84.6,40.4,29.32,West,270,2.9,2.9,21,0.00,,,0.00,VWS V14.01,2013-06-20 20:55:00,
2013-06-20 16:56:00,84.6,40.4,29.32,WSW,248,2.2,2.9,21,0.00,,,0.00,VWS V14.01,2013-06-20 20:56:00,
2013-06-20 16:57:00,85.5,42.3,29.32,NNW,338,2.5,3.1,22,0.00,,,0.00,VWS V14.01,2013-06-20 20:57:00,
2013-06-20 16:58:00,84.2,41.3,29.32,WSW,248,2.5,3.8,22,0.00,,,0.00,VWS V14.01,2013-06-20 20:58:00,
2013-06-20 16:59:00,84.4,41.4,29.32,WNW,292,1.1,2.9,22,0.00,,,0.00,VWS V14.01,2013-06-20 20:59:00,
2013-06-20 17:00:00,84.4,41.4,29.32,WNW,292,6.3,6.3,22,0.00,,,0.00,VWS V14.01,2013-06-20 21:00:00,
2013-06-20 17:01:00,83.7,39.6,29.32,SW,225,6.7,6.7,21,0.00,,,0.00,VWS V14.01,2013-06-20 21:01:00,
2013-06-20 17:02:00,85.1,42.0,29.32,NW,315,4.3,4.3,22,0.00,,,0.00,VWS V14.01,2013-06-20 21:02:00,
2013-06-20 17:03:00,83.7,39.6,29.32,West,270,7.6,7.6,21,0.00,,,0.00,VWS V14.01,2013-06-20 21:03:00,
2013-06-20 17:04:00,82.4,39.8,29.32,WSW,248,3.8,7.6,22,0.00,,,0.00,VWS V14.01,2013-06-20 21:04:00,
2013-06-20 17:05:00,82.8,40.1,29.32,WNW,292,7.4,7.4,22,0.00,,,0.00,VWS V14.01,2013-06-20 21:05:00,
2013-06-20 17:06:00,82.2,39.6,29.32,WSW,248,3.1,7.6,22,0.00,,,0.00,VWS V14.01,2013-06-20 21:06:00,
2013-06-20 17:07:00,83.7,39.6,29.32,SW,225,6.7,6.7,21,0.00,,,0.00,VWS V14.01,2013-06-20 21:07:00,
2013-06-20 17:08:00,82.6,38.7,29.32,West,270,7.4,7.4,21,0.00,,,0.00,VWS V14.01,2013-06-20 21:08:00,
2013-06-20 17:09:00,82.6,38.7,29.32,WSW,248,4.3,7.4,21,0.00,,,0.00,VWS V14.01,2013-06-20 21:09:00,
2013-06-20 17:10:00,82.6,38.7,29.32,WSW,248,4.3,4.3,21,0.00,,,0.00,VWS V14.01,2013-06-20 21:10:00,
2013-06-20 17:11:00,82.6,39.9,29.32,WNW,292,5.4,5.4,22,0.00,,,0.00,VWS V14.01,2013-06-20 21:11:00,
2013-06-20 17:12:00,82.2,39.6,29.32,WNW,292,6.3,6.3,22,0.00,,,0.00,VWS V14.01,2013-06-20 21:12:00,
2013-06-20 17:13:00,82.2,39.6,29.32,WSW,248,6.0,6.5,22,0.00,,,0.00,VWS V14.01,2013-06-20 21:13:00,
2013-06-20 17:14:00,81.9,39.3,29.32,WSW,248,4.3,6.3,22,0.00,,,0.00,VWS V14.01,2013-06-20 21:14:00,
2013-06-20 17:15:00,81.9,39.3,29.32,WSW,248,2.5,4.3,22,0.00,,,0.00,VWS V14.01,2013-06-20 21:15:00,
2013-06-20 17:16:00,81.9,39.3,29.29,SW,225,2.0,2.5,22,0.00,,,0.00,VWS V14.01,2013-06-20 21:16:00,
2013-06-20 17:17:00,82.6,39.9,29.32,West,270,3.4,5.4,22,0.00,,,0.00,VWS V14.01,2013-06-20 21:17:00,
2013-06-20 17:18:00,82.8,40.1,29.29,West,270,2.5,3.6,22,0.00,,,0.00,VWS V14.01,2013-06-20 21:18:00,
2013-06-20 17:19:00,82.8,40.1,29.29,WSW,248,4.9,5.6,22,0.00,,,0.00,VWS V14.01,2013-06-20 21:19:00,
2013-06-20 17:20:00,82.9,40.2,29.29,West,270,2.5,4.9,22,0.00,,,0.00,VWS V14.01,2013-06-20 21:20:00,
2013-06-20 17:21:00,82.9,40.2,29.29,West,270,2.0,4.3,22,0.00,,,0.00,VWS V14.01,2013-06-20 21:21:00,
2013-06-20 17:22:00,82.9,41.4,29.29,WSW,248,4.3,4.3,23,0.00,,,0.00,VWS V14.01,2013-06-20 21:22:00,
2013-06-20 17:23:00,84.0,41.1,29.29,WNW,292,0.0,3.6,22,0.00,,,0.00,VWS V14.01,2013-06-20 21:23:00,
2013-06-20 17:24:00,84.7,41.7,29.29,WNW,292,0.0,0.0,22,0.00,,,0.00,VWS V14.01,2013-06-20 21:24:00,
2013-06-20 17:25:00,85.1,42.0,29.29,West,270,3.1,3.1,22,0.00,,,0.00,VWS V14.01,2013-06-20 21:25:00,
2013-06-20 17:26:00,83.8,39.8,29.29,WSW,248,4.0,5.4,21,0.00,,,0.00,VWS V14.01,2013-06-20 21:26:00,
2013-06-20 17:27:00,82.9,40.2,29.29,WNW,292,0.0,2.0,22,0.00,,,0.00,VWS V14.01,2013-06-20 21:27:00,
2013-06-20 17:28:00,84.0,41.1,29.29,West,270,2.0,4.0,22,0.00,,,0.00,VWS V14.01,2013-06-20 21:28:00,
2013-06-20 17:29:00,84.0,41.1,29.29,West,270,4.0,4.0,22,0.00,,,0.00,VWS V14.01,2013-06-20 21:29:00,
2013-06-20 17:30:00,84.0,41.1,29.29,WNW,292,3.4,5.4,22,0.00,,,0.00,VWS V14.01,2013-06-20 21:30:00,
2013-06-20 17:31:00,83.7,40.8,29.32,West,270,3.8,3.8,22,0.00,,,0.00,VWS V14.01,2013-06-20 21:31:00,
2013-06-20 17:32:00,83.8,39.8,29.29,WNW,292,3.1,5.8,21,0.00,,,0.00,VWS V14.01,2013-06-20 21:32:00,
2013-06-20 17:33:00,84.4,41.4,29.32,WNW,292,3.1,4.0,22,0.00,,,0.00,VWS V14.01,2013-06-20 21:33:00,
2013-06-20 17:34:00,84.6,41.6,29.32,WNW,292,1.6,3.1,22,0.00,,,0.00,VWS V14.01,2013-06-20 21:34:00,
2013-06-20 17:35:00,84.6,41.6,29.32,WNW,292,1.3,1.6,22,0.00,,,0.00,VWS V14.01,2013-06-20 21:35:00,
2013-06-20 17:36:00,85.1,43.2,29.32,West,270,2.7,2.7,23,0.00,,,0.00,VWS V14.01,2013-06-20 21:36:00,
2013-06-20 17:37:00,84.0,41.1,29.32,WNW,292,2.7,3.8,22,0.00,,,0.00,VWS V14.01,2013-06-20 21:37:00,
2013-06-20 17:38:00,85.1,43.2,29.32,West,270,0.0,0.9,23,0.00,,,0.00,VWS V14.01,2013-06-20 21:38:00,
2013-06-20 17:39:00,85.8,42.6,29.32,West,270,1.6,2.5,22,0.00,,,0.00,VWS V14.01,2013-06-20 21:39:00,
2013-06-20 17:40:00,85.8,42.6,29.32,WNW,292,0.0,1.6,22,0.00,,,0.00,VWS V14.01,2013-06-20 21:40:00,
2013-06-20 17:41:00,85.8,42.6,29.32,WNW,292,3.4,3.4,22,0.00,,,0.00,VWS V14.01,2013-06-20 21:41:00,
2013-06-20 17:42:00,85.1,43.2,29.32,North,0,0.9,2.9,23,0.00,,,0.00,VWS V14.01,2013-06-20 21:42:00,
2013-06-20 17:43:00,84.9,41.9,29.32,West,270,3.6,3.6,22,0.00,,,0.00,VWS V14.01,2013-06-20 21:43:00,
2013-06-20 17:44:00,84.9,41.9,29.32,West,270,3.6,3.6,22,0.00,,,0.00,VWS V14.01,2013-06-20 21:44:00,
2013-06-20 17:45:00,85.6,42.5,29.32,North,0,3.6,3.6,22,0.00,,,0.00,VWS V14.01,2013-06-20 21:45:00,
2013-06-20 17:46:00,85.1,42.0,29.29,West,270,1.3,3.6,22,0.00,,,0.00,VWS V14.01,2013-06-20 21:46:00,
2013-06-20 17:47:00,85.3,42.2,29.32,West,270,2.5,3.4,22,0.00,,,0.00,VWS V14.01,2013-06-20 21:47:00,
2013-06-20 17:48:00,85.1,42.0,29.29,West,270,1.1,2.2,22,0.00,,,0.00,VWS V14.01,2013-06-20 21:48:00,
2013-06-20 17:49:00,83.7,40.8,29.29,WNW,292,4.0,4.0,22,0.00,,,0.00,VWS V14.01,2013-06-20 21:49:00,
2013-06-20 17:50:00,83.7,40.8,29.29,WSW,248,1.3,4.0,22,0.00,,,0.00,VWS V14.01,2013-06-20 21:50:00,
2013-06-20 17:51:00,83.3,40.5,29.29,WSW,248,2.7,5.4,22,0.00,,,0.00,VWS V14.01,2013-06-20 21:51:00,
2013-06-20 17:52:00,85.3,42.2,29.29,West,270,1.6,4.0,22,0.00,,,0.00,VWS V14.01,2013-06-20 21:52:00,
2013-06-20 17:53:00,82.9,40.2,29.29,North,0,1.1,2.5,22,0.00,,,0.00,VWS V14.01,2013-06-20 21:53:00,
2013-06-20 17:54:00,82.9,40.2,29.29,WNW,292,2.0,2.5,22,0.00,,,0.00,VWS V14.01,2013-06-20 21:54:00,
2013-06-20 17:55:00,82.9,40.2,29.29,WNW,292,2.0,2.0,22,0.00,,,0.00,VWS V14.01,2013-06-20 21:55:00,
2013-06-20 17:56:00,82.9,40.2,29.29,WNW,292,2.0,2.0,22,0.00,,,0.00,VWS V14.01,2013-06-20 21:56:00,
2013-06-20 17:57:00,82.9,40.2,29.29,WSW,248,2.5,2.7,22,0.00,,,0.00,VWS V14.01,2013-06-20 21:57:00,
2013-06-20 17:58:00,82.8,40.1,29.29,NNW,338,3.1,3.1,22,0.00,,,0.00,VWS V14.01,2013-06-20 21:58:00,
2013-06-20 17:59:00,82.0,40.6,29.29,WSW,248,2.5,3.1,23,0.00,,,0.00,VWS V14.01,2013-06-20 21:59:00,
2013-06-20 18:00:00,82.0,40.6,29.29,WNW,292,3.4,3.4,23,0.00,,,0.00,VWS V14.01,2013-06-20 22:00:00,
2013-06-20 18:01:00,82.0,40.6,29.29,North,0,2.5,3.4,23,0.00,,,0.00,VWS V14.01,2013-06-20 22:01:00,
2013-06-20 18:02:00,82.4,39.8,29.29,NW,315,1.1,2.7,22,0.00,,,0.00,VWS V14.01,2013-06-20 22:02:00,
2013-06-20 18:03:00,82.0,40.6,29.29,WNW,292,0.0,6.5,23,0.00,,,0.00,VWS V14.01,2013-06-20 22:03:00,
2013-06-20 18:04:00,81.5,40.2,29.29,WSW,248,4.0,4.0,23,0.00,,,0.00,VWS V14.01,2013-06-20 22:04:00,
2013-06-20 18:06:00,80.8,39.6,29.29,WSW,248,6.7,6.7,23,0.00,,,0.00,VWS V14.01,2013-06-20 22:06:00,
2013-06-20 18:07:00,82.0,40.6,29.29,North,0,2.5,3.4,23,0.00,,,0.00,VWS V14.01,2013-06-20 22:07:00,
2013-06-20 18:08:00,80.2,39.1,29.29,WSW,248,4.0,5.6,23,0.00,,,0.00,VWS V14.01,2013-06-20 22:08:00,
2013-06-20 18:09:00,80.2,39.1,29.29,WSW,248,3.6,4.0,23,0.00,,,0.00,VWS V14.01,2013-06-20 22:09:00,
2013-06-20 18:10:00,80.2,39.1,29.29,SW,225,6.0,6.0,23,0.00,,,0.00,VWS V14.01,2013-06-20 22:10:00,
2013-06-20 18:11:00,80.2,40.2,29.29,West,270,5.4,6.3,24,0.00,,,0.00,VWS V14.01,2013-06-20 22:11:00,
2013-06-20 18:12:00,80.2,39.1,29.29,WSW,248,7.8,7.8,23,0.00,,,0.00,VWS V14.01,2013-06-20 22:12:00,
2013-06-20 18:13:00,80.1,40.1,29.29,WNW,292,3.4,5.8,24,0.00,,,0.00,VWS V14.01,2013-06-20 22:13:00,
2013-06-20 18:14:00,80.1,40.1,29.29,WNW,292,4.3,4.3,24,0.00,,,0.00,VWS V14.01,2013-06-20 22:14:00,
2013-06-20 18:15:00,80.1,40.1,29.29,WNW,292,4.3,4.3,24,0.00,,,0.00,VWS V14.01,2013-06-20 22:15:00,
2013-06-20 18:16:00,80.1,41.1,29.29,West,270,3.4,6.0,25,0.00,,,0.00,VWS V14.01,2013-06-20 22:16:00,
2013-06-20 18:17:00,79.9,39.9,29.29,West,270,2.5,5.4,24,0.00,,,0.00,VWS V14.01,2013-06-20 22:17:00,
2013-06-20 18:18:00,80.1,41.1,29.29,WSW,248,3.1,4.3,25,0.00,,,0.00,VWS V14.01,2013-06-20 22:18:00,
2013-06-20 18:19:00,80.1,41.1,29.29,WSW,248,3.1,3.1,25,0.00,,,0.00,VWS V14.01,2013-06-20 22:19:00,
2013-06-20 18:20:00,80.8,40.7,29.29,WSW,248,3.8,4.3,24,0.00,,,0.00,VWS V14.01,2013-06-20 22:20:00,
2013-06-20 18:21:00,81.0,41.9,29.29,WSW,248,2.0,5.4,25,0.00,,,0.00,VWS V14.01,2013-06-20 22:21:00,
2013-06-20 18:22:00,80.2,41.3,29.29,WSW,248,6.0,6.0,25,0.00,,,0.00,VWS V14.01,2013-06-20 22:22:00,
2013-06-20 18:23:00,81.7,42.5,29.29,West,270,3.1,3.4,25,0.00,,,0.00,VWS V14.01,2013-06-20 22:23:00,
2013-06-20 18:24:00,81.7,42.5,29.29,WSW,248,5.6,5.6,25,0.00,,,0.00,VWS V14.01,2013-06-20 22:24:00,
2013-06-20 18:25:00,81.0,40.8,29.29,WSW,248,4.5,5.6,24,0.00,,,0.00,VWS V14.01,2013-06-20 22:25:00,
2013-06-20 18:26:00,80.8,40.7,29.29,West,270,2.0,4.5,24,0.00,,,0.00,VWS V14.01,2013-06-20 22:26:00,
2013-06-20 18:27:00,81.3,42.2,29.29,WSW,248,1.1,2.0,25,0.00,,,0.00,VWS V14.01,2013-06-20 22:27:00,
2013-06-20 18:28:00,82.0,42.8,29.29,SW,225,1.6,1.6,25,0.00,,,0.00,VWS V14.01,2013-06-20 22:28:00,
2013-06-20 18:29:00,82.0,42.8,29.29,West,270,0.0,2.5,25,0.00,,,0.00,VWS V14.01,2013-06-20 22:29:00,
2013-06-20 18:30:00,82.6,43.2,29.29,WNW,292,1.6,2.7,25,0.00,,,0.00,VWS V14.01,2013-06-20 22:30:00,
2013-06-20 18:31:00,82.9,43.5,29.29,WNW,292,0.0,1.6,25,0.00,,,0.00,VWS V14.01,2013-06-20 22:31:00,
2013-06-20 18:32:00,80.8,40.7,29.29,West,270,0.0,2.0,24,0.00,,,0.00,VWS V14.01,2013-06-20 22:32:00,
2013-06-20 18:33:00,82.9,43.5,29.29,WSW,248,2.2,2.9,25,0.00,,,0.00,VWS V14.01,2013-06-20 22:33:00,
2013-06-20 18:34:00,82.6,43.2,29.29,WNW,292,0.9,3.1,25,0.00,,,0.00,VWS V14.01,2013-06-20 22:34:00,
2013-06-20 18:36:00,82.2,42.9,29.29,WSW,248,5.6,5.6,25,0.00,,,0.00,VWS V14.01,2013-06-20 22:36:00,
2013-06-20 18:37:00,82.9,43.5,29.29,WSW,248,2.2,2.9,25,0.00,,,0.00,VWS V14.01,2013-06-20 22:37:00,
2013-06-20 18:38:00,82.2,42.9,29.29,West,270,4.9,4.9,25,0.00,,,0.00,VWS V14.01,2013-06-20 22:38:00,
2013-06-20 18:39:00,81.3,41.1,29.29,WNW,292,3.8,5.4,24,0.00,,,0.00,VWS V14.01,2013-06-20 22:39:00,
2013-06-20 18:40:00,81.3,41.1,29.29,WNW,292,2.9,3.8,24,0.00,,,0.00,VWS V14.01,2013-06-20 22:40:00,
2013-06-20 18:41:00,81.3,41.1,29.29,North,0,0.0,2.9,24,0.00,,,0.00,VWS V14.01,2013-06-20 22:41:00,
2013-06-20 18:42:00,82.0,41.7,29.29,WNW,292,0.9,5.6,24,0.00,,,0.00,VWS V14.01,2013-06-20 22:42:00,
2013-06-20 18:43:00,81.9,43.7,29.29,NNW,338,0.0,2.0,26,0.00,,,0.00,VWS V14.01,2013-06-20 22:43:00,
2013-06-20 18:44:00,82.0,43.8,29.29,NNW,338,0.0,0.0,26,0.00,,,0.00,VWS V14.01,2013-06-20 22:44:00,
2013-06-20 18:45:00,82.4,44.1,29.29,NNW,338,0.0,0.0,26,0.00,,,0.00,VWS V14.01,2013-06-20 22:45:00,
2013-06-20 18:46:00,82.4,44.1,29.26,NNW,338,1.1,2.5,26,0.00,,,0.00,VWS V14.01,2013-06-20 22:46:00,
2013-06-20 18:47:00,81.7,43.5,29.29,NNW,338,0.0,0.0,26,0.00,,,0.00,VWS V14.01,2013-06-20 22:47:00,
2013-06-20 18:49:00,82.6,44.3,29.26,NNW,338,0.0,0.0,26,0.00,,,0.00,VWS V14.01,2013-06-20 22:49:00,
2013-06-20 18:50:00,82.2,44.9,29.26,NNW,338,0.0,0.0,27,0.00,,,0.00,VWS V14.01,2013-06-20 22:50:00,
2013-06-20 18:51:00,82.0,44.8,29.26,NNW,338,0.0,0.0,27,0.00,,,0.00,VWS V14.01,2013-06-20 22:51:00,
2013-06-20 18:52:00,82.4,44.1,29.26,NNW,338,0.0,1.1,26,0.00,,,0.00,VWS V14.01,2013-06-20 22:52:00,
2013-06-20 18:53:00,82.4,44.1,29.26,North,0,2.2,2.2,26,0.00,,,0.00,VWS V14.01,2013-06-20 22:53:00,
2013-06-20 18:54:00,82.6,44.3,29.26,North,0,0.0,2.2,26,0.00,,,0.00,VWS V14.01,2013-06-20 22:54:00,
2013-06-20 18:55:00,82.6,44.3,29.26,North,0,0.0,0.0,26,0.00,,,0.00,VWS V14.01,2013-06-20 22:55:00,
2013-06-20 18:56:00,82.9,44.6,29.26,North,0,0.0,0.0,26,0.00,,,0.00,VWS V14.01,2013-06-20 22:56:00,
2013-06-20 18:57:00,82.4,44.1,29.26,NNW,338,0.0,0.0,26,0.00,,,0.00,VWS V14.01,2013-06-20 22:57:00,
2013-06-20 18:58:00,82.6,44.3,29.26,NNE,22,0.9,1.3,26,0.00,,,0.00,VWS V14.01,2013-06-20 22:58:00,
2013-06-20 18:59:00,82.6,44.3,29.26,NNE,22,0.0,0.9,26,0.00,,,0.00,VWS V14.01,2013-06-20 22:59:00,
2013-06-20 19:00:00,82.6,44.3,29.26,NNE,22,0.0,0.0,26,0.00,,,0.00,VWS V14.01,2013-06-20 23:00:00,
2013-06-20 19:01:00,82.0,43.8,29.26,NNE,22,0.0,0.0,26,0.00,,,0.00,VWS V14.01,2013-06-20 23:01:00,
2013-06-20 19:02:00,82.6,44.3,29.26,NNE,22,0.0,2.7,26,0.00,,,0.00,VWS V14.01,2013-06-20 23:02:00,
2013-06-20 19:03:00,82.0,43.8,29.26,NNE,22,0.0,0.0,26,0.00,,,0.00,VWS V14.01,2013-06-20 23:03:00,
2013-06-20 19:04:00,81.5,43.3,29.26,WSW,248,0.0,2.5,26,0.00,,,0.00,VWS V14.01,2013-06-20 23:04:00,
2013-06-20 19:05:00,81.1,43.0,29.26,NW,315,0.0,0.9,26,0.00,,,0.00,VWS V14.01,2013-06-20 23:05:00,
2013-06-20 19:06:00,81.0,42.9,29.26,NW,315,0.9,0.9,26,0.00,,,0.00,VWS V14.01,2013-06-20 23:06:00,
2013-06-20 19:07:00,82.0,43.8,29.26,NNE,22,0.0,0.0,26,0.00,,,0.00,VWS V14.01,2013-06-20 23:07:00,
2013-06-20 19:08:00,80.1,42.1,29.26,WNW,292,0.0,2.2,26,0.00,,,0.00,VWS V14.01,2013-06-20 23:08:00,
2013-06-20 19:09:00,80.2,42.3,29.26,WNW,292,0.0,0.0,26,0.00,,,0.00,VWS V14.01,2013-06-20 23:09:00,
2013-06-20 19:10:00,80.2,42.3,29.26,WNW,292,0.0,0.0,26,0.00,,,0.00,VWS V14.01,2013-06-20 23:10:00,
2013-06-20 19:11:00,80.2,42.3,29.26,WNW,292,0.0,0.0,26,0.00,,,0.00,VWS V14.01,2013-06-20 23:11:00,
2013-06-20 19:12:00,80.4,42.4,29.26,NNW,338,2.2,2.2,26,0.00,,,0.00,VWS V14.01,2013-06-20 23:12:00,
2013-06-20 19:13:00,80.2,42.3,29.26,NW,315,0.0,1.1,26,0.00,,,0.00,VWS V14.01,2013-06-20 23:13:00,
2013-06-20 19:14:00,79.7,42.8,29.26,NW,315,0.0,0.0,27,0.00,,,0.00,VWS V14.01,2013-06-20 23:14:00,
2013-06-20 19:15:00,79.7,42.8,29.26,NW,315,0.0,0.0,27,0.00,,,0.00,VWS V14.01,2013-06-20 23:15:00,
2013-06-20 19:16:00,79.7,42.8,29.29,NW,315,0.0,0.0,27,0.00,,,0.00,VWS V14.01,2013-06-20 23:16:00,
2013-06-20 19:17:00,80.2,42.3,29.26,NW,315,0.0,1.1,26,0.00,,,0.00,VWS V14.01,2013-06-20 23:17:00,
2013-06-20 19:18:00,79.7,42.8,29.29,WSW,248,1.1,1.1,27,0.00,,,0.00,VWS V14.01,2013-06-20 23:18:00,
2013-06-20 19:19:00,79.7,42.8,29.29,North,0,0.0,2.7,27,0.00,,,0.00,VWS V14.01,2013-06-20 23:19:00,
2013-06-20 19:20:00,79.7,42.8,29.29,North,0,0.0,0.0,27,0.00,,,0.00,VWS V14.01,2013-06-20 23:20:00,
2013-06-20 19:21:00,78.4,42.7,29.29,North,0,0.0,1.1,28,0.00,,,0.00,VWS V14.01,2013-06-20 23:21:00,
2013-06-20 19:22:00,79.7,42.8,29.29,NW,315,0.0,0.9,27,0.00,,,0.00,VWS V14.01,2013-06-20 23:22:00,
2013-06-20 19:23:00,77.5,41.0,29.29,North,0,0.9,0.9,27,0.00,,,0.00,VWS V14.01,2013-06-20 23:23:00,
2013-06-20 19:24:00,77.5,41.0,29.29,NNW,338,0.9,0.9,27,0.00,,,0.00,VWS V14.01,2013-06-20 23:24:00,
2013-06-20 19:25:00,77.2,40.7,29.29,NNW,338,0.0,1.6,27,0.00,,,0.00,VWS V14.01,2013-06-20 23:25:00,
2013-06-20 19:26:00,76.8,41.3,29.29,NNW,338,0.0,0.0,28,0.00,,,0.00,VWS V14.01,2013-06-20 23:26:00,
2013-06-20 19:27:00,78.4,42.7,29.29,North,0,0.0,0.0,28,0.00,,,0.00,VWS V14.01,2013-06-20 23:27:00,
2013-06-20 19:28:00,76.1,40.7,29.29,NNW,338,0.0,0.0,28,0.00,,,0.00,VWS V14.01,2013-06-20 23:28:00,
2013-06-20 19:29:00,76.1,40.7,29.29,NNW,338,1.1,1.1,28,0.00,,,0.00,VWS V14.01,2013-06-20 23:29:00,
2013-06-20 19:30:00,76.1,40.7,29.29,West,270,3.1,3.1,28,0.00,,,0.00,VWS V14.01,2013-06-20 23:30:00,
2013-06-20 19:31:00,74.3,40.0,29.29,West,270,2.5,3.4,29,0.00,,,0.00,VWS V14.01,2013-06-20 23:31:00,
2013-06-20 19:32:00,76.5,41.0,29.29,NNW,338,0.0,0.0,28,0.00,,,0.00,VWS V14.01,2013-06-20 23:32:00,
2013-06-20 19:33:00,74.1,40.7,29.29,West,270,0.0,1.1,30,0.00,,,0.00,VWS V14.01,2013-06-20 23:33:00,
2013-06-20 19:34:00,74.1,40.7,29.29,West,270,0.0,0.0,30,0.00,,,0.00,VWS V14.01,2013-06-20 23:34:00,
2013-06-20 19:35:00,74.1,40.7,29.29,West,270,0.0,0.0,30,0.00,,,0.00,VWS V14.01,2013-06-20 23:35:00,
2013-06-20 19:36:00,73.9,41.4,29.29,West,270,2.0,3.8,31,0.00,,,0.00,VWS V14.01,2013-06-20 23:36:00,
2013-06-20 19:37:00,73.8,41.3,29.29,WSW,248,2.5,2.7,31,0.00,,,0.00,VWS V14.01,2013-06-20 23:37:00,
2013-06-20 19:38:00,74.1,39.9,29.29,WNW,292,1.1,1.1,29,0.00,,,0.00,VWS V14.01,2013-06-20 23:38:00,
2013-06-20 19:39:00,73.2,41.6,29.29,NW,315,0.9,3.6,32,0.00,,,0.00,VWS V14.01,2013-06-20 23:39:00,
2013-06-20 19:40:00,73.2,41.6,29.29,WNW,292,0.9,2.7,32,0.00,,,0.00,VWS V14.01,2013-06-20 23:40:00,
2013-06-20 19:41:00,73.2,41.6,29.29,WNW,292,2.0,2.5,32,0.00,,,0.00,VWS V14.01,2013-06-20 23:41:00,
2013-06-20 19:42:00,72.9,41.3,29.29,West,270,0.0,2.0,32,0.00,,,0.00,VWS V14.01,2013-06-20 23:42:00,
2013-06-20 19:43:00,73.8,41.3,29.29,WNW,292,3.1,3.1,31,0.00,,,0.00,VWS V14.01,2013-06-20 23:43:00,
2013-06-20 19:44:00,72.9,41.3,29.29,WNW,292,0.0,2.5,32,0.00,,,0.00,VWS V14.01,2013-06-20 23:44:00,
2013-06-20 19:45:00,72.3,40.8,29.29,West,270,0.0,0.9,32,0.00,,,0.00,VWS V14.01,2013-06-20 23:45:00,
2013-06-20 19:46:00,72.0,40.5,29.29,WNW,292,2.7,2.7,32,0.00,,,0.00,VWS V14.01,2013-06-20 23:46:00,
2013-06-20 19:47:00,71.8,40.4,29.29,WSW,248,2.5,2.7,32,0.00,,,0.00,VWS V14.01,2013-06-20 23:47:00,
2013-06-20 19:48:00,73.0,41.5,29.29,West,270,0.0,2.0,32,0.00,,,0.00,VWS V14.01,2013-06-20 23:48:00,
2013-06-20 19:49:00,71.4,40.0,29.29,WSW,248,1.6,2.2,32,0.00,,,0.00,VWS V14.01,2013-06-20 23:49:00,
2013-06-20 19:50:00,70.7,40.2,29.29,WSW,248,1.1,1.6,33,0.00,,,0.00,VWS V14.01,2013-06-20 23:50:00,
2013-06-20 19:51:00,70.7,40.2,29.29,WSW,248,1.1,1.1,33,0.00,,,0.00,VWS V14.01,2013-06-20 23:51:00,
2013-06-20 19:52:00,70.0,39.6,29.29,WNW,292,2.0,2.9,33,0.00,,,0.00,VWS V14.01,2013-06-20 23:52:00,
2013-06-20 19:53:00,71.4,40.0,29.29,West,270,2.0,2.5,32,0.00,,,0.00,VWS V14.01,2013-06-20 23:53:00,
2013-06-20 19:54:00,69.6,40.0,29.29,West,270,1.1,2.9,34,0.00,,,0.00,VWS V14.01,2013-06-20 23:54:00,
2013-06-20 19:55:00,69.4,39.9,29.29,WNW,292,2.0,3.1,34,0.00,,,0.00,VWS V14.01,2013-06-20 23:55:00,
2013-06-20 19:56:00,69.3,39.7,29.29,WNW,292,1.6,2.9,34,0.00,,,0.00,VWS V14.01,2013-06-20 23:56:00,
2013-06-20 19:57:00,69.1,39.6,29.29,WNW,292,0.0,1.6,34,0.00,,,0.00,VWS V14.01,2013-06-20 23:57:00,
2013-06-20 19:58:00,70.0,39.6,29.29,WNW,292,0.9,2.0,33,0.00,,,0.00,VWS V14.01,2013-06-20 23:58:00,
2013-06-20 19:59:00,68.9,40.2,29.29,West,270,0.0,1.3,35,0.00,,,0.00,VWS V14.01,2013-06-20 23:59:00,
2013-06-20 20:00:00,68.9,40.2,29.29,West,270,0.0,0.0,35,0.00,,,0.00,VWS V14.01,2013-06-21 00:00:00,
2013-06-20 20:01:00,68.7,40.7,29.32,SSW,202,0.0,0.0,36,0.00,,,0.00,VWS V14.01,2013-06-21 00:01:00,
2013-06-20 20:02:00,68.7,40.7,29.32,SSW,202,0.0,0.0,36,0.00,,,0.00,VWS V14.01,2013-06-21 00:02:00,
2013-06-20 20:03:00,69.1,40.3,29.29,WNW,292,0.0,0.0,35,0.00,,,0.00,VWS V14.01,2013-06-21 00:03:00,
2013-06-20 20:04:00,68.5,39.8,29.32,SSW,202,0.0,0.0,35,0.00,,,0.00,VWS V14.01,2013-06-21 00:04:00,
2013-06-20 20:05:00,68.5,39.8,29.32,NNE,22,0.0,0.0,35,0.00,,,0.00,VWS V14.01,2013-06-21 00:05:00,
2013-06-20 20:06:00,68.4,39.7,29.32,NNE,22,0.0,0.0,35,0.00,,,0.00,VWS V14.01,2013-06-21 00:06:00,
2013-06-20 20:07:00,68.4,40.4,29.32,NNE,22,0.0,0.0,36,0.00,,,0.00,VWS V14.01,2013-06-21 00:07:00,
2013-06-20 20:08:00,68.7,40.0,29.32,SSW,202,0.0,0.0,35,0.00,,,0.00,VWS V14.01,2013-06-21 00:08:00,
2013-06-20 20:10:00,68.2,40.2,29.32,NE,45,0.0,0.0,36,0.00,,,0.00,VWS V14.01,2013-06-21 00:10:00,
2013-06-20 20:11:00,68.0,40.1,29.32,NE,45,0.0,0.0,36,0.00,,,0.00,VWS V14.01,2013-06-21 00:11:00,
2013-06-20 20:12:00,68.0,40.1,29.32,NE,45,0.0,0.0,36,0.00,,,0.00,VWS V14.01,2013-06-21 00:12:00,
2013-06-20 20:13:00,68.4,40.4,29.32,NNE,22,0.0,0.0,36,0.00,,,0.00,VWS V14.01,2013-06-21 00:13:00,
2013-06-20 20:14:00,67.8,39.9,29.32,NE,45,0.9,0.9,36,0.00,,,0.00,VWS V14.01,2013-06-21 00:14:00,
2013-06-20 20:15:00,67.8,39.9,29.32,NE,45,0.0,0.9,36,0.00,,,0.00,VWS V14.01,2013-06-21 00:15:00,
2013-06-20 20:16:00,67.6,40.5,29.29,NE,45,0.0,0.0,37,0.00,,,0.00,VWS V14.01,2013-06-21 00:16:00,
2013-06-20 20:17:00,67.6,39.8,29.29,NE,45,0.0,0.0,36,0.00,,,0.00,VWS V14.01,2013-06-21 00:17:00,
2013-06-20 20:18:00,68.0,40.1,29.32,NE,45,0.0,0.0,36,0.00,,,0.00,VWS V14.01,2013-06-21 00:18:00,
2013-06-20 20:19:00,67.5,39.6,29.29,NE,45,0.0,1.3,36,0.00,,,0.00,VWS V14.01,2013-06-21 00:19:00,
2013-06-20 20:20:00,67.5,39.6,29.29,NE,45,0.0,0.0,36,0.00,,,0.00,VWS V14.01,2013-06-21 00:20:00,
2013-06-20 20:21:00,67.5,39.6,29.29,NE,45,0.0,0.0,36,0.00,,,0.00,VWS V14.01,2013-06-21 00:21:00,
2013-06-20 20:22:00,67.5,40.3,29.29,NE,45,0.0,0.0,37,0.00,,,0.00,VWS V14.01,2013-06-21 00:22:00,
2013-06-20 20:23:00,67.5,39.6,29.29,NE,45,0.0,0.0,36,0.00,,,0.00,VWS V14.01,2013-06-21 00:23:00,
2013-06-20 20:24:00,67.3,39.4,29.29,NE,45,0.0,0.0,36,0.00,,,0.00,VWS V14.01,2013-06-21 00:24:00,
2013-06-20 20:25:00,67.3,40.1,29.29,NE,45,0.0,0.0,37,0.00,,,0.00,VWS V14.01,2013-06-21 00:25:00,
2013-06-20 20:26:00,67.1,40.0,29.29,NE,45,0.0,0.0,37,0.00,,,0.00,VWS V14.01,2013-06-21 00:26:00,
2013-06-20 20:27:00,67.1,40.0,29.29,NE,45,0.0,0.0,37,0.00,,,0.00,VWS V14.01,2013-06-21 00:27:00,
2013-06-20 20:28:00,67.5,40.3,29.29,NE,45,0.0,0.0,37,0.00,,,0.00,VWS V14.01,2013-06-21 00:28:00,
2013-06-20 20:29:00,66.9,39.8,29.29,NE,45,0.0,0.0,37,0.00,,,0.00,VWS V14.01,2013-06-21 00:29:00,
2013-06-20 20:30:00,66.9,39.8,29.29,NE,45,0.0,0.0,37,0.00,,,0.00,VWS V14.01,2013-06-21 00:30:00,
2013-06-20 20:31:00,66.9,39.8,29.29,NE,45,0.0,0.0,37,0.00,,,0.00,VWS V14.01,2013-06-21 00:31:00,
2013-06-20 20:33:00,67.1,40.0,29.29,NE,45,0.0,0.0,37,0.00,,,0.00,VWS V14.01,2013-06-21 00:33:00,
2013-06-20 20:34:00,66.9,39.8,29.29,NE,45,0.0,0.0,37,0.00,,,0.00,VWS V14.01,2013-06-21 00:34:00,
2013-06-20 20:36:00,66.6,39.5,29.29,NE,45,0.0,0.0,37,0.00,,,0.00,VWS V14.01,2013-06-21 00:36:00,
2013-06-20 20:37:00,66.2,39.9,29.29,NE,45,0.0,0.0,38,0.00,,,0.00,VWS V14.01,2013-06-21 00:37:00,
2013-06-20 20:38:00,66.9,39.8,29.29,NE,45,0.0,0.0,37,0.00,,,0.00,VWS V14.01,2013-06-21 00:38:00,
2013-06-20 20:39:00,66.2,39.9,29.29,NE,45,0.0,0.0,38,0.00,,,0.00,VWS V14.01,2013-06-21 00:39:00,
2013-06-20 20:40:00,66.0,39.7,29.29,ENE,68,0.0,0.0,38,0.00,,,0.00,VWS V14.01,2013-06-21 00:40:00,
2013-06-20 20:41:00,66.0,39.7,29.29,ENE,68,0.0,0.0,38,0.00,,,0.00,VWS V14.01,2013-06-21 00:41:00,
2013-06-20 20:42:00,66.0,39.7,29.29,ENE,68,0.0,0.0,38,0.00,,,0.00,VWS V14.01,2013-06-21 00:42:00,
2013-06-20 20:43:00,66.2,39.2,29.29,NE,45,0.0,0.0,37,0.00,,,0.00,VWS V14.01,2013-06-21 00:43:00,
2013-06-20 20:44:00,65.8,40.2,29.29,ENE,68,0.9,0.9,39,0.00,,,0.00,VWS V14.01,2013-06-21 00:44:00,
2013-06-20 20:45:00,65.8,40.9,29.29,ENE,68,0.0,0.9,40,0.00,,,0.00,VWS V14.01,2013-06-21 00:45:00,
2013-06-20 20:46:00,65.8,40.9,29.29,ENE,68,0.0,0.0,40,0.00,,,0.00,VWS V14.01,2013-06-21 00:46:00,
2013-06-20 20:47:00,65.8,40.9,29.29,ENE,68,0.0,0.0,40,0.00,,,0.00,VWS V14.01,2013-06-21 00:47:00,
2013-06-20 20:48:00,65.8,40.2,29.29,ENE,68,0.0,0.0,39,0.00,,,0.00,VWS V14.01,2013-06-21 00:48:00,
2013-06-20 20:49:00,65.8,40.9,29.29,ENE,68,0.0,0.0,40,0.00,,,0.00,VWS V14.01,2013-06-21 00:49:00,
2013-06-20 20:50:00,65.8,40.9,29.29,ENE,68,0.0,0.0,40,0.00,,,0.00,VWS V14.01,2013-06-21 00:50:00,
2013-06-20 20:51:00,65.7,41.3,29.29,ENE,68,1.1,1.1,41,0.00,,,0.00,VWS V14.01,2013-06-21 00:51:00,
2013-06-20 20:52:00,65.7,42.0,29.29,ENE,68,1.3,1.3,42,0.00,,,0.00,VWS V14.01,2013-06-21 00:52:00,
2013-06-20 20:53:00,65.8,40.9,29.29,ENE,68,0.0,0.0,40,0.00,,,0.00,VWS V14.01,2013-06-21 00:53:00,
2013-06-20 20:54:00,65.7,41.3,29.29,ENE,68,0.0,1.1,41,0.00,,,0.00,VWS V14.01,2013-06-21 00:54:00,
2013-06-20 20:55:00,65.7,41.3,29.29,East,90,2.0,2.0,41,0.00,,,0.00,VWS V14.01,2013-06-21 00:55:00,
2013-06-20 20:56:00,65.8,42.1,29.29,ENE,68,0.0,2.0,42,0.00,,,0.00,VWS V14.01,2013-06-21 00:56:00,
2013-06-20 20:57:00,65.8,42.1,29.29,ENE,68,0.0,0.0,42,0.00,,,0.00,VWS V14.01,2013-06-21 00:57:00,
2013-06-20 20:58:00,65.7,41.3,29.29,ENE,68,0.9,1.3,41,0.00,,,0.00,VWS V14.01,2013-06-21 00:58:00,
2013-06-20 20:59:00,65.7,41.3,29.29,ENE,68,0.0,0.0,41,0.00,,,0.00,VWS V14.01,2013-06-21 00:59:00,
2013-06-20 21:00:00,65.7,41.3,29.29,ENE,68,0.0,0.0,41,0.00,,,0.00,VWS V14.01,2013-06-21 01:00:00,
2013-06-20 21:01:00,65.7,41.3,29.29,ENE,68,1.1,1.1,41,0.00,,,0.00,VWS V14.01,2013-06-21 01:01:00,
2013-06-20 21:02:00,65.7,41.3,29.29,ENE,68,1.1,2.0,41,0.00,,,0.00,VWS V14.01,2013-06-21 01:02:00,
2013-06-20 21:03:00,65.8,42.1,29.29,ENE,68,0.0,0.0,42,0.00,,,0.00,VWS V14.01,2013-06-21 01:03:00,
2013-06-20 21:04:00,65.5,41.2,29.29,ENE,68,0.0,0.0,41,0.00,,,0.00,VWS V14.01,2013-06-21 01:04:00,
2013-06-20 21:05:00,65.5,41.2,29.29,ENE,68,0.0,0.0,41,0.00,,,0.00,VWS V14.01,2013-06-21 01:05:00,
2013-06-20 21:06:00,65.5,41.2,29.29,ENE,68,0.0,0.0,41,0.00,,,0.00,VWS V14.01,2013-06-21 01:06:00,
2013-06-20 21:07:00,65.5,41.8,29.29,ENE,68,0.0,0.0,42,0.00,,,0.00,VWS V14.01,2013-06-21 01:07:00,
2013-06-20 21:08:00,65.5,41.2,29.29,ENE,68,0.0,1.1,41,0.00,,,0.00,VWS V14.01,2013-06-21 01:08:00,
2013-06-20 21:09:00,65.3,41.0,29.29,ENE,68,0.0,0.0,41,0.00,,,0.00,VWS V14.01,2013-06-21 01:09:00,
2013-06-20 21:10:00,65.3,41.0,29.29,ENE,68,0.0,0.0,41,0.00,,,0.00,VWS V14.01,2013-06-21 01:10:00,
2013-06-20 21:11:00,65.3,41.0,29.29,ENE,68,0.0,0.0,41,0.00,,,0.00,VWS V14.01,2013-06-21 01:11:00,
2013-06-20 21:12:00,65.3,41.0,29.29,ENE,68,0.0,0.0,41,0.00,,,0.00,VWS V14.01,2013-06-21 01:12:00,
2013-06-20 21:13:00,65.5,41.8,29.29,ENE,68,0.0,0.0,42,0.00,,,0.00,VWS V14.01,2013-06-21 01:13:00,
2013-06-20 21:14:00,65.3,42.2,29.29,East,90,1.6,1.6,43,0.00,,,0.00,VWS V14.01,2013-06-21 01:14:00,
2013-06-20 21:15:00,65.3,42.2,29.29,East,90,0.9,1.6,43,0.00,,,0.00,VWS V14.01,2013-06-21 01:15:00,
2013-06-20 21:16:00,65.3,42.2,29.29,East,90,2.5,2.5,43,0.00,,,0.00,VWS V14.01,2013-06-21 01:16:00,
2013-06-20 21:17:00,65.3,42.2,29.26,ESE,112,2.5,2.5,43,0.00,,,0.00,VWS V14.01,2013-06-21 01:17:00,
2013-06-20 21:18:00,65.3,41.6,29.29,ENE,68,0.0,0.0,42,0.00,,,0.00,VWS V14.01,2013-06-21 01:18:00,
2013-06-20 21:19:00,65.3,42.2,29.26,ESE,112,1.6,1.6,43,0.00,,,0.00,VWS V14.01,2013-06-21 01:19:00,
2013-06-20 21:20:00,65.3,42.2,29.26,ESE,112,0.0,1.6,43,0.00,,,0.00,VWS V14.01,2013-06-21 01:20:00,
2013-06-20 21:21:00,65.3,42.2,29.26,ESE,112,0.0,0.0,43,0.00,,,0.00,VWS V14.01,2013-06-21 01:21:00,
2013-06-20 21:22:00,65.1,42.1,29.26,ESE,112,0.0,0.0,43,0.00,,,0.00,VWS V14.01,2013-06-21 01:22:00,
2013-06-20 21:23:00,65.3,42.2,29.26,ESE,112,2.5,2.5,43,0.00,,,0.00,VWS V14.01,2013-06-21 01:23:00,
2013-06-20 21:24:00,65.1,41.5,29.26,ESE,112,0.0,0.0,42,0.00,,,0.00,VWS V14.01,2013-06-21 01:24:00,
2013-06-20 21:25:00,65.1,42.1,29.26,ESE,112,0.0,0.0,43,0.00,,,0.00,VWS V14.01,2013-06-21 01:25:00,
2013-06-20 21:26:00,65.1,42.1,29.26,ESE,112,0.0,0.0,43,0.00,,,0.00,VWS V14.01,2013-06-21 01:26:00,
2013-06-20 21:27:00,64.9,41.9,29.26,ESE,112,0.0,0.0,43,0.00,,,0.00,VWS V14.01,2013-06-21 01:27:00,
2013-06-20 21:28:00,65.1,42.1,29.26,ESE,112,0.0,0.0,43,0.00,,,0.00,VWS V14.01,2013-06-21 01:28:00,
2013-06-20 21:29:00,64.6,41.6,29.26,East,90,0.0,0.0,43,0.00,,,0.00,VWS V14.01,2013-06-21 01:29:00,
2013-06-20 21:30:00,64.6,41.6,29.26,East,90,0.0,0.0,43,0.00,,,0.00,VWS V14.01,2013-06-21 01:30:00,
2013-06-20 21:31:00,64.6,41.6,29.26,East,90,0.0,0.0,43,0.00,,,0.00,VWS V14.01,2013-06-21 01:31:00,
2013-06-20 21:32:00,64.4,41.4,29.26,ENE,68,0.0,0.0,43,0.00,,,0.00,VWS V14.01,2013-06-21 01:32:00,
2013-06-20 21:33:00,64.9,41.9,29.26,East,90,0.0,0.0,43,0.00,,,0.00,VWS V14.01,2013-06-21 01:33:00,
2013-06-20 21:34:00,64.2,41.9,29.26,East,90,1.3,1.3,44,0.00,,,0.00,VWS V14.01,2013-06-21 01:34:00,
2013-06-20 21:35:00,64.2,41.9,29.26,East,90,1.3,1.6,44,0.00,,,0.00,VWS V14.01,2013-06-21 01:35:00,
2013-06-20 21:36:00,64.0,42.3,29.26,East,90,2.0,2.0,45,0.00,,,0.00,VWS V14.01,2013-06-21 01:36:00,
2013-06-20 21:37:00,64.0,42.3,29.26,East,90,2.0,2.0,45,0.00,,,0.00,VWS V14.01,2013-06-21 01:37:00,
2013-06-20 21:38:00,64.2,41.9,29.26,East,90,1.3,2.0,44,0.00,,,0.00,VWS V14.01,2013-06-21 01:38:00,
2013-06-20 21:39:00,64.0,42.3,29.26,East,90,1.3,1.3,45,0.00,,,0.00,VWS V14.01,2013-06-21 01:39:00,
2013-06-20 21:40:00,64.0,42.3,29.26,East,90,2.0,2.0,45,0.00,,,0.00,VWS V14.01,2013-06-21 01:40:00,
2013-06-20 21:41:00,64.2,42.5,29.26,East,90,0.0,2.0,45,0.00,,,0.00,VWS V14.01,2013-06-21 01:41:00,
2013-06-20 21:42:00,64.2,42.5,29.26,East,90,1.6,1.6,45,0.00,,,0.00,VWS V14.01,2013-06-21 01:42:00,
2013-06-20 21:43:00,64.0,42.3,29.26,East,90,1.1,1.1,45,0.00,,,0.00,VWS V14.01,2013-06-21 01:43:00,
2013-06-20 21:44:00,64.2,42.5,29.26,East,90,2.0,2.0,45,0.00,,,0.00,VWS V14.01,2013-06-21 01:44:00,
2013-06-20 21:45:00,64.2,42.5,29.26,East,90,1.1,2.0,45,0.00,,,0.00,VWS V14.01,2013-06-21 01:45:00,
2013-06-20 21:46:00,64.0,42.9,29.29,East,90,1.1,1.6,46,0.00,,,0.00,VWS V14.01,2013-06-21 01:46:00,
2013-06-20 21:47:00,64.0,42.9,29.29,East,90,0.0,1.1,46,0.00,,,0.00,VWS V14.01,2013-06-21 01:47:00,
2013-06-20 21:48:00,64.0,42.9,29.29,East,90,0.0,0.0,46,0.00,,,0.00,VWS V14.01,2013-06-21 01:48:00,
2013-06-20 21:49:00,64.2,42.5,29.26,East,90,2.0,2.0,45,0.00,,,0.00,VWS V14.01,2013-06-21 01:49:00,
2013-06-20 21:50:00,64.0,42.9,29.29,East,90,0.0,0.0,46,0.00,,,0.00,VWS V14.01,2013-06-21 01:50:00,
2013-06-20 21:51:00,63.9,42.1,29.29,East,90,0.0,0.0,45,0.00,,,0.00,VWS V14.01,2013-06-21 01:51:00,
2013-06-20 21:52:00,63.9,42.1,29.29,East,90,0.0,0.0,45,0.00,,,0.00,VWS V14.01,2013-06-21 01:52:00,
2013-06-20 21:53:00,63.9,42.1,29.29,East,90,0.0,0.0,45,0.00,,,0.00,VWS V14.01,2013-06-21 01:53:00,
2013-06-20 21:54:00,64.0,42.9,29.29,East,90,0.0,0.0,46,0.00,,,0.00,VWS V14.01,2013-06-21 01:54:00,
2013-06-20 21:55:00,63.9,42.7,29.29,East,90,2.7,2.7,46,0.00,,,0.00,VWS V14.01,2013-06-21 01:55:00,
2013-06-20 21:56:00,63.9,42.7,29.29,East,90,2.2,2.7,46,0.00,,,0.00,VWS V14.01,2013-06-21 01:56:00,
2013-06-20 21:57:00,64.0,42.9,29.29,East,90,0.9,2.2,46,0.00,,,0.00,VWS V14.01,2013-06-21 01:57:00,
2013-06-20 21:58:00,64.0,42.9,29.29,East,90,0.0,0.9,46,0.00,,,0.00,VWS V14.01,2013-06-21 01:58:00,
2013-06-20 21:59:00,63.9,42.1,29.29,East,90,0.0,0.0,45,0.00,,,0.00,VWS V14.01,2013-06-21 01:59:00,
2013-06-20 22:00:00,64.0,42.9,29.29,East,90,0.9,1.6,46,0.00,,,0.00,VWS V14.01,2013-06-21 02:00:00,
2013-06-20 22:01:00,64.0,42.9,29.29,East,90,0.0,0.9,46,0.00,,,0.00,VWS V14.01,2013-06-21 02:01:00,
2013-06-20 22:02:00,63.9,42.7,29.29,East,90,0.0,0.0,46,0.00,,,0.00,VWS V14.01,2013-06-21 02:02:00,
2013-06-20 22:03:00,63.7,43.1,29.29,East,90,0.9,0.9,47,0.00,,,0.00,VWS V14.01,2013-06-21 02:03:00,
2013-06-20 22:04:00,64.0,42.9,29.29,East,90,0.0,0.0,46,0.00,,,0.00,VWS V14.01,2013-06-21 02:04:00,
2013-06-20 22:05:00,63.5,42.9,29.29,East,90,1.6,1.6,47,0.00,,,0.00,VWS V14.01,2013-06-21 02:05:00,
2013-06-20 22:06:00,63.3,43.3,29.29,ESE,112,3.8,3.8,48,0.00,,,0.00,VWS V14.01,2013-06-21 02:06:00,
2013-06-20 22:07:00,63.1,43.7,29.29,ESE,112,2.9,3.8,49,0.00,,,0.00,VWS V14.01,2013-06-21 02:07:00,
2013-06-20 22:08:00,63.0,43.5,29.29,East,90,2.5,2.9,49,0.00,,,0.00,VWS V14.01,2013-06-21 02:08:00,
2013-06-20 22:09:00,63.7,43.1,29.29,East,90,0.0,1.3,47,0.00,,,0.00,VWS V14.01,2013-06-21 02:09:00,
2013-06-20 22:10:00,63.0,43.5,29.29,East,90,2.5,2.5,49,0.00,,,0.00,VWS V14.01,2013-06-21 02:10:00,
2013-06-20 22:11:00,63.0,43.0,29.29,East,90,1.6,2.5,48,0.00,,,0.00,VWS V14.01,2013-06-21 02:11:00,
2013-06-20 22:12:00,63.0,43.0,29.29,East,90,2.2,2.5,48,0.00,,,0.00,VWS V14.01,2013-06-21 02:12:00,
2013-06-20 22:13:00,63.1,43.2,29.29,East,90,2.0,2.9,48,0.00,,,0.00,VWS V14.01,2013-06-21 02:13:00,
2013-06-20 22:14:00,63.0,43.5,29.29,East,90,2.7,2.7,49,0.00,,,0.00,VWS V14.01,2013-06-21 02:14:00,
2013-06-20 22:15:00,63.3,43.3,29.29,East,90,1.3,2.5,48,0.00,,,0.00,VWS V14.01,2013-06-21 02:15:00,
2013-06-20 22:16:00,63.3,42.8,29.29,East,90,2.2,2.2,47,0.00,,,0.00,VWS V14.01,2013-06-21 02:16:00,
2013-06-20 22:17:00,63.3,42.8,29.29,East,90,2.5,2.5,47,0.00,,,0.00,VWS V14.01,2013-06-21 02:17:00,
2013-06-20 22:18:00,63.5,43.5,29.29,East,90,2.2,2.5,48,0.00,,,0.00,VWS V14.01,2013-06-21 02:18:00,
2013-06-20 22:19:00,63.1,43.2,29.29,ESE,112,2.0,2.0,48,0.00,,,0.00,VWS V14.01,2013-06-21 02:19:00,
2013-06-20 22:20:00,63.5,42.9,29.29,East,90,0.0,1.1,47,0.00,,,0.00,VWS V14.01,2013-06-21 02:20:00,
2013-06-20 22:21:00,63.5,42.9,29.29,East,90,0.0,1.1,47,0.00,,,0.00,VWS V14.01,2013-06-21 02:21:00,
2013-06-20 22:22:00,63.5,42.9,29.29,East,90,0.0,0.0,47,0.00,,,0.00,VWS V14.01,2013-06-21 02:22:00,
2013-06-20 22:23:00,63.5,42.9,29.29,East,90,1.6,1.6,47,0.00,,,0.00,VWS V14.01,2013-06-21 02:23:00,
2013-06-20 22:24:00,63.5,42.9,29.29,East,90,2.0,2.2,47,0.00,,,0.00,VWS V14.01,2013-06-21 02:24:00,
2013-06-20 22:25:00,63.5,42.9,29.29,East,90,0.0,1.6,47,0.00,,,0.00,VWS V14.01,2013-06-21 02:25:00,
2013-06-20 22:26:00,63.5,42.9,29.29,East,90,2.0,2.0,47,0.00,,,0.00,VWS V14.01,2013-06-21 02:26:00,
2013-06-20 22:27:00,63.5,42.9,29.29,East,90,0.0,2.5,47,0.00,,,0.00,VWS V14.01,2013-06-21 02:27:00,
2013-06-20 22:28:00,63.5,42.9,29.29,ENE,68,0.0,2.0,47,0.00,,,0.00,VWS V14.01,2013-06-21 02:28:00,
2013-06-20 22:29:00,63.5,42.9,29.29,East,90,0.9,1.6,47,0.00,,,0.00,VWS V14.01,2013-06-21 02:29:00,
2013-06-20 22:30:00,63.5,42.9,29.29,East,90,2.2,2.2,47,0.00,,,0.00,VWS V14.01,2013-06-21 02:30:00,
2013-06-20 22:31:00,63.3,43.3,29.32,ENE,68,0.9,2.2,48,0.00,,,0.00,VWS V14.01,2013-06-21 02:31:00,
2013-06-20 22:32:00,63.3,43.3,29.32,East,90,2.0,2.0,48,0.00,,,0.00,VWS V14.01,2013-06-21 02:32:00,
2013-06-20 22:33:00,63.3,42.8,29.32,East,90,0.0,2.0,47,0.00,,,0.00,VWS V14.01,2013-06-21 02:33:00,
2013-06-20 22:34:00,63.5,42.9,29.29,ENE,68,2.0,2.0,47,0.00,,,0.00,VWS V14.01,2013-06-21 02:34:00,
2013-06-20 22:35:00,63.3,42.8,29.32,East,90,0.0,0.0,47,0.00,,,0.00,VWS V14.01,2013-06-21 02:35:00,
2013-06-20 22:36:00,63.3,42.8,29.32,ESE,112,0.0,0.0,47,0.00,,,0.00,VWS V14.01,2013-06-21 02:36:00,
2013-06-20 22:37:00,63.3,42.8,29.32,ESE,112,0.0,0.0,47,0.00,,,0.00,VWS V14.01,2013-06-21 02:37:00,
2013-06-20 22:38:00,63.3,42.8,29.32,ESE,112,0.0,0.9,47,0.00,,,0.00,VWS V14.01,2013-06-21 02:38:00,
2013-06-20 22:39:00,63.3,42.8,29.32,East,90,0.0,0.0,47,0.00,,,0.00,VWS V14.01,2013-06-21 02:39:00,
2013-06-20 22:40:00,63.5,42.9,29.32,ESE,112,0.0,0.0,47,0.00,,,0.00,VWS V14.01,2013-06-21 02:40:00,
2013-06-20 22:41:00,63.5,42.9,29.32,ESE,112,0.0,0.0,47,0.00,,,0.00,VWS V14.01,2013-06-21 02:41:00,
2013-06-20 22:42:00,63.5,42.9,29.32,ESE,112,0.0,0.0,47,0.00,,,0.00,VWS V14.01,2013-06-21 02:42:00,
2013-06-20 22:43:00,63.3,42.8,29.32,ESE,112,0.0,0.0,47,0.00,,,0.00,VWS V14.01,2013-06-21 02:43:00,
2013-06-20 22:44:00,63.3,42.8,29.32,ESE,112,0.0,0.9,47,0.00,,,0.00,VWS V14.01,2013-06-21 02:44:00,
2013-06-20 22:45:00,63.3,42.8,29.32,ESE,112,0.0,1.6,47,0.00,,,0.00,VWS V14.01,2013-06-21 02:45:00,
2013-06-20 22:46:00,63.5,42.9,29.32,East,90,1.3,1.3,47,0.00,,,0.00,VWS V14.01,2013-06-21 02:46:00,
2013-06-20 22:47:00,63.5,42.9,29.32,East,90,1.3,1.6,47,0.00,,,0.00,VWS V14.01,2013-06-21 02:47:00,
2013-06-20 22:48:00,63.5,42.9,29.32,East,90,1.1,1.3,47,0.00,,,0.00,VWS V14.01,2013-06-21 02:48:00,
2013-06-20 22:49:00,63.3,42.8,29.32,ESE,112,1.1,1.3,47,0.00,,,0.00,VWS V14.01,2013-06-21 02:49:00,
2013-06-20 22:50:00,63.7,43.1,29.32,East,90,0.0,1.1,47,0.00,,,0.00,VWS V14.01,2013-06-21 02:50:00,
2013-06-20 22:51:00,63.7,43.1,29.32,East,90,0.0,0.0,47,0.00,,,0.00,VWS V14.01,2013-06-21 02:51:00,
2013-06-20 22:52:00,63.9,43.3,29.32,East,90,0.0,0.0,47,0.00,,,0.00,VWS V14.01,2013-06-21 02:52:00,
2013-06-20 22:53:00,63.9,43.3,29.32,East,90,0.0,0.0,47,0.00,,,0.00,VWS V14.01,2013-06-21 02:53:00,
2013-06-20 22:54:00,63.5,42.9,29.32,East,90,1.3,1.6,47,0.00,,,0.00,VWS V14.01,2013-06-21 02:54:00,
2013-06-20 22:55:00,63.9,43.3,29.32,East,90,0.0,0.0,47,0.00,,,0.00,VWS V14.01,2013-06-21 02:55:00,
2013-06-20 22:56:00,64.0,43.4,29.32,East,90,1.6,1.6,47,0.00,,,0.00,VWS V14.01,2013-06-21 02:56:00,
2013-06-20 22:58:00,64.0,43.4,29.32,East,90,1.3,2.2,47,0.00,,,0.00,VWS V14.01,2013-06-21 02:58:00,
2013-06-20 22:59:00,63.9,43.3,29.32,East,90,0.0,0.0,47,0.00,,,0.00,VWS V14.01,2013-06-21 02:59:00,
2013-06-20 23:00:00,64.2,43.6,29.32,ESE,112,2.0,2.0,47,0.00,,,0.00,VWS V14.01,2013-06-21 03:00:00,
2013-06-20 23:01:00,64.2,43.6,29.32,ESE,112,1.3,2.0,47,0.00,,,0.00,VWS V14.01,2013-06-21 03:01:00,
2013-06-20 23:02:00,64.4,43.8,29.32,ESE,112,1.6,1.6,47,0.00,,,0.00,VWS V14.01,2013-06-21 03:02:00,
2013-06-20 23:03:00,64.4,43.8,29.32,East,90,1.6,2.5,47,0.00,,,0.00,VWS V14.01,2013-06-21 03:03:00,
2013-06-20 23:04:00,64.0,43.4,29.32,East,90,0.0,1.3,47,0.00,,,0.00,VWS V14.01,2013-06-21 03:04:00,
2013-06-20 23:05:00,64.4,43.8,29.32,East,90,0.9,1.1,47,0.00,,,0.00,VWS V14.01,2013-06-21 03:05:00,
2013-06-20 23:06:00,64.6,43.3,29.32,East,90,0.9,0.9,46,0.00,,,0.00,VWS V14.01,2013-06-21 03:06:00,
2013-06-20 23:07:00,64.4,43.2,29.32,ESE,112,0.0,1.1,46,0.00,,,0.00,VWS V14.01,2013-06-21 03:07:00,
2013-06-20 23:08:00,64.4,43.2,29.32,ESE,112,0.0,0.0,46,0.00,,,0.00,VWS V14.01,2013-06-21 03:08:00,
2013-06-20 23:09:00,64.4,43.8,29.32,East,90,1.1,1.6,47,0.00,,,0.00,VWS V14.01,2013-06-21 03:09:00,
2013-06-20 23:10:00,64.4,43.2,29.32,ESE,112,0.0,0.0,46,0.00,,,0.00,VWS V14.01,2013-06-21 03:10:00,
2013-06-20 23:11:00,64.4,43.2,29.32,East,90,0.0,0.9,46,0.00,,,0.00,VWS V14.01,2013-06-21 03:11:00,
2013-06-20 23:12:00,64.4,43.2,29.32,ESE,112,1.1,1.6,46,0.00,,,0.00,VWS V14.01,2013-06-21 03:12:00,
2013-06-20 23:13:00,64.4,43.2,29.32,East,90,0.0,2.5,46,0.00,,,0.00,VWS V14.01,2013-06-21 03:13:00,
2013-06-20 23:14:00,64.4,43.2,29.32,ESE,112,0.0,0.0,46,0.00,,,0.00,VWS V14.01,2013-06-21 03:14:00,
2013-06-20 23:15:00,64.4,43.2,29.32,East,90,0.0,0.0,46,0.00,,,0.00,VWS V14.01,2013-06-21 03:15:00,
2013-06-20 23:16:00,64.4,43.2,29.32,East,90,0.0,0.0,46,0.00,,,0.00,VWS V14.01,2013-06-21 03:16:00,
2013-06-20 23:17:00,64.4,43.2,29.32,East,90,0.0,0.0,46,0.00,,,0.00,VWS V14.01,2013-06-21 03:17:00,
2013-06-20 23:18:00,64.2,43.6,29.32,East,90,0.0,0.0,47,0.00,,,0.00,VWS V14.01,2013-06-21 03:18:00,
2013-06-20 23:19:00,64.4,43.2,29.32,East,90,0.0,0.0,46,0.00,,,0.00,VWS V14.01,2013-06-21 03:19:00,
2013-06-20 23:20:00,64.2,43.6,29.32,East,90,0.0,0.0,47,0.00,,,0.00,VWS V14.01,2013-06-21 03:20:00,
2013-06-20 23:21:00,64.2,43.6,29.32,East,90,2.0,2.0,47,0.00,,,0.00,VWS V14.01,2013-06-21 03:21:00,
2013-06-20 23:22:00,64.2,43.6,29.32,East,90,2.0,2.0,47,0.00,,,0.00,VWS V14.01,2013-06-21 03:22:00,
2013-06-20 23:23:00,64.2,43.6,29.32,East,90,2.2,2.2,47,0.00,,,0.00,VWS V14.01,2013-06-21 03:23:00,
2013-06-20 23:24:00,64.2,43.6,29.32,East,90,0.0,0.0,47,0.00,,,0.00,VWS V14.01,2013-06-21 03:24:00,
2013-06-20 23:25:00,64.4,43.8,29.32,East,90,2.0,2.0,47,0.00,,,0.00,VWS V14.01,2013-06-21 03:25:00,
2013-06-20 23:26:00,64.4,43.8,29.32,East,90,0.0,2.0,47,0.00,,,0.00,VWS V14.01,2013-06-21 03:26:00,
2013-06-20 23:27:00,64.4,43.8,29.32,East,90,0.0,0.0,47,0.00,,,0.00,VWS V14.01,2013-06-21 03:27:00,
2013-06-20 23:28:00,64.4,43.8,29.32,East,90,0.0,0.9,47,0.00,,,0.00,VWS V14.01,2013-06-21 03:28:00,
2013-06-20 23:29:00,64.2,43.6,29.32,East,90,1.3,2.2,47,0.00,,,0.00,VWS V14.01,2013-06-21 03:29:00,
2013-06-20 23:30:00,64.2,43.6,29.32,East,90,0.0,1.1,47,0.00,,,0.00,VWS V14.01,2013-06-21 03:30:00,
2013-06-20 23:31:00,64.2,43.6,29.32,ESE,112,0.0,1.1,47,0.00,,,0.00,VWS V14.01,2013-06-21 03:31:00,
2013-06-20 23:32:00,64.2,43.6,29.32,ESE,112,2.7,2.7,47,0.00,,,0.00,VWS V14.01,2013-06-21 03:32:00,
2013-06-20 23:33:00,64.0,43.4,29.32,East,90,2.7,2.9,47,0.00,,,0.00,VWS V14.01,2013-06-21 03:33:00,
2013-06-20 23:34:00,64.2,43.6,29.32,East,90,0.0,0.9,47,0.00,,,0.00,VWS V14.01,2013-06-21 03:34:00,
2013-06-20 23:35:00,64.0,44.0,29.32,East,90,2.5,2.7,48,0.00,,,0.00,VWS V14.01,2013-06-21 03:35:00,
2013-06-20 23:36:00,64.0,44.0,29.32,ENE,68,2.7,2.7,48,0.00,,,0.00,VWS V14.01,2013-06-21 03:36:00,
2013-06-20 23:37:00,64.0,44.0,29.32,East,90,2.9,2.9,48,0.00,,,0.00,VWS V14.01,2013-06-21 03:37:00,
2013-06-20 23:39:00,64.0,43.4,29.32,East,90,2.5,2.7,47,0.00,,,0.00,VWS V14.01,2013-06-21 03:39:00,
2013-06-20 23:40:00,64.0,44.0,29.32,ENE,68,1.1,1.6,48,0.00,,,0.00,VWS V14.01,2013-06-21 03:40:00,
2013-06-20 23:41:00,64.0,44.0,29.32,ENE,68,1.3,1.3,48,0.00,,,0.00,VWS V14.01,2013-06-21 03:41:00,
2013-06-20 23:42:00,64.0,44.0,29.32,East,90,0.0,2.0,48,0.00,,,0.00,VWS V14.01,2013-06-21 03:42:00,
2013-06-20 23:44:00,64.0,44.0,29.32,ENE,68,1.6,2.9,48,0.00,,,0.00,VWS V14.01,2013-06-21 03:44:00,
2013-06-20 23:45:00,64.0,44.0,29.32,ENE,68,1.1,2.0,48,0.00,,,0.00,VWS V14.01,2013-06-21 03:45:00,
2013-06-20 23:46:00,64.0,44.0,29.32,East,90,1.1,3.1,48,0.00,,,0.00,VWS V14.01,2013-06-21 03:46:00,
2013-06-20 23:47:00,64.0,44.0,29.32,East,90,1.6,2.9,48,0.00,,,0.00,VWS V14.01,2013-06-21 03:47:00,
2013-06-20 23:48:00,64.0,44.0,29.32,East,90,1.3,1.6,48,0.00,,,0.00,VWS V14.01,2013-06-21 03:48:00,
2013-06-20 23:49:00,64.0,44.0,29.32,ENE,68,0.0,1.6,48,0.00,,,0.00,VWS V14.01,2013-06-21 03:49:00,
2013-06-20 23:50:00,64.0,44.0,29.32,ENE,68,0.0,1.1,48,0.00,,,0.00,VWS V14.01,2013-06-21 03:50:00,
2013-06-20 23:51:00,64.0,44.0,29.32,East,90,1.1,1.6,48,0.00,,,0.00,VWS V14.01,2013-06-21 03:51:00,
2013-06-20 23:52:00,63.9,44.3,29.32,ENE,68,1.1,1.1,49,0.00,,,0.00,VWS V14.01,2013-06-21 03:52:00,
2013-06-20 23:53:00,63.9,43.8,29.32,East,90,1.3,1.3,48,0.00,,,0.00,VWS V14.01,2013-06-21 03:53:00,
2013-06-20 23:54:00,64.0,44.0,29.32,ESE,112,0.9,2.5,48,0.00,,,0.00,VWS V14.01,2013-06-21 03:54:00,
2013-06-20 23:55:00,64.0,44.5,29.32,ESE,112,1.6,2.5,49,0.00,,,0.00,VWS V14.01,2013-06-21 03:55:00,
2013-06-20 23:56:00,64.0,44.5,29.32,ENE,68,1.3,2.2,49,0.00,,,0.00,VWS V14.01,2013-06-21 03:56:00,
2013-06-20 23:57:00,64.0,44.5,29.32,East,90,1.1,1.3,49,0.00,,,0.00,VWS V14.01,2013-06-21 03:57:00,
2013-06-20 23:58:00,64.0,44.5,29.32,ESE,112,0.9,1.1,49,0.00,,,0.00,VWS V14.01,2013-06-21 03:58:00,
2013-06-20 23:59:00,63.9,44.3,29.32,East,90,2.5,2.5,49,0.00,,,0.00,VWS V14.01,2013-06-21 03:59:00,